[[{"header":{"parameterUnit":"m.s-1","parameterCategory":1,"la1":30.6,"la2":29.2853,"lo1":-89.7004,"lo2":-87.6739,"dy":0.0162,"dx":0.0183,"nx":112,"ny":82,"refTime":"2023-09-04T00:00:00:Z","depth":0,"parameterNumber":2,"parameterNumberName":"U-component_of_WINDS"},"data":[0.0,0.0,0.0,0.0,0.0,0.0,0.0,0.0,0.0,0.0,0.0,0.0,0.0,0.0,0.0,0.0,0.0,0.0,0.0,0.0,0.0,0.0,0.0,0.0,0.0,0.0,0.0,0.0,0.0,0.0,0.0,0.0,0.0,0.0,0.0,0.0,0.0,0.0,0.0,0.0,0.0,0.0,0.0,0.0,0.0,0.0,0.0,0.0,0.0,0.0,0.0,0.0,0.0,0.0,0.0,0.0,0.0,0.0,0.0,0.0,0.0,0.0,0.0,0.0,0.0,0.0,0.0,0.0,0.0,0.0,0.0,0.0,0.0,0.0,0.0,0.0,0.0,0.0,0.0,0.0,0.0,0.0,0.0,0.0,0.0,0.0,0.0,0.0,0.0,0.0,-1.2175,-1.316,-1.4794,-1.6039,-1.6636,-1.4904,-1.3759,-1.368,0.0,0.0,0.0,0.0,0.0,0.0,0.0,0.0,0.0,0.0,0.0,0.0,0.0,0.0,0.0,0.0,0.0,0.0,0.0,0.0,0.0,0.0,0.0,0.0,0.0,0.0,0.0,0.0,0.0,0.0,0.0,0.0,0.0,0.0,0.0,0.0,0.0,0.0,0.0,0.0,0.0,0.0,0.0,0.0,0.0,0.0,0.0,0.0,0.0,0.0,0.0,0.0,0.0,0.0,0.0,0.0,0.0,0.0,0.0,0.0,0.0,0.0,0.0,0.0,0.0,0.0,0.0,0.0,0.0,0.0,0.0,0.0,0.0,0.0,0.0,0.0,0.0,0.0,0.0,0.0,0.0,0.0,0.0,0.0,0.0,0.0,0.0,0.0,0.0,0.0,0.0,0.0,0.0,0.0,0.0,0.0,0.0,0.0,0.0,0.0,0.0,0.0,0.0,0.0,-1.2714,-1.5094,-1.5619,-1.6039,-1.6636,-1.4878,-1.368,-1.3616,0.0,0.0,0.0,0.0,0.0,0.0,0.0,0.0,0.0,0.0,0.0,0.0,0.0,0.0,0.0,0.0,0.0,0.0,0.0,0.0,0.0,0.0,0.0,0.0,0.0,0.0,0.0,0.0,0.0,0.0,0.0,0.0,0.0,0.0,0.0,0.0,0.0,0.0,0.0,0.0,0.0,0.0,0.0,0.0,0.0,0.0,0.0,0.0,0.0,0.0,0.0,0.0,0.0,0.0,0.0,0.0,0.0,0.0,0.0,0.0,0.0,0.0,0.0,0.0,0.0,0.0,0.0,0.0,0.0,0.0,0.0,0.0,0.0,0.0,0.0,0.0,0.0,0.0,0.0,0.0,0.0,0.0,0.0,0.0,0.0,0.0,0.0,0.0,0.0,0.0,0.0,0.0,0.0,0.0,0.0,0.0,0.0,0.0,0.0,0.0,0.0,0.0,0.0,-1.2691,-1.3752,-1.6039,-1.6009,-1.6039,-1.6636,-1.4864,-1.3655,-1.3552,-1.2187,0.0,0.0,0.0,0.0,0.0,0.0,0.0,0.0,0.0,0.0,0.0,0.0,0.0,0.0,0.0,0.0,0.0,0.0,0.0,0.0,0.0,0.0,0.0,0.0,0.0,0.0,0.0,0.0,0.0,0.0,0.0,0.0,0.0,0.0,0.0,0.0,0.0,0.0,0.0,0.0,0.0,0.0,0.0,0.0,0.0,0.0,0.0,0.0,0.0,0.0,0.0,0.0,0.0,0.0,0.0,0.0,0.0,0.0,0.0,0.0,0.0,0.0,0.0,0.0,0.0,0.0,0.0,0.0,0.0,0.0,0.0,0.0,0.0,0.0,0.0,0.0,0.0,0.0,0.0,0.0,0.0,0.0,0.0,0.0,0.0,0.0,0.0,0.0,0.0,0.0,0.0,0.0,0.0,0.0,0.0,0.0,0.0,0.0,0.0,0.0,0.0,0.0,-1.3944,-1.4724,-1.6517,-1.6159,-1.5994,-1.6443,-1.476,-1.3543,-1.3266,-1.1933,0.0,0.0,0.0,0.0,0.0,0.0,0.0,0.0,0.0,0.0,0.0,0.0,0.0,0.0,0.0,0.0,0.0,0.0,0.0,0.0,0.0,0.0,0.0,0.0,0.0,0.0,0.0,0.0,0.0,0.0,0.0,0.0,0.0,0.0,0.0,0.0,0.0,0.0,0.0,0.0,0.0,0.0,0.0,0.0,0.0,0.0,0.0,0.0,0.0,0.0,0.0,0.0,0.0,0.0,0.0,0.0,0.0,0.0,0.0,0.0,0.0,0.0,0.0,0.0,0.0,0.0,0.0,0.0,0.0,0.0,0.0,0.0,0.0,0.0,0.0,0.0,0.0,0.0,0.0,0.0,0.0,0.0,0.0,0.0,0.0,0.0,0.0,0.0,0.0,0.0,0.0,0.0,0.0,0.0,0.0,0.0,0.0,0.0,0.0,0.0,0.0,0.0,-1.4348,-1.5246,-1.6562,-1.6159,-1.5829,-1.5858,-1.448,-1.3273,-1.2531,-1.1556,0.0,0.0,0.0,0.0,0.0,0.0,0.0,0.0,0.0,0.0,0.0,0.0,0.0,0.0,0.0,0.0,0.0,0.0,0.0,0.0,0.0,0.0,0.0,0.0,0.0,0.0,0.0,0.0,0.0,0.0,0.0,0.0,0.0,0.0,0.0,0.0,0.0,0.0,0.0,0.0,0.0,0.0,0.0,0.0,0.0,0.0,0.0,0.0,0.0,0.0,0.0,0.0,0.0,0.0,0.0,0.0,0.0,0.0,0.0,0.0,0.0,0.0,0.0,0.0,0.0,0.0,0.0,0.0,0.0,0.0,0.0,0.0,0.0,0.0,0.0,0.0,0.0,0.0,0.0,0.0,0.0,0.0,0.0,0.0,0.0,0.0,0.0,0.0,0.0,0.0,0.0,0.0,0.0,0.0,0.0,0.0,0.0,0.0,0.0,0.0,0.0,0.0,-1.4633,-1.5126,-1.6039,-1.5559,-1.517,-1.517,-1.3829,-1.2819,-1.2417,0.0,0.0,0.0,0.0,0.0,0.0,0.0,0.0,0.0,0.0,0.0,0.0,0.0,0.0,0.0,0.0,0.0,0.0,0.0,0.0,0.0,0.0,0.0,0.0,0.0,0.0,0.0,0.0,0.0,0.0,0.0,0.0,0.0,0.0,0.0,0.0,0.0,0.0,0.0,0.0,0.0,0.0,0.0,0.0,0.0,0.0,0.0,0.0,0.0,0.0,0.0,0.0,0.0,0.0,0.0,0.0,0.0,0.0,0.0,0.0,0.0,0.0,0.0,0.0,0.0,0.0,0.0,0.0,0.0,0.0,0.0,0.0,0.0,0.0,0.0,0.0,0.0,0.0,0.0,0.0,0.0,0.0,0.0,0.0,0.0,0.0,0.0,0.0,0.0,0.0,0.0,0.0,0.0,0.0,0.0,0.0,0.0,0.0,0.0,0.0,0.0,0.0,-1.4751,-1.499,-1.529,-1.5754,-1.52,-1.4707,-1.4498,-1.3352,-1.2491,-1.2176,0.0,0.0,0.0,0.0,0.0,0.0,0.0,0.0,0.0,0.0,0.0,0.0,0.0,0.0,0.0,0.0,0.0,0.0,0.0,0.0,0.0,0.0,0.0,0.0,0.0,0.0,0.0,0.0,0.0,0.0,0.0,0.0,0.0,0.0,0.0,0.0,0.0,0.0,0.0,0.0,0.0,0.0,0.0,0.0,0.0,0.0,0.0,0.0,0.0,0.0,0.0,0.0,0.0,0.0,0.0,0.0,0.0,0.0,0.0,0.0,0.0,0.0,0.0,0.0,0.0,0.0,0.0,0.0,0.0,0.0,0.0,0.0,0.0,0.0,0.0,0.0,0.0,0.0,0.0,0.0,0.0,0.0,0.0,0.0,0.0,0.0,0.0,0.0,0.0,0.0,0.0,0.0,0.0,0.0,0.0,0.0,0.0,0.0,0.0,0.0,0.0,0.0,-1.4811,-1.5394,-1.5799,-1.5799,-1.5185,-1.4513,-1.3857,-1.3118,-1.2393,0.0,0.0,0.0,0.0,0.0,0.0,0.0,0.0,0.0,0.0,0.0,0.0,0.0,0.0,0.0,0.0,0.0,0.0,0.0,0.0,0.0,0.0,0.0,0.0,0.0,0.0,0.0,0.0,0.0,0.0,0.0,0.0,0.0,0.0,0.0,0.0,0.0,0.0,0.0,0.0,0.0,0.0,0.0,0.0,0.0,0.0,0.0,0.0,0.0,0.0,0.0,0.0,0.0,0.0,0.0,0.0,0.0,0.0,0.0,0.0,0.0,0.0,0.0,0.0,0.0,0.0,0.0,0.0,0.0,0.0,0.0,0.0,0.0,0.0,0.0,0.0,0.0,0.0,0.0,0.0,0.0,0.0,0.0,0.0,0.0,0.0,0.0,0.0,0.0,0.0,0.0,0.0,0.0,0.0,0.0,0.0,0.0,0.0,0.0,0.0,0.0,0.0,0.0,-1.5514,-1.5679,-1.5799,-1.5799,-1.4781,-1.4006,-1.3812,-1.3118,-1.2574,-1.2244,0.0,0.0,0.0,0.0,0.0,0.0,0.0,0.0,0.0,0.0,0.0,0.0,0.0,0.0,0.0,0.0,0.0,0.0,0.0,0.0,0.0,0.0,0.0,0.0,0.0,0.0,0.0,0.0,0.0,0.0,0.0,0.0,0.0,0.0,0.0,0.0,0.0,0.0,0.0,0.0,0.0,0.0,0.0,0.0,0.0,0.0,0.0,0.0,0.0,0.0,0.0,0.0,0.0,0.0,0.0,0.0,0.0,0.0,0.0,0.0,0.0,0.0,0.0,0.0,0.0,0.0,0.0,0.0,0.0,0.0,0.0,0.0,0.0,0.0,0.0,0.0,0.0,0.0,0.0,0.0,0.0,0.0,0.0,0.0,0.0,0.0,0.0,0.0,0.0,0.0,0.0,0.0,0.0,0.0,0.0,0.0,0.0,0.0,0.0,0.0,0.0,0.0,-1.5799,-1.5799,-1.5799,-1.5799,-1.4841,-1.4199,-1.4199,-1.356,-1.3072,-1.2939,0.0,0.0,0.0,0.0,0.0,0.0,0.0,0.0,0.0,0.0,0.0,0.0,0.0,0.0,0.0,0.0,0.0,0.0,0.0,0.0,0.0,0.0,0.0,0.0,0.0,0.0,0.0,0.0,0.0,0.0,0.0,0.0,0.0,0.0,0.0,0.0,0.0,0.0,0.0,0.0,0.0,0.0,0.0,0.0,0.0,0.0,0.0,0.0,0.0,0.0,0.0,0.0,0.0,0.0,0.0,0.0,0.0,0.0,0.0,0.0,0.0,0.0,0.0,0.0,0.0,0.0,0.0,0.0,0.0,0.0,0.0,0.0,0.0,0.0,0.0,0.0,0.0,0.0,0.0,0.0,0.0,0.0,0.0,0.0,0.0,0.0,0.0,0.0,0.0,0.0,0.0,0.0,0.0,0.0,0.0,0.0,0.0,0.0,0.0,0.0,0.0,0.0,-1.5814,-1.5799,-1.5799,-1.5799,-1.52,-1.4811,-1.4811,-1.4244,-1.3836,-1.3705,0.0,0.0,0.0,0.0,0.0,0.0,0.0,0.0,0.0,0.0,0.0,0.0,0.0,0.0,0.0,0.0,0.0,0.0,0.0,0.0,0.0,0.0,0.0,0.0,0.0,0.0,0.0,0.0,0.0,0.0,0.0,0.0,0.0,0.0,0.0,0.0,0.0,0.0,0.0,0.0,0.0,0.0,0.0,0.0,0.0,0.0,0.0,0.0,0.0,0.0,0.0,0.0,0.0,0.0,0.0,0.0,0.0,0.0,0.0,0.0,-1.5815,-1.5139,0.0,0.0,0.0,0.0,0.0,0.0,0.0,0.0,0.0,0.0,0.0,0.0,0.0,0.0,0.0,0.0,0.0,0.0,0.0,0.0,0.0,0.0,0.0,0.0,0.0,0.0,0.0,0.0,0.0,0.0,0.0,0.0,0.0,0.0,0.0,0.0,0.0,0.0,0.0,0.0,-1.5858,-1.5799,-1.5799,-1.5799,-1.52,-1.4811,-1.4811,-1.4663,-1.4546,-1.4466,-1.4772,0.0,0.0,0.0,0.0,0.0,0.0,0.0,0.0,0.0,0.0,0.0,0.0,0.0,0.0,0.0,0.0,0.0,0.0,0.0,0.0,0.0,0.0,0.0,0.0,0.0,0.0,0.0,0.0,0.0,0.0,0.0,0.0,0.0,0.0,0.0,0.0,0.0,0.0,0.0,0.0,0.0,0.0,0.0,0.0,0.0,0.0,0.0,0.0,0.0,0.0,0.0,0.0,0.0,0.0,0.0,0.0,0.0,0.0,0.0,-1.7889,-1.7029,0.0,0.0,0.0,0.0,0.0,0.0,0.0,0.0,0.0,0.0,0.0,0.0,0.0,0.0,0.0,0.0,0.0,0.0,0.0,0.0,0.0,0.0,0.0,0.0,0.0,0.0,0.0,0.0,0.0,0.0,0.0,0.0,0.0,0.0,0.0,0.0,0.0,0.0,0.0,0.0,-1.6308,-1.6234,-1.6114,-1.5829,-1.5499,-1.5275,-1.5275,-1.5275,-1.5247,-1.5134,-1.5359,0.0,0.0,0.0,0.0,0.0,0.0,0.0,0.0,0.0,0.0,0.0,0.0,0.0,0.0,0.0,0.0,0.0,0.0,0.0,0.0,0.0,0.0,0.0,0.0,0.0,0.0,0.0,0.0,0.0,0.0,0.0,0.0,0.0,0.0,0.0,0.0,0.0,0.0,0.0,0.0,0.0,0.0,0.0,0.0,0.0,0.0,0.0,0.0,0.0,0.0,0.0,0.0,0.0,-2.2526,-2.2672,-2.2817,-2.2817,-2.2744,-2.2568,-2.0955,-1.9957,-1.9407,-1.8799,0.0,0.0,0.0,0.0,0.0,0.0,0.0,0.0,0.0,0.0,0.0,0.0,0.0,0.0,0.0,0.0,0.0,0.0,0.0,0.0,0.0,0.0,-1.8855,-1.9582,-1.9879,-1.9674,-1.8623,0.0,0.0,0.0,0.0,0.0,0.0,0.0,0.0,0.0,0.0,0.0,-1.6965,-1.686,-1.6637,-1.6024,-1.5964,-1.5904,-1.5814,-1.5799,-1.5755,-1.5639,-1.561,-1.5536,0.0,0.0,0.0,0.0,0.0,0.0,0.0,0.0,0.0,0.0,0.0,0.0,0.0,0.0,0.0,0.0,0.0,0.0,0.0,0.0,0.0,0.0,0.0,0.0,0.0,0.0,0.0,0.0,0.0,0.0,0.0,0.0,-1.6981,-1.7115,0.0,0.0,0.0,0.0,0.0,0.0,0.0,0.0,0.0,0.0,0.0,0.0,0.0,-2.3345,-2.3345,-2.4602,-2.5321,-2.5508,-2.5706,-2.5876,-2.6073,-2.6073,-2.6073,-2.6032,-2.5481,0.0,-2.1203,-2.0555,0.0,0.0,0.0,0.0,0.0,0.0,0.0,0.0,0.0,0.0,0.0,0.0,0.0,0.0,0.0,0.0,0.0,0.0,0.0,0.0,0.0,0.0,-2.101,-2.1178,-2.1327,-2.1376,-2.1216,-2.0258,-1.9468,-1.9558,-1.9573,-1.9573,0.0,0.0,0.0,0.0,0.0,0.0,-1.7637,-1.7579,-1.7309,-1.6652,-1.6577,-1.6368,-1.5844,-1.5799,-1.5784,-1.577,-1.5653,-1.558,-1.5566,-1.536,0.0,0.0,0.0,0.0,0.0,0.0,0.0,0.0,0.0,0.0,0.0,0.0,0.0,0.0,0.0,0.0,0.0,0.0,0.0,0.0,0.0,0.0,0.0,0.0,0.0,0.0,0.0,0.0,0.0,-1.7553,-1.7916,-1.8427,-1.8674,-1.8888,0.0,0.0,0.0,0.0,0.0,0.0,0.0,0.0,0.0,-2.5285,-2.6162,-2.6807,-2.7178,-2.8096,-2.8642,-2.8799,-2.8898,-2.8997,-2.9151,-2.9151,-2.9138,-2.904,-2.8927,-2.7835,-2.5978,-2.3585,-2.2613,-2.2516,0.0,0.0,0.0,0.0,-2.0789,-2.065,-2.0603,-2.0509,-2.0412,-2.0109,0.0,0.0,0.0,0.0,0.0,0.0,0.0,-2.0561,-2.0817,-2.1178,-2.148,-2.158,-2.1655,-2.1695,-2.1695,-2.1231,-2.0707,-2.0333,-2.0258,-2.0139,-1.9768,-1.9708,0.0,0.0,0.0,-1.9016,-1.8341,-1.8252,-1.8012,-1.7339,-1.692,-1.6592,-1.6323,-1.5994,-1.5799,-1.5799,-1.5741,-1.5668,-1.5595,-1.592,-1.6052,0.0,0.0,0.0,0.0,0.0,0.0,0.0,0.0,0.0,0.0,0.0,0.0,0.0,0.0,0.0,0.0,0.0,0.0,0.0,0.0,0.0,0.0,0.0,0.0,0.0,0.0,0.0,0.0,-1.8517,-1.9194,-1.9893,-2.0343,-2.0753,0.0,0.0,0.0,0.0,0.0,0.0,-2.5879,-2.6612,-2.7542,-2.8669,-2.9315,-2.987,-3.0382,-3.0982,-3.1364,-3.1514,-3.1514,-3.1589,-3.1708,-3.1708,-3.1664,-3.1559,-3.1529,-3.1175,-3.0338,-2.6816,-2.5274,-2.5018,-2.3906,-2.3454,-2.341,-2.3348,-2.3237,-2.3038,-2.2954,-2.2759,-2.2481,-2.2082,-2.1778,-2.1494,-2.1072,0.0,0.0,0.0,0.0,-2.1875,-2.2197,-2.2417,-2.2533,-2.2467,-2.2443,-2.2398,-2.2218,-2.2188,-2.1934,-2.1126,-2.0808,-2.0539,-2.0034,-1.9813,0.0,-1.9708,-1.9708,-1.9528,-1.9016,-1.8957,-1.8702,-1.8027,-1.7503,-1.7145,-1.6965,-1.6548,-1.6278,-1.6278,-1.6278,-1.6234,-1.6144,-1.662,-1.6857,-1.6809,0.0,0.0,0.0,0.0,0.0,0.0,0.0,0.0,0.0,0.0,0.0,0.0,0.0,0.0,0.0,0.0,0.0,0.0,0.0,0.0,0.0,0.0,0.0,0.0,0.0,0.0,0.0,0.0,0.0,-2.126,-2.2053,0.0,0.0,0.0,0.0,-2.581,-2.7041,-2.8133,-2.8931,-2.961,-3.0275,-3.0925,-3.1574,-3.1943,-3.1973,-3.2592,-3.2979,-3.3179,-3.3179,-3.3256,-3.3395,-3.3395,-3.3364,-3.3364,-3.3225,-3.3164,-3.2895,-2.9826,-2.8197,-2.7557,-2.6913,-2.6677,-2.6651,-2.6521,-2.6469,-2.6402,-2.6097,-2.5607,-2.5109,-2.5083,-2.4422,-2.3565,-2.3096,-2.2556,0.0,0.0,-2.2886,-2.3554,-2.4246,-2.4918,-2.5232,-2.4605,-2.4455,-2.4276,-2.364,-2.3505,-2.3131,-2.1889,-2.1141,-2.0688,-2.0658,0.0,-1.9708,-1.9708,-1.9708,-1.9693,-1.9648,-1.9648,-1.9393,-1.8732,-1.8627,-1.8326,-1.7713,-1.7624,-1.7609,-1.7609,-1.7609,-1.7593,-1.7593,-1.7623,-1.7637,-1.7637,-1.6947,0.0,0.0,0.0,0.0,0.0,0.0,0.0,0.0,0.0,0.0,0.0,0.0,0.0,0.0,0.0,0.0,0.0,0.0,0.0,0.0,0.0,0.0,0.0,0.0,0.0,0.0,0.0,0.0,-2.4611,-2.5593,0.0,-2.7288,-2.7951,-2.8505,-2.8847,-3.0463,-3.156,-3.196,-3.3019,-3.3688,-3.3912,-3.415,-3.4284,-3.4284,-3.4507,-3.4658,-3.4705,-3.4705,-3.4737,-3.4786,-3.4786,-3.4786,-3.4786,-3.4737,-3.4483,-3.4006,-3.2897,-3.1723,-3.0484,-2.9866,-2.9587,-2.9601,-2.9558,-2.921,-2.8732,-2.8621,-2.8116,-2.7368,-2.6625,-2.5908,-2.5233,-2.4728,-2.442,-2.4288,-2.4462,-2.4664,-2.491,-2.5173,-2.5412,-2.5555,-2.5292,-2.4903,-2.453,-2.4291,-2.3909,-2.3475,-2.3011,-2.2413,-2.1844,-2.1425,-2.0797,-2.0348,-2.0348,-1.9974,-1.9708,-1.9708,-1.9708,-1.9618,-1.9361,-1.8957,-1.8612,-1.8356,-1.7953,-1.7713,-1.7713,-1.7713,-1.7713,-1.7713,-1.8117,-1.8326,-1.8326,-1.8085,-1.7949,0.0,0.0,0.0,0.0,0.0,0.0,0.0,0.0,0.0,0.0,0.0,0.0,0.0,0.0,0.0,0.0,0.0,0.0,0.0,0.0,0.0,0.0,0.0,0.0,0.0,-2.4098,-2.5868,-2.7977,-2.8958,-2.9875,-3.0891,-3.1396,-3.1768,-3.2109,-3.3511,-3.4439,-3.4502,-3.5549,-3.6148,-3.6148,-3.5938,-3.5833,-3.5833,-3.5609,-3.5504,-3.5504,-3.5504,-3.5504,-3.5504,-3.5504,-3.5504,-3.5504,-3.5504,-3.525,-3.4848,-3.4848,-3.4228,-3.3162,-3.2257,-3.1901,-3.1901,-3.1901,-3.1575,-3.1043,-3.0542,-2.9882,-2.9063,-2.8115,-2.7451,-2.6901,-2.6321,-2.5988,-2.5834,-2.5905,-2.5944,-2.5989,-2.6213,-2.6273,-2.6213,-2.5989,-2.5615,-2.5202,-2.4993,-2.4395,-2.3939,-2.3939,-2.3266,-2.2568,-2.2119,-2.1485,-2.0957,-2.0733,-2.0318,-1.9944,-1.9738,-1.9708,-1.9708,-1.9708,-1.9286,-1.9031,-1.9031,-1.8627,-1.8371,-1.8371,-1.8371,-1.8371,-1.8371,-1.8807,-1.9031,-1.9031,-1.8822,-1.8597,-1.8356,0.0,0.0,0.0,0.0,0.0,0.0,0.0,0.0,0.0,0.0,0.0,0.0,0.0,0.0,0.0,0.0,0.0,0.0,0.0,0.0,0.0,0.0,0.0,-2.5313,-2.7262,-2.9361,-3.1102,-3.1975,-3.3019,-3.4442,-3.4593,-3.4846,-3.5519,-3.6178,-3.6552,-3.6552,-3.7135,-3.7464,-3.7434,-3.6836,-3.6507,-3.6492,-3.5833,-3.5504,-3.5504,-3.5504,-3.5504,-3.5504,-3.5504,-3.5504,-3.5504,-3.5504,-3.5504,-3.5504,-3.5504,-3.5504,-3.537,-3.4068,-3.3559,-3.3559,-3.3559,-3.3529,-3.3274,-3.1856,-3.0891,-3.0238,-2.964,-2.9095,-2.8532,-2.7839,-2.718,-2.6647,-2.6632,-2.6641,-2.6791,-2.7435,-2.76,-2.7435,-2.6806,-2.6626,-2.6422,-2.5779,-2.5098,-2.4634,-2.4634,-2.3625,-2.2748,-2.2733,-2.2179,-2.1515,-2.0853,-2.0733,0.0,-1.9828,-1.9738,-1.9723,-1.9708,-1.9708,-1.9708,-1.9708,-1.9708,-1.9708,-1.9708,-1.9708,-1.9708,-1.9708,-1.9708,-1.9708,-1.9708,-1.9061,-1.8401,-1.7773,0.0,0.0,0.0,0.0,0.0,0.0,0.0,0.0,0.0,0.0,0.0,0.0,0.0,0.0,0.0,0.0,0.0,0.0,0.0,0.0,0.0,-2.6806,-2.8611,-2.8368,-2.9988,-3.1943,-3.3936,-3.4867,-3.5681,-3.6522,-3.6596,-3.6686,-3.6866,-3.7494,-3.7868,-3.7868,-3.8497,-3.8631,-3.8138,-3.7494,-3.6941,-3.6492,-3.5833,-3.5504,-3.5504,-3.5504,-3.5504,-3.5504,-3.5504,-3.5504,-3.5504,-3.5504,-3.5504,-3.5504,-3.5504,-3.5504,-3.5474,-3.51,-3.4951,-3.4951,-3.4951,-3.4337,-3.338,-3.2467,-3.1721,-3.1065,-3.0406,-3.0105,-2.9774,-2.8652,-2.8188,-2.7949,-2.7465,-2.733,-2.736,-2.754,-2.76,-2.754,-2.7375,-2.6956,-2.6542,-2.6363,-2.5809,-2.5322,-2.5322,-2.4634,-2.3924,-2.343,-2.2853,-2.2358,-2.2179,-2.1739,-2.1186,-2.0513,-2.0438,-2.0243,-1.9753,-1.9708,-1.9708,-1.9708,-1.9708,-1.9708,-1.9708,-1.9708,-1.9708,-1.9708,-1.9708,-1.9708,-1.9708,-1.9528,-1.9331,0.0,0.0,0.0,0.0,0.0,0.0,0.0,0.0,0.0,0.0,0.0,0.0,0.0,0.0,0.0,0.0,0.0,0.0,0.0,0.0,0.0,0.0,-2.986,-3.2246,-3.305,-3.3819,-3.4961,-3.6805,-3.7684,-3.8377,-3.9005,-3.8826,-3.8661,-3.8661,-3.8766,-3.8826,-3.8826,-3.92,-3.923,-3.8841,-3.8167,-3.7524,-3.6881,-3.6237,-3.5774,-3.5504,-3.5504,-3.5504,-3.5504,-3.5504,-3.5504,-3.5504,-3.5504,-3.5504,-3.5504,-3.5504,-3.5504,-3.5504,0.0,0.0,0.0,0.0,-3.4651,-3.344,-3.3051,-3.2288,-3.1436,-3.1032,-3.0746,-3.0357,-2.9624,-2.922,-2.8921,-2.8558,-2.8438,-2.8438,-2.8438,-2.8438,-2.8438,-2.8438,-2.7944,-2.744,-2.744,-2.6692,-2.6019,-2.6019,-2.5495,0.0,-2.4507,-2.367,-2.3002,-2.2733,-2.2373,-2.1874,-2.1216,-2.0868,-2.0539,-2.0154,-1.9872,-1.9708,-1.9708,-1.9708,0.0,0.0,0.0,-1.9708,-1.9708,-1.9708,0.0,0.0,0.0,-1.9708,-1.9708,-1.9708,0.0,0.0,-1.9121,-1.9333,0.0,0.0,0.0,0.0,0.0,0.0,0.0,0.0,0.0,0.0,0.0,0.0,0.0,0.0,0.0,0.0,-3.2941,-3.5766,-3.8094,-3.8061,-3.8231,-3.9478,-4.0157,-4.0741,-4.1324,-4.0846,-4.0487,-4.0412,-3.9858,-3.9499,-3.9388,-3.9388,0.0,0.0,0.0,-3.8108,-3.7524,-3.6911,-3.6267,-3.5609,-3.5609,-3.5579,-3.5504,-3.5504,-3.5504,-3.5504,-3.5504,-3.5504,-3.5504,-3.5504,-3.5504,-3.5504,-3.5504,-3.5504,-3.5504,-3.5504,-3.4651,-3.3499,-3.3499,0.0,0.0,-3.1511,-3.1092,-3.0612,-3.0522,-3.0118,-2.9696,-2.9636,-2.9606,-2.9606,-2.9606,-2.9606,-2.9606,-2.9606,-2.9146,-2.8712,-2.8712,-2.7769,-2.6926,-2.6826,-2.6273,-2.5809,-2.5734,-2.4657,-2.364,-2.3107,-2.2957,-2.2673,-2.1994,-2.1335,-2.0872,-2.0718,-2.0168,0.0,-1.9708,-1.9708,-1.9708,-1.9708,-1.9708,-1.9708,-1.9708,-1.9708,-1.9708,-1.9708,-1.9708,-1.9708,-1.9708,-1.9708,-1.9708,-1.9708,-1.9708,-1.9708,0.0,0.0,0.0,0.0,0.0,0.0,0.0,0.0,0.0,0.0,0.0,0.0,0.0,0.0,0.0,-3.3249,-3.5571,-3.7643,-3.9469,-4.0703,-4.1309,-4.1025,-4.1115,-4.125,-4.1407,-4.1265,-4.0965,-4.0442,-4.0277,-3.9978,-3.9454,-3.9388,-3.9388,-3.9388,-3.8751,-3.8332,-3.8197,-3.7554,-3.6926,-3.6297,-3.6297,0.0,-3.5504,-3.5504,-3.5504,-3.5504,-3.5504,-3.5504,-3.5504,-3.5504,-3.5504,-3.5504,-3.5504,-3.5504,-3.5504,-3.5504,-3.4651,-3.3499,-3.3499,-3.2632,-3.1511,-3.1511,-3.1406,-3.1212,-3.0672,-3.0417,0.0,-2.9756,-2.9606,-2.9606,-2.9606,-2.9606,-2.9606,-2.9606,-2.9517,-2.9427,-2.9427,-2.9217,-2.8846,-2.8323,-2.7675,-2.7046,-2.6497,-2.5734,-2.5181,-2.5061,-2.4575,-2.3977,-2.3325,-2.2682,-2.1889,-2.0808,-2.0583,-2.0288,-1.9753,-1.9708,-1.9708,-1.9708,-1.9708,-1.9708,-1.9708,-1.9708,-1.9708,-1.9708,-1.9708,-1.9708,-1.9708,-1.9708,-1.9708,-1.9708,-1.9708,-1.9708,0.0,0.0,0.0,0.0,0.0,0.0,0.0,0.0,0.0,0.0,0.0,-2.6403,-2.8665,0.0,-3.3168,-3.5662,-3.793,-3.9809,-4.1068,-4.2183,-4.2596,-4.1991,-4.2162,-4.2357,-4.2357,-4.2073,-4.1632,-4.0935,-4.0591,-4.0113,-3.9454,-3.9388,-3.9388,-3.9388,-3.9095,-3.8736,-3.8392,-3.8063,-3.7584,-3.6941,-3.6626,-3.6312,-3.5983,-3.5654,-3.5504,-3.5504,-3.5504,-3.5504,-3.5504,-3.5504,-3.5504,-3.5504,-3.5504,-3.5504,-3.5504,-3.5504,-3.4651,-3.3499,-3.3499,-3.2632,-3.1511,-3.1511,-3.1511,-3.1436,-3.1092,-3.0987,-3.0956,-3.0657,-3.0552,-3.0552,-3.0552,-3.0552,-3.0552,-3.0552,-3.0298,-3.0043,-3.0043,-2.9804,-2.9517,-2.916,-2.8843,-2.8498,-2.8169,-2.7814,-2.7156,-2.5809,-2.5307,-2.4859,-2.4208,-2.3535,-2.2793,-2.1799,-2.1111,-2.0554,-2.0228,-1.9902,-1.9708,-1.9708,-1.9708,-1.9839,-2.0183,-2.0198,-2.0363,-2.0677,-2.0711,-2.0711,-2.0711,-2.0711,-2.0711,-2.0711,-2.0711,-2.0333,0.0,0.0,0.0,0.0,0.0,0.0,0.0,-2.4752,-2.5327,-2.7041,-2.8178,-2.9531,-3.1639,-3.3926,-3.6129,-3.7944,-3.9955,-4.1596,-4.2462,-4.3,-4.309,-4.247,-4.294,-4.3245,-4.3125,-4.2671,-4.2066,-4.1287,-4.0696,-4.0172,-3.9634,-3.9448,-3.9448,-3.9604,-3.9484,-3.9155,-3.8601,-3.8586,-3.8257,-3.7599,-3.709,-3.6731,-3.6477,-3.5938,-3.5624,-3.5504,-3.5504,-3.5504,-3.5504,-3.5504,-3.5504,-3.5504,-3.5504,-3.5504,-3.5504,-3.5504,-3.4726,-3.3664,-3.3544,-3.2721,-3.1675,-3.154,-3.1511,-3.1511,-3.1511,-3.1511,-3.1511,-3.1511,-3.1511,-3.1511,-3.1511,-3.1511,-3.1511,-3.1511,-3.1077,-3.0702,-3.0702,-3.0313,-2.9924,-2.9789,-2.9759,-2.9756,-2.9636,-2.9606,-2.8801,-2.6527,-2.6078,-2.5749,-2.5068,-2.4298,-2.355,-2.2942,-2.1799,-2.0972,-2.0718,-2.0318,-2.0019,-1.9884,-2.0022,-2.0333,-2.0868,-2.0882,-2.1156,-2.168,-2.1695,-2.1695,-2.1695,-2.1695,-2.1695,-2.1695,-2.1695,-2.1111,-2.0314,-2.0817,-2.1619,-2.3301,-2.4092,-2.4883,0.0,-2.7422,-2.8216,-2.9342,-3.1461,-3.3563,-3.5099,-3.7035,-3.9054,-4.1003,-4.169,-4.2257,-4.3095,-4.3245,-4.309,-4.247,-4.294,-4.3105,-4.256,-4.244,-4.1886,-4.0606,-4.0442,-4.0367,-4.0292,-3.9738,-3.9694,-4.0277,-3.9723,-3.9343,-3.9305,-3.9305,-3.896,-3.8287,-3.8212,-3.7584,-3.6492,-3.6417,-3.6058,-3.5504,-3.5504,-3.5504,-3.5504,-3.5504,-3.5504,-3.5504,-3.5504,-3.5504,-3.5504,-3.5504,-3.5026,-3.4309,-3.3709,-3.3021,-3.2273,-3.169,-3.1511,-3.1511,-3.1511,-3.1511,-3.1511,-3.1511,-3.1511,-3.1511,-3.1511,-3.1511,-3.1511,-3.1511,-3.1451,-3.1391,-3.1391,-3.1331,-3.1107,-3.0507,-3.0402,-3.0223,-2.9696,-2.9606,-2.9307,-2.8397,-2.7764,-2.7136,-2.6452,-2.5262,-2.4231,-2.3565,-2.2897,-2.1979,-2.0793,-2.1186,-2.1216,-2.0613,-2.1156,-2.15,-2.159,-2.159,-2.162,-2.1695,-2.1695,-2.1695,-2.1695,-2.1695,-2.1695,-2.1695,-2.1695,-2.162,-2.1945,-2.2523,-2.3427,-2.541,-2.6327,-2.7203,-2.8987,-3.0012,-3.0958,-3.2437,-3.4285,-3.6108,-3.7566,-3.9208,-4.0714,-4.1814,-4.2451,-4.2912,-4.326,-4.3015,-4.2671,-4.2425,-4.2267,-4.2087,-4.1856,-4.1826,-4.1399,-4.0472,-4.0756,-4.0801,-4.0427,-4.0502,-4.0502,-4.0397,-4.0127,-3.9798,-3.9388,-3.9388,-3.9275,-3.899,-3.8586,-3.7913,-3.7,-3.6656,-3.6133,-3.5504,-3.5504,-3.5504,-3.5504,-3.5504,-3.5504,-3.5504,-3.5504,-3.5504,-3.5504,-3.5504,-3.507,-3.4474,-3.4189,-3.3634,-3.3036,-3.2766,-3.2677,-3.2677,-3.2677,-3.2677,-3.2677,-3.2677,-3.2677,-3.2677,-3.2677,-3.2677,-3.2677,-3.2677,-3.2677,-3.2677,-3.2677,-3.2677,-3.2587,-3.2302,-3.2243,-3.2168,-3.1898,-3.1539,-3.1061,-3.0374,-2.9415,-2.8378,-2.733,-2.6701,-2.5644,-2.3789,-2.337,-2.2697,-2.1395,-2.1545,-2.1575,-2.1306,-2.1545,-2.1874,-2.2269,-2.2283,-2.2463,-2.2802,-2.2802,-2.2802,-2.2802,-2.2802,-2.2802,-2.2802,-2.2802,-2.2802,-2.3233,-2.4117,-2.536,-2.7268,-2.8459,-2.9555,-3.1322,-3.2423,-3.3504,-3.4989,-3.6484,-3.7891,-3.8993,-4.0325,-4.1371,-4.1831,-4.2563,-4.306,-4.306,-4.2671,-4.2336,-4.2156,-4.1504,-4.104,-4.0861,-4.101,-4.0846,-4.0172,-4.0741,-4.098,-4.0681,-4.113,-4.125,-4.095,-4.0591,-4.0172,-3.9694,-3.9514,-3.9388,-3.9373,-3.8916,-3.8317,-3.7659,-3.6851,-3.6133,-3.5504,-3.5504,-3.5504,-3.5504,-3.5504,-3.5504,-3.5504,-3.5504,-3.5504,-3.5504,-3.5504,-3.519,-3.4758,-3.4578,-3.4158,-3.3739,-3.3559,-3.3499,-3.3499,-3.3499,-3.3499,-3.3499,-3.3499,-3.3499,-3.3499,-3.3499,-3.3499,-3.3499,-3.3499,-3.3499,-3.3499,-3.3499,-3.3499,-3.3499,-3.3499,-3.3499,-3.3499,-3.3499,-3.3095,-3.2617,-3.2108,-3.1106,-2.9876,-2.8349,-2.7824,-2.6716,-2.4403,-2.4148,-2.3625,-2.2323,-2.2398,-2.2353,-2.1994,-2.2128,-2.2443,-2.2927,-2.2957,-2.3152,-2.3595,-2.3595,-2.3595,-2.3595,-2.3595,-2.3595,-2.3595,-2.3595,-2.3595,-2.3966,-2.5548,-2.7457,-2.8549,-3.0262,-3.2049,-3.3421,-3.4679,-3.5759,-3.6399,-3.7772,-3.8934,-3.9175,-4.0075,-4.0941,-4.1376,-4.2006,-4.2425,-4.2425,-4.241,-4.2171,-4.1527,-4.0831,-4.0172,-3.9508,-4.0053,-4.0157,-3.9499,-4.0053,-4.0696,-4.1324,-4.1407,-4.1707,-4.2321,-4.107,-4.0382,-4.0367,-3.9738,-3.9388,-3.9388,-3.9394,-3.9035,-3.8317,-3.706,-3.6133,-3.5504,-3.5504,-3.5504,-3.5504,-3.5504,-3.5504,-3.5504,-3.5504,-3.5504,-3.5504,-3.5504,-3.5489,-3.5385,-3.4743,-3.4503,-3.4369,-3.3709,-3.3499,-3.3499,-3.3499,-3.3499,-3.3499,-3.3499,-3.3499,-3.3499,-3.3499,-3.3499,-3.3499,-3.3499,-3.3499,-3.3499,-3.3499,-3.3499,-3.3499,-3.3499,-3.3499,-3.3499,-3.3499,-3.3484,-3.3455,-3.344,-3.2856,-3.1719,-2.9801,-2.8408,-2.7076,-2.5689,-2.5555,-2.5001,-2.3655,-2.4141,-2.3977,-2.2748,-2.3227,-2.355,-2.3565,-2.3565,-2.358,-2.3595,-2.3595,-2.3595,-2.3595,-2.3595,-2.3595,-2.3595,-2.3595,-2.3595,-2.603,-2.7503,-2.9124,-3.1107,-3.236,-3.3511,-3.5029,-3.592,-3.6652,-3.7509,-3.8085,-3.8598,-3.9102,-3.9343,-3.9705,-4.0412,-4.083,-4.1369,-4.2276,-4.1647,-4.113,-4.1354,-4.0412,-3.9664,-3.9403,-3.9619,-3.9649,-3.9439,-4.0427,-4.1145,-4.1407,-4.2207,-4.2581,-4.241,-4.1976,-4.128,-4.0412,-4.0187,-3.9843,-3.9373,-3.896,-3.8392,-3.7704,-3.6866,-3.6133,-3.5504,-3.5504,-3.5504,-3.5504,-3.5504,-3.5504,-3.5504,-3.5504,-3.5504,-3.5504,-3.5504,-3.5504,-3.5474,-3.5235,-3.516,-3.513,-3.4906,-3.4831,-3.4831,-3.4831,-3.4831,-3.4831,-3.4831,-3.4831,-3.4831,-3.4831,-3.472,-3.4624,-3.4624,-3.4513,-3.4448,-3.4448,-3.4545,-3.4624,-3.4624,-3.4735,-3.4831,-3.4831,-3.4457,-3.3993,-3.3559,-3.2557,-3.1436,-3.0342,-2.9056,-2.7919,-2.7031,-2.6512,-2.5899,-2.5001,-2.5113,-2.5068,-2.4642,-2.4403,-2.4261,-2.4261,-2.3849,-2.3595,-2.3595,-2.3595,-2.3595,-2.3595,-2.3595,-2.3595,-2.3595,-2.3595,-2.3595,-2.8089,-2.9603,-3.1123,-3.3088,-3.4212,-3.5106,-3.6062,-3.6645,-3.7124,-3.7538,-3.7473,-3.7405,-3.7794,-3.7806,-3.8043,-3.8926,-3.9614,-4.0502,-4.1856,-4.128,-4.0995,-4.1692,-4.0786,-4.0113,-4.0113,-4.0113,-4.0023,-3.9783,-4.0771,-4.1512,-4.1752,-4.2746,-4.3135,-4.2716,-4.2515,-4.1991,-4.1115,-4.0636,-4.0068,-3.9373,-3.8975,-3.8407,-3.7749,-3.7105,-3.6462,-3.5848,-3.5609,-3.5504,-3.5504,-3.5504,-3.5504,-3.5504,-3.5439,-3.5392,-3.5359,-3.5326,-3.5294,-3.5326,-3.5439,-3.5504,-3.5504,-3.5439,-3.5392,-3.5359,-3.5326,-3.5294,-3.5294,-3.5294,-3.5294,-3.5294,-3.5294,-3.518,-3.5082,-3.5016,-3.4916,-3.4817,-3.4735,-3.4883,-3.5016,-3.5016,-3.5148,-3.5294,-3.5294,-3.4922,-3.4416,-3.3792,-3.2943,-3.202,-3.0987,-2.9939,-2.9026,-2.8378,-2.7944,-2.729,-2.6393,-2.6303,-2.6108,-2.563,-2.5187,-2.4963,-2.4963,-2.4552,-2.4313,-2.4313,-2.4088,-2.3969,-2.3969,-2.3729,-2.3595,-2.3595,-2.3595,-2.3595,-3.0035,-3.1766,-3.3348,-3.4452,-3.5721,-3.6649,-3.6529,-3.6922,-3.7109,-3.6621,-3.5944,-3.5418,-3.5302,-3.5473,-3.5971,-3.6902,-3.8281,-3.9717,-4.113,-4.1324,-4.1632,-4.2321,-4.1826,-4.1422,-4.1422,-4.1422,-4.113,-4.0546,-4.107,-4.1737,-4.2366,-4.297,-4.329,-4.329,-4.2731,-4.2425,-4.2396,-4.1055,-4.0083,-3.9433,-3.9439,-3.905,-3.8362,-3.7749,-3.712,-3.6492,-3.5863,-3.5609,-3.5609,-3.5609,-3.5609,-3.5561,-3.535,-3.5284,-3.5251,-3.5071,-3.4971,-3.5023,-3.5383,-3.5499,-3.5439,-3.5261,-3.518,-3.5148,-3.4935,-3.4902,-3.4868,-3.4868,-3.4868,-3.4868,-3.4868,-3.4868,-3.4835,-3.4698,-3.4664,-3.4597,-3.438,-3.4481,-3.4631,-3.4631,-3.475,-3.4868,-3.4868,-3.4868,-3.4695,-3.4109,-3.3991,-3.3378,-3.1751,-3.0957,-3.0285,-2.9699,-2.9594,-2.9071,-2.7809,-2.766,-2.7121,-2.5839,-2.5689,-2.5659,-2.5659,-2.563,-2.5615,-2.5615,-2.4978,-2.4634,-2.4605,-2.3947,-2.3625,-2.3595,-2.3595,-2.3595,-3.1763,-3.3242,-3.4572,-3.6002,-3.6317,-3.6349,-3.6641,-3.593,-3.5209,-3.5124,-3.3665,-3.2613,-3.3271,-3.2941,-3.3168,-3.5022,-3.6285,-3.7878,-4.0322,-4.0651,-4.107,-4.2261,-4.1826,-4.1422,-4.1422,-4.1422,-4.1557,-4.1871,-4.2051,-4.2231,-4.2396,-4.297,-4.329,-4.329,-4.3125,-4.2851,-4.2396,-4.1055,-4.0307,-4.0142,-3.9649,-3.905,-3.8377,-3.8212,-3.7778,-3.7165,-3.7,-3.6926,-3.6926,-3.6926,-3.6824,-3.6703,-3.6635,-3.6433,-3.6142,-3.6107,-3.5988,-3.5884,-3.6003,-3.5595,-3.5034,-3.5001,-3.4916,-3.4831,-3.4765,-3.465,-3.4549,-3.4549,-3.4549,-3.4549,-3.4549,-3.4399,-3.4264,-3.4079,-3.3971,-3.3848,-3.3632,-3.3707,-3.3811,-3.3874,-3.4099,-3.437,-3.4501,-3.4549,-3.4491,-3.433,-3.3864,-3.3162,-3.2002,-3.1294,-3.0629,-3.0051,-2.9616,-2.924,-2.8884,-2.8543,-2.8188,-2.7859,-2.6901,-2.6348,-2.6348,-2.5869,-2.5615,-2.5615,-2.5427,-2.5098,-2.4605,-2.4425,-2.4081,-2.3595,-2.3595,-2.3595,-3.3222,-3.4525,-3.557,-3.6483,-3.6345,-3.5852,-3.5479,-3.4273,-3.31,-3.2732,-3.1158,-3.0012,-3.0638,-3.0725,-3.1377,-3.3362,-3.5045,-3.6961,-3.9488,-4.042,-4.1205,-4.2276,-4.2551,-4.2671,-4.2671,-4.2925,-4.3254,-4.3653,-4.289,-4.253,-4.2776,-4.3135,-4.329,-4.329,-4.329,-4.3015,-4.241,-4.1339,-4.0681,-4.0382,-3.9738,-3.9215,-3.8841,-3.8527,-3.8182,-3.7823,-3.7539,-3.7351,-3.7282,-3.7282,-3.7109,-3.6816,-3.669,-3.6443,-3.6108,-3.5841,-3.5646,-3.5522,-3.5449,-3.5103,-3.4702,-3.4824,-3.4617,-3.4264,-3.4128,-3.4025,-3.3908,-3.3908,-3.3908,-3.3908,-3.3805,-3.3701,-3.3563,-3.3234,-3.3143,-3.3016,-3.281,-3.2903,-3.3066,-3.3199,-3.343,-3.3638,-3.377,-3.3805,-3.3805,-3.3805,-3.3388,-3.2725,-3.1728,-3.1397,-3.0982,-3.0382,-3.0045,-2.9793,-2.9554,-2.9284,-2.8922,-2.8396,-2.7669,-2.7109,-2.6777,-2.6406,-2.6214,-2.6214,-2.5932,-2.5468,-2.4862,-2.4579,-2.4089,-2.3458,-2.3458,-2.3501,-3.4331,-3.5488,-3.6352,-3.6288,-3.5981,-3.5253,-3.3792,-3.2316,-3.097,-2.996,-2.856,-2.7601,-2.7806,-2.8638,-2.9886,-3.1752,-3.4007,-3.63,-3.8519,-4.0204,-4.1519,-4.2306,-4.3509,-4.4317,-4.4317,-4.4915,-4.5289,-4.5289,-4.3758,-4.2955,-4.3394,-4.3349,-4.329,-4.329,-4.329,-4.306,-4.253,-4.1871,-4.119,-4.0516,-3.9858,-3.9514,-3.9394,-3.8796,-3.8527,-3.8497,-3.7893,-3.755,-3.7341,-3.7307,-3.7046,-3.664,-3.6331,-3.6019,-3.5688,-3.5049,-3.4823,-3.4748,-3.4544,-3.4426,-3.4386,-3.4588,-3.4221,-3.3662,-3.3297,-3.3164,-3.3129,-3.3129,-3.3129,-3.3094,-3.2881,-3.2846,-3.2739,-3.2345,-3.2237,-3.22,-3.1982,-3.2092,-3.2273,-3.2475,-3.2654,-3.2761,-3.2797,-3.2797,-3.2797,-3.2797,-3.2654,-3.217,-3.1149,-3.1272,-3.1211,-3.0534,-3.0477,-3.0306,-2.9842,-2.9755,-2.9315,-2.8314,-2.8094,-2.773,-2.7097,-2.6954,-2.691,-2.691,-2.6342,-2.5789,-2.5252,-2.4582,-2.3958,-2.3371,-2.3282,-2.3319,-3.4781,-3.5791,-3.6561,-3.6345,-3.5551,-3.4431,-3.2924,-3.0979,-2.9043,-2.7677,-2.6118,-2.5221,-2.5851,-2.6048,-2.6996,-2.9704,-3.1792,-3.4047,-3.6956,-3.9075,-4.0845,-4.2207,-4.3509,-4.4317,-4.4317,-4.4915,-4.5289,-4.5289,-4.4975,-4.4601,-4.4167,-4.3589,-4.329,-4.329,-4.329,-4.3245,-4.3125,-4.2521,-4.1901,-4.1205,-4.0546,-3.9948,-3.9388,-3.929,-3.9245,-3.9194,-3.893,-3.8799,-3.8727,-3.8399,-3.8017,-3.763,-3.723,-3.6718,-3.6147,-3.5675,-3.541,-3.5237,-3.4969,-3.4567,-3.4109,-3.3886,-3.3605,-3.328,-3.2712,-3.2453,-3.2309,-3.2309,-3.2309,-3.2273,-3.2055,-3.2019,-3.1909,-3.1492,-3.1418,-3.1381,-3.1235,-3.1235,-3.131,-3.1418,-3.1479,-3.1553,-3.1736,-3.1773,-3.1773,-3.1773,-3.1736,-3.1445,-3.0784,-3.0972,-3.0811,-2.9871,-2.9853,-2.9889,-2.9805,-2.9546,-2.929,-2.9103,-2.8106,-2.7458,-2.733,-2.6745,-2.6404,-2.6404,-2.6436,-2.6087,-2.5452,-2.494,-2.4374,-2.3705,-2.3204,-2.2979,-3.471,-3.5453,-3.5978,-3.5573,-3.4285,-3.2663,-3.1072,-2.8826,-2.6723,-2.5441,-2.4103,-2.3289,-2.3806,-2.4395,-2.5619,-2.7994,-3.0428,-3.2809,-3.521,-3.7716,-3.9749,-4.0916,-4.2476,-4.3738,-4.438,-4.5075,-4.5609,-4.5966,-4.5769,-4.5269,-4.4362,-4.3648,-4.329,-4.329,-4.329,-4.329,-4.329,-4.2686,-4.2246,-4.1916,-4.122,-4.0741,-4.0442,-4.033,-4.0256,-4.0271,-3.9927,-3.9662,-3.9434,-3.9088,-3.8607,-3.7918,-3.7344,-3.6685,-3.5994,-3.5275,-3.4881,-3.4688,-3.4426,-3.4147,-3.3783,-3.3066,-3.2751,-3.2541,-3.1877,-3.1593,-3.1519,-3.1519,-3.1519,-3.1482,-3.1272,-3.1235,-3.1161,-3.0835,-3.0797,-3.0759,-3.071,-3.0672,-3.071,-3.0759,-3.0885,-3.096,-3.1073,-3.1073,-3.1073,-3.1073,-3.0985,-3.0738,-3.0273,-3.0326,-3.0152,-2.9405,-2.9495,-2.9517,-2.9306,-2.9111,-2.8926,-2.8693,-2.8087,-2.7453,-2.675,-2.6386,-2.6064,-2.5729,-2.5783,-2.557,-2.5083,-2.4549,-2.3999,-2.3421,-2.2817,-2.2749,-3.4223,-3.4818,-3.5157,-3.4537,-3.3008,-3.1187,-2.9365,-2.7002,-2.4854,-2.3633,-2.2524,-2.1825,-2.2043,-2.3085,-2.452,-2.6315,-2.8921,-3.1387,-3.3307,-3.6114,-3.8368,-3.9492,-4.1351,-4.3081,-4.4317,-4.508,-4.5727,-4.6358,-4.5916,-4.5253,-4.4336,-4.3648,-4.329,-4.329,-4.329,-4.329,-4.329,-4.2821,-4.2545,-4.2396,-4.1795,-4.1481,-4.1308,-4.108,-4.0926,-4.0926,-4.0393,-4.0,-3.9602,-3.928,-3.8655,-3.7812,-3.7083,-3.6339,-3.5603,-3.4708,-3.4179,-3.3907,-3.3641,-3.3556,-3.3377,-3.2309,-3.2003,-3.1965,-3.112,-3.0874,-3.0874,-3.0874,-3.0874,-3.0836,-3.0609,-3.0584,-3.0495,-3.0343,-3.0254,-3.0254,-3.0254,-3.0254,-3.0254,-3.0254,-3.0381,-3.0508,-3.0508,-3.0508,-3.0508,-3.0508,-3.0381,-3.0177,-2.9841,-2.9851,-2.9671,-2.9178,-2.926,-2.9187,-2.8725,-2.8736,-2.8542,-2.807,-2.7906,-2.7366,-2.6307,-2.5993,-2.5627,-2.5138,-2.5059,-2.4872,-2.4627,-2.4073,-2.3612,-2.3231,-2.2655,-2.27,-3.3068,-3.3997,-3.455,-3.3483,-3.2344,-3.0861,-2.8712,-2.6474,-2.4387,-2.2753,-2.167,-2.1007,-2.1022,-2.1776,-2.2897,-2.441,-2.6489,-2.873,-3.1217,-3.4058,-3.665,-3.8736,-4.0858,-4.2626,-4.3862,-4.456,-4.5243,-4.5838,-4.4982,-4.4413,-4.4306,-4.3648,-4.329,-4.329,-4.329,-4.329,-4.329,-4.323,-4.294,-4.2396,-4.2088,-4.1668,-4.1095,-4.068,-4.0471,-4.0432,-3.9747,-3.9361,-3.9104,-3.8476,-3.7811,-3.7147,-3.6638,-3.5834,-3.4917,-3.4433,-3.3916,-3.3441,-3.324,-3.3154,-3.2965,-3.1845,-3.1739,-3.1883,-3.0778,-3.0444,-3.0444,-3.0444,-3.0444,-3.0406,-3.019,-3.0152,-3.0113,-2.9895,-2.9869,-2.9869,-2.9869,-2.9869,-2.9869,-2.9869,-2.9869,-2.9869,-2.9869,-2.9869,-2.9869,-2.9869,-2.9869,-2.9844,-2.9793,-2.9973,-2.9834,-2.9259,-2.9207,-2.8992,-2.8381,-2.8499,-2.8384,-2.7868,-2.7305,-2.6974,-2.6823,-2.5669,-2.4987,-2.4934,-2.4569,-2.4381,-2.4328,-2.3982,-2.3784,-2.3716,-2.3243,-2.3051,-3.1825,-3.2616,-3.3106,-3.2667,-3.0972,-2.9101,-2.7883,-2.5385,-2.3025,-2.202,-2.0983,-2.0267,-2.0345,-2.1202,-2.2292,-2.342,-2.5576,-2.7782,-2.981,-3.2082,-3.4367,-3.6595,-3.8249,-3.9842,-4.148,-4.2481,-4.3404,-4.4271,-4.3931,-4.3602,-4.3524,-4.3271,-4.3155,-4.329,-4.317,-4.3115,-4.3115,-4.301,-4.2797,-4.2584,-4.2345,-4.2052,-4.1628,-4.1198,-4.0816,-4.0512,-3.9971,-3.9463,-3.8935,-3.8572,-3.7958,-3.7224,-3.6384,-3.5629,-3.4932,-3.4025,-3.3515,-3.3197,-3.3111,-3.3124,-3.2893,-3.1763,-3.1521,-3.1481,-3.0379,-3.0049,-3.0049,-3.0049,-3.0049,-3.0011,-2.9934,-2.9934,-2.9895,-2.983,-2.9792,-2.9792,-2.9792,-2.9792,-2.9792,-2.9792,-2.9792,-2.9792,-2.9792,-2.9792,-2.9792,-2.9792,-2.9792,-2.9792,-2.9792,-2.9869,-2.9807,-2.958,-2.9448,-2.9127,-2.8511,-2.8256,-2.8028,-2.7794,-2.7276,-2.681,-2.6447,-2.5897,-2.5298,-2.4614,-2.4443,-2.4248,-2.407,-2.3555,-2.3351,-2.3421,-2.2868,-2.2802,-3.0131,-3.0947,-3.1449,-3.1286,-2.9541,-2.7632,-2.6753,-2.4356,-2.2108,-2.1421,-2.0476,-1.9837,-1.9926,-2.0862,-2.1886,-2.2562,-2.4728,-2.6869,-2.8479,-3.039,-3.2452,-3.4765,-3.6141,-3.7633,-3.9497,-4.0909,-4.1998,-4.2647,-4.2739,-4.2634,-4.2294,-4.2376,-4.2578,-4.3025,-4.289,-4.2795,-4.2699,-4.2537,-4.247,-4.2404,-4.2117,-4.1854,-4.1561,-4.11,-4.0603,-4.0159,-3.9749,-3.9189,-3.8549,-3.8362,-3.7769,-3.6926,-3.6161,-3.5379,-3.4667,-3.3857,-3.3379,-3.3124,-3.3124,-3.3124,-3.2893,-3.1763,-3.1386,-3.1185,-3.0118,-2.9792,-2.9792,-2.9792,-2.9792,-2.9792,-2.9792,-2.9792,-2.9792,-2.9792,-2.9792,-2.9792,-2.9792,-2.9792,-2.9792,-2.9792,-2.9792,-2.9792,-2.9792,-2.9792,-2.9792,-2.9792,-2.9792,-2.9792,-2.9792,-2.9792,-2.9792,-2.9792,-2.9656,-2.9325,-2.874,-2.8333,-2.8,-2.7669,-2.73,-2.6829,-2.6256,-2.6065,-2.5497,-2.4525,-2.4366,-2.4083,-2.3671,-2.3289,-2.317,-2.3243,-2.287,-2.2896,-2.7846,-2.8963,-2.9679,-2.9063,-2.8122,-2.6854,-2.5222,-2.354,-2.1995,-2.093,-2.0239,-1.9798,-1.9798,-2.0727,-2.1549,-2.1675,-2.3623,-2.562,-2.7113,-2.8978,-3.1134,-3.3621,-3.5136,-3.6703,-3.8425,-4.0435,-4.143,-4.1069,-4.1517,-4.1477,-4.0674,-4.0887,-4.1437,-4.2392,-4.2392,-4.2295,-4.199,-4.199,-4.1922,-4.1688,-4.1254,-4.0887,-4.0603,-3.994,-3.9445,-3.921,-3.8787,-3.8304,-3.7808,-3.7585,-3.688,-3.5943,-3.5884,-3.5077,-3.3909,-3.3897,-3.3545,-3.3124,-3.3124,-3.3124,-3.2893,-3.1763,-3.1386,-3.1185,-3.0118,-2.9792,-2.9792,-2.9792,-2.9792,-2.9792,-2.9792,-2.9792,-2.9792,-2.9792,-2.9792,-2.9792,-2.9792,-2.9792,-2.9792,-2.9792,-2.9792,-2.9792,-2.9792,-2.9792,-2.9792,-2.9792,-2.9792,-2.9792,-2.9792,-2.9792,-2.9792,-2.9792,-2.9792,-2.9553,-2.8925,-2.8875,-2.8448,-2.7392,-2.7316,-2.7065,-2.6512,-2.5933,-2.5347,-2.482,-2.4268,-2.3715,-2.3108,-2.3288,-2.339,-2.339,-2.3526,-2.3586,-2.4996,-2.5837,-2.6352,-2.6129,-2.5239,-2.4274,-2.376,-2.2385,-2.1119,-2.0767,-2.0239,-1.9798,-1.9798,-2.0727,-2.1521,-2.1564,-2.3455,-2.5373,-2.6756,-2.8446,-3.0315,-3.2432,-3.439,-3.6274,-3.8033,-3.8919,-3.9404,-3.9441,-3.9906,-4.0074,-3.9747,-3.9911,-4.0546,-4.1617,-4.1506,-4.1381,-4.1324,-4.0986,-4.0816,-4.0731,-4.0128,-3.9678,-3.9414,-3.8895,-3.8413,-3.8018,-3.7907,-3.7351,-3.6506,-3.6427,-3.5879,-3.5017,-3.4697,-3.4287,-3.3859,-3.3483,-3.3275,-3.3124,-3.3124,-3.3124,-3.2893,-3.1763,-3.1386,-3.1185,-3.0118,-2.9792,-2.988,-3.0244,-3.0608,-3.0884,-3.0884,-3.0884,-3.0884,-3.0884,-3.0884,-3.0884,-3.0884,-3.0608,-3.0357,-3.0357,-3.0043,-2.9792,-2.9792,-2.9792,-2.9792,-2.9792,-2.9792,-2.9792,-2.9792,-2.9792,-2.9792,-2.9792,-2.9792,-2.9716,-2.9528,-2.9151,-2.875,-2.8423,-2.7708,-2.7241,-2.7065,-2.6524,-2.5925,-2.536,-2.5184,-2.4644,-2.3728,-2.3789,-2.3588,-2.321,-2.3228,-2.3258,-2.2334,-2.3288,-2.3847,-2.3847,-2.3158,-2.2431,-2.2246,-2.1091,-2.0075,-2.0075,-1.9761,-1.9572,-1.9761,-2.0727,-2.1556,-2.1769,-2.3502,-2.5317,-2.6775,-2.8191,-3.0011,-3.2463,-3.4152,-3.5791,-3.7527,-3.7919,-3.8157,-3.8299,-3.8757,-3.8926,-3.8661,-3.8819,-3.9268,-3.9942,-4.0287,-4.0388,-4.0215,-3.9911,-3.9692,-3.9516,-3.897,-3.8594,-3.8381,-3.7972,-3.7572,-3.7214,-3.7214,-3.6764,0.0,-3.5835,-3.534,-3.4663,-3.411,-3.3771,-3.3545,-3.3206,-3.3124,-3.3124,-3.3124,-3.3124,-3.2973,-3.2001,-3.1424,-3.0972,-3.0306,-3.0105,-3.0218,-3.0758,-3.1135,-3.1386,-3.1386,-3.1386,-3.1386,-3.1386,-3.1386,-3.1386,-3.1386,-3.1135,-3.0846,-3.0658,-3.0331,-3.0043,-2.9829,-2.9792,-2.9792,-2.9792,-2.9792,-2.9792,-2.9792,-2.9792,-2.9792,-2.9792,-2.9792,-2.9792,-2.9792,-2.9465,-2.9126,-2.89,-2.8285,-2.772,-2.7341,-2.6989,-2.6436,-2.5611,-2.5598,-2.5172,-2.4305,-2.4305,-2.4117,-2.3735,-2.3735,-2.3735,0.0,-2.1179,-2.202,-2.202,-2.1631,-2.1117,-2.0641,-1.9698,0.0,-1.8995,-1.9008,-1.9171,-1.9761,-2.0752,-2.1681,-2.2272,-2.3747,-2.5448,-2.7055,-2.8335,-3.0267,-3.3571,-3.4412,-3.5353,-3.696,-3.7377,-3.7521,-3.7521,-3.7925,-3.7989,-3.7485,-3.7612,-3.771,-3.771,-3.8742,-3.9169,-3.8805,-3.8819,-3.8594,-3.8167,-3.7867,-3.7605,-3.7413,-3.7168,-3.6909,-3.6675,-3.6675,-3.6555,-3.6304,-3.5717,-3.5119,-3.4613,-3.406,-3.3533,-3.3124,-3.3124,-3.3124,-3.3124,-3.3124,-3.3124,-3.298,-3.2403,-3.1512,-3.067,-3.0721,-3.0708,-3.0783,-3.1298,-3.1486,-3.1512,-3.1512,-3.1512,-3.1512,-3.1512,-3.1512,-3.1512,-3.1512,-3.1474,-3.1298,-3.0771,-3.0645,-3.0444,-2.9892,-2.9792,-2.9792,-2.9792,-2.9792,-2.9792,-2.9792,-2.9792,-2.9792,-2.9792,-2.9792,-2.9792,-2.9792,-2.9792,-2.9566,-2.8988,-2.8913,-2.8448,-2.7381,-2.7306,-2.6766,-2.5686,-2.5611,-2.536,-2.4838,-2.4813,-2.4788,-2.4788,-2.4788,-2.4788,-1.735,0.0,-1.9171,-1.9171,-1.907,-1.8945,0.0,-1.8581,-1.8494,-1.892,-1.9008,-1.9296,-2.0314,-2.1056,-2.1807,-2.2757,-2.433,-2.585,-2.7105,-2.9315,-3.1738,-3.4236,-3.4638,-3.5203,-3.648,-3.6653,-3.6748,-3.6925,-3.7006,-3.7096,-3.7168,-3.6836,-3.6637,-3.6637,-3.6527,-3.6978,-3.8037,-3.7893,-3.7769,-3.7677,-3.7188,-3.6943,-3.6862,-3.664,-3.6546,-3.6452,-3.6452,-3.6166,-3.5646,-3.514,-3.4587,-3.4035,-3.3483,-3.3194,-3.3124,-3.3124,-3.3124,-3.3124,-3.3124,-3.3124,-3.298,-3.2403,-3.175,-3.1286,-3.1712,-3.1549,-3.1323,-3.1863,-3.234,-3.2679,-3.2679,-3.2679,-3.2679,-3.2679,-3.2679,-3.2679,-3.2679,-3.234,-3.1851,-3.1323,-3.0884,-3.0444,-2.9892,-2.9792,-2.9792,-2.9792,-2.9792,-2.9792,-2.9792,-2.9792,-2.9792,-2.9792,-2.9792,-2.9792,-2.9792,-2.9792,-2.9729,-2.9591,-2.9176,-2.8587,-2.7946,-2.7507,-2.6989,-2.6298,-2.5858,-2.5536,-2.541,-2.4988,-2.4788,-2.4788,-2.4788,-2.4788,-1.6436,-1.7305,-1.8204,-1.8204,-1.8392,-1.8556,-1.8556,-1.8392,-1.8355,-1.8895,-1.9008,-1.9334,-2.049,-2.1358,-2.2234,-2.3321,-2.4921,-2.6653,-2.8549,-3.052,-3.2503,-3.4487,-3.468,-3.5152,-3.6304,-3.6405,-3.6351,-3.618,-3.6155,-3.6101,-3.5986,-3.574,-3.5575,-3.5575,-3.5283,-3.559,-3.6541,-3.6443,-3.6365,-3.6215,-3.5927,-3.5915,-3.6168,-3.6028,-3.6119,-3.6392,-3.6094,-3.5818,-3.5433,-3.4675,-3.4173,-3.3847,-3.3294,-3.3124,-3.3124,-3.3124,-3.3124,-3.3124,-3.3124,-3.3124,-3.298,-3.2403,-3.2001,-3.1825,-3.2127,-3.2001,-3.1888,-3.2453,-3.283,-3.3124,-3.3124,-3.3124,-3.3124,-3.3124,-3.3124,-3.3124,-3.3124,-3.283,-3.2441,-3.1876,-3.1336,-3.0796,-3.0269,-2.9955,-2.9792,-2.9792,-2.9792,-2.9792,-2.9792,-2.9792,-2.9792,-2.9792,-2.9792,-2.9792,-2.9792,-2.9792,-2.9792,-2.9792,-2.9503,-2.9076,-2.8511,-2.7959,-2.7281,-2.6512,-2.6185,-2.6021,-2.6021,-2.5711,-2.5573,-2.5573,-2.5573,-2.5573,-1.6306,-1.7202,-1.8108,-1.8067,-1.8469,-1.8882,-1.8882,-1.8519,-1.8392,-1.8995,-1.9121,-1.9509,-2.083,-2.1807,-2.2862,-2.4167,-2.5871,-2.792,-3.0495,-3.1725,-3.2943,-3.4525,-3.4756,-3.524,-3.6317,-3.6329,-3.6044,-3.5533,-3.542,-3.5169,-3.4705,-3.4638,-3.46,-3.46,-3.4512,-3.4564,-3.48,-3.4964,-3.4906,-3.468,-3.468,-3.4919,-3.537,-3.537,-3.568,-3.6128,-3.5617,-3.537,-3.5295,-3.4324,-3.3897,-3.3847,-3.3294,-3.3124,-3.3124,-3.3124,-3.3124,-3.3124,-3.3124,-3.3124,-3.3006,-3.2503,-3.234,-3.234,-3.234,-3.234,-3.2441,-3.2943,-3.3124,-3.3124,-3.3124,-3.3124,-3.3124,-3.3124,-3.3124,-3.3124,-3.3124,-3.3124,-3.2905,-3.2328,-3.1763,-3.1223,-3.0708,-3.0156,-2.9792,-2.9792,-2.9867,-2.9917,-2.9917,-2.998,-3.0005,-2.993,-2.9917,-2.988,-2.9804,-2.9792,-2.9792,-2.9792,-2.9792,-2.9528,-2.8913,-2.8323,-2.7544,-2.6637,-2.6537,-2.6499,-2.6499,-2.6499,-2.6499,-2.6499,-2.6499,-2.6499,-1.6022,-1.6871,-1.7651,-1.7545,-1.7928,-1.8329,-1.8329,-1.8267,-1.8493,-1.9472,-1.9685,-2.0287,-2.2343,-2.2869,-2.369,-2.5783,-2.792,-2.9917,-3.1712,-3.2541,-3.3382,-3.4575,-3.5094,-3.5667,-3.6342,-3.5943,-3.5596,-3.5508,-3.5069,-3.4768,-3.468,-3.4274,-3.4022,-3.4022,-3.3571,-3.3375,-3.3419,-3.4306,-3.4726,-3.468,-3.468,-3.4718,-3.4806,-3.4806,-3.4889,-3.4977,-3.4876,-3.4806,-3.4756,-3.4161,-3.3897,-3.3847,-3.3294,-3.3124,-3.3124,-3.3124,-3.3124,-3.3124,-3.3124,-3.3124,-3.3056,-3.2968,-3.2943,-3.2943,-3.2943,-3.2943,-3.2968,-3.3056,-3.3124,-3.3124,-3.3124,-3.3124,-3.3124,-3.3124,-3.3124,-3.3124,-3.3124,-3.3124,-3.2905,-3.2328,-3.1763,-3.1223,-3.0708,-3.0156,-2.9792,-2.9792,-3.0193,-3.0495,-3.0495,-3.0871,-3.0972,-3.0532,-3.0495,-3.0306,-2.9829,-2.9792,-2.9792,-2.9792,-2.9792,-2.9528,-2.8913,-2.7946,-2.7331,-2.719,-2.6738,-2.6499,-2.6499,-2.6499,-2.6499,-2.6499,-2.6499,-2.6499,-1.5657,-1.6513,-1.7364,-1.7491,-1.825,-1.9058,-1.9459,-1.956,-1.9874,-2.0928,-2.1154,-2.1656,-2.3301,-2.4067,-2.5297,-2.7882,-2.9377,-3.0696,-3.2026,-3.2968,-3.3822,-3.4625,-3.4906,-3.527,-3.5868,-3.5382,-3.4931,-3.4675,-3.4424,-3.4148,-3.3847,-3.3596,-3.3458,-3.3458,-3.3206,-3.3124,-3.3124,-3.3583,-3.3834,-3.3834,-3.3834,-3.3985,-3.4274,-3.4274,-3.4449,-3.4655,-3.4412,-3.4274,-3.4236,-3.3684,-3.3458,-3.3432,-3.3224,-3.3124,-3.3124,-3.3124,-3.3124,-3.3124,-3.3124,-3.3124,-3.3124,-3.3124,-3.3124,-3.3124,-3.3124,-3.3124,-3.3124,-3.3124,-3.3124,-3.3124,-3.3124,-3.3124,-3.3124,-3.3124,-3.3124,-3.3124,-3.3124,-3.3124,-3.3006,-3.2729,-3.2215,-3.1662,-3.1122,-3.0595,-3.0231,-3.0231,-3.0457,-3.0721,-3.0997,-3.1248,-3.1298,-3.106,-3.1035,-3.0821,-3.0281,-3.0231,-3.0118,-2.9817,-2.9792,-2.9528,-2.8913,-2.8448,-2.8034,-2.7733,-2.7482,-2.7344,-2.7344,-2.7344,-2.7344,-2.7379,-2.7077,-2.6939,-1.5221,-1.6126,-1.7044,-1.7387,-1.8607,-1.9911,-2.0686,-2.0939,-2.1377,-2.2619,-2.2899,-2.3288,-2.4531,-2.5649,-2.7168,-2.9591,-3.0444,-3.1173,-3.2265,-3.3269,-3.406,-3.4474,-3.4638,-3.4843,-3.527,-3.4806,-3.4349,-3.3935,-3.3771,-3.352,-3.3106,-3.3124,-3.3124,-3.3124,-3.3124,-3.3124,-3.3124,-3.3124,-3.3124,-3.3124,-3.3124,-3.3307,-3.3709,-3.3709,-3.3935,-3.4311,-3.3884,-3.3709,-3.3671,-3.3257,-3.3124,-3.3124,-3.3124,-3.3124,-3.3124,-3.3124,-3.3124,-3.3124,-3.3124,-3.3124,-3.3124,-3.3124,-3.3124,-3.3124,-3.3124,-3.3124,-3.3124,-3.3124,-3.3124,-3.3124,-3.3124,-3.3124,-3.3124,-3.3124,-3.3124,-3.3124,-3.3124,-3.3124,-3.3124,-3.3124,-3.2604,-3.2077,-3.165,-3.1148,-3.0796,-3.0796,-3.0909,-3.1135,-3.1524,-3.17,-3.1738,-3.1599,-3.1587,-3.1323,-3.067,-3.0495,-3.0244,-2.9817,-2.9792,-2.9591,-2.9113,-2.8963,-2.87,-2.831,-2.8172,-2.8109,-2.8109,-2.8109,-2.8109,-2.8097,-2.767,-2.7469,-1.4674,-1.5615,-1.6646,-1.7044,-1.8576,-2.0193,-2.1067,-2.1633,-2.2496,-2.4242,-2.4612,-2.5134,-2.6753,-2.7946,-2.9063,-3.0357,-3.0997,-3.1725,-3.2898,-3.352,-3.3909,-3.396,-3.4412,-3.4738,-3.4731,-3.4286,-3.3935,-3.3897,-3.342,-3.3162,-3.3124,-3.3124,-3.3124,-3.3124,-3.3124,-3.3124,-3.3124,-3.3124,-3.3124,-3.3124,-3.3124,-3.3106,-3.3174,-3.3174,-3.3156,-3.3194,-3.3156,-3.3174,-3.3131,-3.3136,-3.3124,-3.3124,-3.3124,-3.3124,-3.3124,-3.3124,-3.3124,-3.3124,-3.3124,-3.3124,-3.3124,-3.3124,-3.3124,-3.3124,-3.3124,-3.3124,-3.3124,-3.3124,-3.3124,-3.3124,-3.3124,-3.3124,-3.3124,-3.3124,-3.3124,-3.3124,-3.3124,-3.3124,-3.3124,-3.3124,-3.2604,-3.2202,-3.2164,-3.17,-3.1336,-3.1336,-3.1763,-3.2114,-3.2152,-3.2616,-3.2754,-3.2202,-3.2152,-3.1738,-3.0708,-3.0143,-2.9829,-2.9792,-2.9792,-2.9779,-2.9729,-2.9214,-2.8875,-2.8838,-2.836,-2.8109,-2.8109,-2.8109,-2.8109,-2.8109,-2.8059,-2.8047,-1.4292,-1.5253,-1.63,-1.7102,-1.8787,-2.0476,-2.1306,-2.2325,-2.358,-2.5311,-2.6058,-2.6753,-2.8059,-2.8612,-2.9364,-3.0859,-3.126,-3.1788,-3.296,-3.3558,-3.3897,-3.3897,-3.4085,-3.4211,-3.4211,-3.3709,-3.3382,-3.3382,-3.3194,-3.3124,-3.3124,-3.3124,-3.2918,-3.2554,-3.2541,-3.2378,-3.2026,-3.2026,-3.2026,-3.2039,-3.2742,-3.3124,-3.3124,-3.3124,-3.3124,-3.3124,-3.3124,-3.3124,-3.3124,-3.3124,-3.3124,-3.3124,-3.3124,-3.3124,-3.3124,-3.3124,-3.3124,-3.3124,-3.3124,-3.3124,-3.3124,-3.3124,-3.3124,-3.3124,-3.3124,-3.3124,-3.3124,-3.3124,-3.3124,-3.3124,-3.3124,-3.3124,-3.3124,-3.3124,-3.3124,-3.3124,-3.3124,-3.3124,-3.3124,-3.3124,-3.2905,-3.2641,-3.2277,-3.2039,-3.1901,-3.1901,-3.2077,-3.234,-3.2704,-3.2943,-3.2993,-3.2767,-3.2428,-3.1913,-3.116,-3.0608,-3.0156,-2.9817,-2.9792,-2.9792,-2.9792,-2.9578,-2.9465,-2.9465,-2.9264,-2.9151,-2.9151,-2.9151,-2.9151,-2.9151,-2.8787,-2.8612,-1.3918,-1.4901,-1.6063,-1.6942,-1.8794,-2.0692,-2.1789,-2.3198,-2.4842,-2.6811,-2.7801,-2.8511,-2.9101,-2.9164,-2.9628,-3.0934,-3.1286,-3.1712,-3.2667,-3.3282,-3.3633,-3.3633,-3.3633,-3.3633,-3.3633,-3.3307,-3.3124,-3.3124,-3.2905,-3.2805,-3.2805,-3.2641,-3.2365,-3.1964,-3.1951,-3.1763,-3.1386,-3.1386,-3.1386,-3.1399,-3.2177,-3.2541,-3.2541,-3.2541,-3.2641,-3.2805,-3.2805,-3.2905,-3.3124,-3.3124,-3.3124,-3.3124,-3.3124,-3.3124,-3.3124,-3.3124,-3.3124,-3.3124,-3.3124,-3.3124,-3.3124,-3.3124,-3.3124,-3.3124,-3.3124,-3.3124,-3.3124,-3.3124,-3.3124,-3.3124,-3.3124,-3.3124,-3.3124,-3.3124,-3.3124,-3.3124,-3.3124,-3.3124,-3.3124,-3.3124,-3.3124,-3.2955,-3.2554,-3.2491,-3.2491,-3.2491,-3.2491,-3.2629,-3.3074,-3.3124,-3.3124,-3.3124,-3.2554,-3.1989,-3.1436,-3.0922,-3.0382,-2.9829,-2.9792,-2.9792,-2.9792,-2.9792,-2.9792,-2.9792,-2.9792,-2.9792,-2.9792,-2.9792,-2.9792,-2.9779,-2.939,-2.9164,-1.3525,-1.463,-1.5847,-1.6464,-1.8519,-2.0876,-2.2618,-2.4348,-2.6321,-2.8895,-3.0049,-3.0457,-2.9905,-2.9792,-2.998,-3.052,-3.1047,-3.1574,-3.2127,-3.2704,-3.3056,-3.3056,-3.3056,-3.3056,-3.3056,-3.3056,-3.3056,-3.3056,-3.2528,-3.2202,-3.2202,-3.1687,-3.1386,-3.1386,-3.1386,-3.1386,-3.1373,-3.1373,-3.1373,-3.1373,-3.1373,-3.1386,-3.1386,-3.1386,-3.1687,-3.2202,-3.2215,-3.2541,-3.3111,-3.3124,-3.3124,-3.3124,-3.3124,-3.3124,-3.3124,-3.3124,-3.3124,-3.3124,-3.3124,-3.3124,-3.3124,-3.3124,-3.3124,-3.3124,-3.3124,-3.3124,-3.3124,-3.3124,-3.3124,-3.3124,-3.3124,-3.3124,-3.3124,-3.3124,-3.3124,-3.3124,-3.3124,-3.3124,-3.3124,-3.3124,-3.3124,-3.3124,-3.3124,-3.3124,-3.3124,-3.3124,-3.3124,-3.3124,-3.3124,-3.3124,-3.3124,-3.3124,-3.2566,-3.2001,-3.1436,-3.0922,-3.0382,-2.9829,-2.9792,-2.9792,-2.9792,-2.9792,-2.9792,-2.9792,-2.9792,-2.9792,-2.9792,-2.9792,-2.9792,-2.9792,-2.9792,-2.9792,-1.3793,-1.4557,-1.559,-1.72,-1.9044,-2.1099,-2.3584,-2.5218,-2.6993,-2.9697,-3.0415,-3.057,-3.0407,-3.0055,-2.998,-3.052,-3.0746,-3.1022,-3.1562,-3.1788,-3.1888,-3.1888,-3.1888,-3.1888,-3.1888,-3.1888,-3.1888,-3.1888,-3.1738,-3.1637,-3.1637,-3.1486,-3.1223,-3.0859,-3.0846,-3.0658,-3.0269,-3.0269,-3.0269,-3.0269,-3.0269,-3.0658,-3.1386,-3.1386,-3.1486,-3.165,-3.2051,-3.2303,-3.2503,-3.2905,-3.3124,-3.3124,-3.3124,-3.3124,-3.3124,-3.3124,-3.3124,-3.3124,-3.3124,-3.3124,-3.3124,-3.3124,-3.3124,-3.3124,-3.3124,-3.3124,-3.3124,-3.3124,-3.3124,-3.3124,-3.3124,-3.3124,-3.3124,-3.3124,-3.3124,-3.3124,-3.3124,-3.3124,-3.3124,-3.3124,-3.3124,-3.3124,-3.3124,-3.3124,-3.3124,-3.3124,-3.3124,-3.3124,-3.3124,-3.3124,-3.3124,-3.3124,-3.2918,-3.2428,-3.1474,-3.1248,-3.0771,-2.9854,-2.9792,-2.9792,-2.9792,-2.9792,-2.9792,-2.9792,-2.9792,-2.9792,-2.9792,-2.9792,-2.9792,-2.9792,-2.9792,-2.9792,-1.3791,-1.4599,-1.5733,-1.757,-1.9547,-2.1857,-2.4983,-2.6825,-2.8293,-2.9729,-3.0259,-3.0413,-3.0188,-2.9875,-2.9763,-3.0192,-3.047,-3.0721,-3.1035,-3.126,-3.1386,-3.1386,-3.1386,-3.1386,-3.1386,-3.1386,-3.1386,-3.1386,-3.1198,-3.1085,-3.1085,-3.0871,-3.062,-3.0294,-3.0281,-3.0131,-2.9792,-2.9792,-2.9792,-2.9792,-2.9792,-3.0131,-3.0758,-3.0758,-3.0871,-3.1122,-3.1876,-3.2215,-3.2252,-3.283,-3.3124,-3.3124,-3.3124,-3.3124,-3.3124,-3.3124,-3.3124,-3.3124,-3.3124,-3.3124,-3.3124,-3.3124,-3.3124,-3.3124,-3.3124,-3.3124,-3.3124,-3.3124,-3.3124,-3.3124,-3.3124,-3.3124,-3.3124,-3.3124,-3.3124,-3.3124,-3.3124,-3.3124,-3.3124,-3.3124,-3.3124,-3.3124,-3.3124,-3.3124,-3.3124,-3.3124,-3.3124,-3.3124,-3.3124,-3.3124,-3.3124,-3.3124,-3.3124,-3.2704,-3.18,-3.1512,-3.1022,-3.0168,-2.9917,-2.9792,-2.9792,-2.9792,-2.9792,-2.9792,-2.9792,-2.9792,-2.9792,-2.9792,-2.9792,-2.9792,-2.9792,-2.9792,-1.365,-1.4675,-1.605,-1.7692,-2.0129,-2.3041,-2.6459,-2.8581,-2.973,-2.9263,-2.9757,-3.0114,-2.9553,-2.9417,-2.947,-2.9702,-3.0167,-3.0545,-3.0545,-3.0947,-3.1248,-3.1248,-3.1248,-3.1248,-3.1248,-3.1248,-3.1248,-3.1248,-3.0809,-3.0545,-3.0545,-3.0068,-2.9792,-2.9792,-2.9792,-2.9792,-2.9792,-2.9792,-2.9792,-2.9792,-2.9792,-2.9792,-2.9792,-2.9792,-3.0093,-3.067,-3.1637,-3.2089,-3.2177,-3.2704,-3.2955,-3.3006,-3.3006,-3.3031,-3.3124,-3.3124,-3.3124,-3.3124,-3.3124,-3.3124,-3.3124,-3.3124,-3.3124,-3.3124,-3.3124,-3.3124,-3.3124,-3.3124,-3.3124,-3.3124,-3.3124,-3.3124,-3.3124,-3.3124,-3.3124,-3.3124,-3.3124,-3.3124,-3.3124,-3.3124,-3.3124,-3.3124,-3.3124,-3.3124,-3.3081,-3.3068,-3.3068,-3.3081,-3.3068,-3.3068,-3.3124,-3.3124,-3.3124,-3.2842,-3.2265,-3.175,-3.1223,-3.0658,-3.0143,-2.9842,-2.9792,-2.9792,-2.9792,-2.9792,-2.9792,-2.9792,-2.9792,-2.9792,-2.9792,-2.9792,-2.9792,-2.9792,-1.4001,-1.4811,-1.5859,-1.7833,-2.1116,-2.4236,-2.5739,-2.7376,-2.8803,-2.9653,-2.9933,-3.001,-2.9887,-2.9611,-2.9419,-2.947,-2.975,-2.9967,-2.9967,-3.0068,-3.0131,-3.0131,-3.0131,-3.0131,-3.0131,-3.0131,-3.0131,-3.0131,-3.003,-2.9967,-2.9967,-2.9854,-2.9792,-2.9792,-2.9792,-2.9792,-2.9792,-2.9792,-2.9792,-2.9792,-2.9792,-2.9792,-2.9792,-2.9792,-3.0093,-3.0633,-3.0859,-3.1185,-3.1574,-3.17,-3.2001,-3.2403,-3.2403,-3.2679,-3.3124,-3.3124,-3.3124,-3.3124,-3.3124,-3.3124,-3.3124,-3.3124,-3.3124,-3.3124,-3.3124,-3.3124,-3.3124,-3.3124,-3.3124,-3.3124,-3.3124,-3.3124,-3.3124,-3.3124,-3.3124,-3.3124,-3.3124,-3.3124,-3.3124,-3.3124,-3.3124,-3.3124,-3.3124,-3.3124,-3.3025,-3.281,-3.2982,-3.3025,-3.281,-3.2982,-3.3124,-3.3124,-3.3124,-3.2842,-3.2265,-3.2102,-3.1625,-3.067,-3.0507,-3.0244,-2.9817,-2.9792,-2.9792,-2.9792,-2.9792,-2.9792,-2.9792,-2.9792,-2.9792,-2.9792,-2.9792,-2.9792,-1.3775,-1.4586,-1.5899,-1.8842,-2.1707,-2.4129,-2.5508,-2.6541,-2.7502,-2.8476,-2.8919,-2.9173,-2.9253,-2.9196,-2.9184,-2.938,-2.9611,-2.9792,-2.9792,-2.9792,-2.9792,-2.9792,-2.9792,-2.9792,-2.9792,-2.9792,-2.9792,-2.9792,-2.9792,-2.9792,-2.9792,-2.9792,-2.9792,-2.9792,-2.9792,-2.9792,-2.9792,-2.9792,-2.9792,-2.9792,-2.9792,-2.9792,-2.9792,-2.9792,-2.9942,-3.0231,-3.0507,-3.0771,-3.1035,-3.1286,-3.1562,-3.1838,-3.2102,-3.239,-3.2692,-3.2968,-3.3124,-3.3124,-3.3124,-3.3124,-3.3124,-3.3124,-3.3124,-3.3124,-3.3124,-3.3124,-3.3124,-3.3124,-3.3124,-3.3124,-3.3124,-3.3124,-3.3124,-3.3124,-3.3124,-3.3124,-3.3124,-3.3124,-3.3124,-3.3124,-3.3124,-3.3081,-3.2939,-3.2711,-3.2537,-3.2394,-3.2407,-3.2407,-3.2351,-3.2494,-3.2624,-3.2736,-3.2779,-3.2667,-3.2313,-3.204,-3.1642,-3.1055,-3.0562,-3.0152,-2.9866,-2.9605,-2.9585,-2.9792,-2.9792,-2.9792,-2.9792,-2.9792,-2.9792,-2.9792,-2.9792,-2.9792,-1.3389,-1.4419,-1.6214,-1.9727,-2.1757,-2.3317,-2.4971,-2.5644,-2.6103,-2.6712,-2.7493,-2.8139,-2.8299,-2.8578,-2.8882,-2.9223,-2.9521,-2.9753,-2.9792,-2.9792,-2.9792,-2.9792,-2.9792,-2.9792,-2.9792,-2.9792,-2.9792,-2.9792,-2.9792,-2.9792,-2.9792,-2.9792,-2.9792,-2.9792,-2.9792,-2.9792,-2.9792,-2.9792,-2.9792,-2.9792,-2.9792,-2.9792,-2.9792,-2.9792,-2.9792,-2.9817,-3.0281,-3.047,-3.0507,-3.0934,-3.1173,-3.1298,-3.1763,-3.2051,-3.2277,-3.2754,-3.2993,-3.3124,-3.3124,-3.3124,-3.3124,-3.3124,-3.3124,-3.3124,-3.3124,-3.3124,-3.3124,-3.3124,-3.3124,-3.3124,-3.3124,-3.3124,-3.3124,-3.3124,-3.3124,-3.3124,-3.3124,-3.3124,-3.3081,-3.3038,-3.2982,-3.2797,-3.2581,-3.2176,-3.1857,-3.1769,-3.1649,-3.1605,-3.1725,-3.1813,-3.1957,-3.2213,-3.2257,-3.2257,-3.2257,-3.1828,-3.1479,-3.1382,-3.0453,-2.9878,-2.9768,-2.9294,-2.9182,-2.9559,-2.9663,-2.974,-2.974,-2.9792,-2.9792,-2.9792,-2.9792,-2.9792,-1.3389,-1.4927,-1.687,-1.8934,-2.0712,-2.2187,-2.3026,-2.399,-2.4882,-2.5367,-2.6603,-2.7603,-2.7644,-2.8139,-2.8618,-2.8843,-2.9184,-2.9509,-2.9753,-2.9792,-2.9792,-2.9792,-2.9792,-2.9792,-2.9792,-2.9792,-2.9792,-2.9792,-2.9792,-2.9792,-2.9792,-2.9792,-2.9792,-2.9792,-2.9792,-2.9792,-2.9792,-2.9792,-2.9792,-2.9792,-2.9792,-2.9792,-2.9792,-2.9792,-2.9792,-2.9792,-2.9867,-2.9905,-2.9905,-2.998,-3.0294,-3.0721,-3.0809,-3.1399,-3.2227,-3.2303,-3.2641,-3.3124,-3.3124,-3.3124,-3.3124,-3.3124,-3.3124,-3.3124,-3.3124,-3.3124,-3.3124,-3.3124,-3.3124,-3.3124,-3.3124,-3.3124,-3.3124,-3.3124,-3.3124,-3.3124,-3.3124,-3.3124,-3.3025,-3.281,-3.2438,-3.2077,-3.1801,-3.1548,-3.125,-3.0847,-3.0913,-3.0958,-3.0791,-3.116,-3.1395,-3.1439,-3.1661,-3.1793,-3.1793,-3.1733,-3.1436,-3.091,-3.0387,-2.9844,-2.9333,-2.8815,-2.863,-2.8669,-2.9197,-2.9457,-2.9457,-2.9702,-2.9792,-2.9792,-2.9792,-2.9792,-1.3389,-1.4604,-1.6085,-1.741,-1.9038,-2.0569,-2.1477,-2.2547,-2.3468,-2.3964,-2.4897,-2.5918,-2.6796,-2.7592,-2.8195,-2.8447,-2.8988,-2.9419,-2.956,-2.9702,-2.9792,-2.9792,-2.9792,-2.974,-2.9599,-2.956,-2.9534,-2.9417,-2.9417,-2.9456,-2.956,-2.956,-2.965,-2.9792,-2.9792,-2.9792,-2.9792,-2.9792,-2.9792,-2.9792,-2.9792,-2.9792,-2.9792,-2.9792,-2.9792,-2.9792,-2.9792,-2.9792,-2.9792,-2.9792,-2.993,-3.0181,-3.0495,-3.0909,-3.1361,-3.165,-3.2102,-3.2591,-3.2591,-3.2805,-3.3124,-3.3124,-3.3124,-3.3124,-3.3124,-3.3124,-3.3124,-3.3124,-3.3124,-3.3124,-3.3124,-3.3124,-3.3124,-3.3124,-3.3124,-3.3081,-3.2896,-3.2896,-3.2711,-3.2176,-3.1593,-3.1149,-3.088,-3.0385,-2.9988,-2.9806,-2.9692,-2.9681,-2.9749,-2.9943,-3.017,-3.0419,-3.0554,-3.0701,-3.0847,-3.0847,-3.0754,-3.0463,-2.9983,-2.9597,-2.9308,-2.8579,-2.8158,-2.8158,-2.8643,-2.8961,-2.9067,-2.9157,-2.9378,-2.956,-2.956,-2.965,-1.3389,-1.4116,-1.5022,-1.6135,-1.7502,-1.8871,-1.9957,-2.0951,-2.1824,-2.2309,-2.3013,-2.3928,-2.5286,-2.641,-2.7263,-2.7525,-2.8234,-2.8778,-2.8855,-2.9196,-2.9424,-2.9424,-2.9537,-2.9534,-2.9263,-2.9263,-2.9145,-2.8973,-2.9013,-2.9118,-2.9314,-2.938,-2.9509,-2.9792,-2.9792,-2.9792,-2.9792,-2.9792,-2.9792,-2.9792,-2.9792,-2.9792,-2.9792,-2.9792,-2.9792,-2.9792,-2.9792,-2.9792,-2.9792,-2.9792,-2.9792,-2.9829,-3.0244,-3.0495,-3.0658,-3.1047,-3.1537,-3.2026,-3.2164,-3.2491,-3.288,-3.3074,-3.3124,-3.3124,-3.3124,-3.3124,-3.3124,-3.3124,-3.3124,-3.3124,-3.3124,-3.3124,-3.3068,-3.3025,-3.2995,-3.2939,-3.268,-3.2494,-3.2133,-3.1504,-3.0734,-3.0114,-2.9795,-2.9263,-2.8896,-2.8791,-2.8639,-2.8592,-2.8791,-2.8729,-2.8863,-2.9211,-2.936,-2.9509,-2.9715,-2.9806,-2.9852,-2.984,-2.933,-2.9059,-2.9059,-2.8177,-2.7702,-2.7702,-2.7946,-2.8189,-2.8474,-2.8605,-2.8843,-2.9184,-2.9223,-2.9392,-1.3389,-1.3622,-1.4112,-1.5554,-1.6434,-1.7226,-1.8278,-1.9109,-1.9796,-2.0257,-2.111,-2.1937,-2.2647,-2.4298,-2.5584,-2.5777,-2.6505,-2.7134,-2.7358,-2.7973,-2.8369,-2.8369,-2.8823,-2.9052,-2.8831,-2.8831,-2.8764,-2.855,-2.8697,-2.8882,-2.9091,-2.9314,-2.9509,-2.9792,-2.9792,-2.9792,-2.9792,-2.9792,-2.9792,-2.9792,-2.9792,-2.9792,-2.9792,-2.9792,-2.9792,-2.9792,-2.9792,-2.9792,-2.9792,-2.9792,-2.9792,-2.9792,-2.9829,-3.0156,-3.062,-3.0645,-3.0984,-3.1499,-3.2026,-3.2227,-3.2353,-3.2893,-3.3124,-3.3124,-3.3124,-3.3124,-3.3124,-3.3124,-3.3124,-3.3124,-3.3124,-3.3124,-3.3038,-3.2766,-3.2711,-3.268,-3.2475,-3.1893,-3.1217,-3.0758,-2.9863,-2.9037,-2.8585,-2.8418,-2.8244,-2.798,-2.7931,-2.7931,-2.798,-2.7777,-2.7683,-2.7731,-2.8186,-2.8488,-2.8488,-2.871,-2.8839,-2.8771,-2.8333,-2.8081,-2.8081,-2.7523,-2.725,-2.725,-2.6899,-2.6979,-2.7563,-2.8007,-2.8339,-2.855,-2.8724,-2.9028,-1.3091,-1.3326,-1.3726,-1.4321,-1.5097,-1.5902,-1.6636,-1.747,-1.822,-1.8623,-1.9469,-2.0221,-2.0446,-2.2734,-2.4747,-2.506,-2.5747,-2.6271,-2.6522,-2.6828,-2.7062,-2.7062,-2.7229,-2.7311,-2.7106,-2.7336,-2.7419,-2.7245,-2.7698,-2.8127,-2.8486,-2.8843,-2.9197,-2.9521,-2.9702,-2.9792,-2.9792,-2.9792,-2.9792,-2.9792,-2.9792,-2.9792,-2.9792,-2.9792,-2.9792,-2.9792,-2.9792,-2.9792,-2.9792,-2.9792,-2.9792,-2.9792,-2.9792,-2.9917,-3.0093,-3.0093,-3.0432,-3.0972,-3.1499,-3.1913,-3.2303,-3.288,-3.3124,-3.3124,-3.3124,-3.2982,-3.2853,-3.2853,-3.2736,-3.2649,-3.2649,-3.2649,-3.2562,-3.2089,-3.1845,-3.1634,-3.1271,-3.0889,-3.0352,-2.9555,-2.8939,-2.8397,-2.7917,-2.7922,-2.7922,-2.7872,-2.7822,-2.7822,-2.7822,-2.7515,-2.7337,-2.7541,-2.7465,-2.7478,-2.762,-2.7704,-2.7752,-2.7741,-2.7593,-2.7509,-2.7509,-2.6999,-2.6746,-2.6746,-2.6325,-2.6432,-2.7124,-2.6975,-2.7185,-2.7672,-2.7874,-2.8287,-1.2905,-1.3111,-1.3355,-1.3629,-1.4165,-1.4782,-1.534,-1.6014,-1.6648,-1.708,-1.7851,-1.8488,-1.873,-2.0659,-2.2498,-2.3313,-2.4122,-2.4713,-2.49,-2.5388,-2.5733,-2.5733,-2.5884,-2.59,-2.5697,-2.5968,-2.6057,-2.5842,-2.6377,-2.688,-2.7328,-2.7828,-2.8334,-2.8834,-2.91,-2.9227,-2.9227,-2.9227,-2.9315,-2.9503,-2.9503,-2.9603,-2.9792,-2.9792,-2.9792,-2.9792,-2.9792,-2.9792,-2.9792,-2.9792,-2.9792,-2.9792,-2.9792,-2.9792,-2.9792,-2.9702,-2.9888,-3.0276,-3.0745,-3.1281,-3.1843,-3.2404,-3.2716,-3.2865,-3.2754,-3.2624,-3.2438,-3.2363,-3.2288,-3.2169,-3.2169,-3.2025,-3.1797,-3.1541,-3.1065,-3.0612,-3.0298,-3.0144,-2.9769,-2.8921,-2.8431,-2.7976,-2.752,-2.7643,-2.779,-2.779,-2.779,-2.779,-2.779,-2.7222,-2.6913,-2.7111,-2.6845,-2.6668,-2.6802,-2.6907,-2.6955,-2.6955,-2.6955,-2.6955,-2.6955,-2.6668,-2.6505,-2.6505,-2.6028,-2.6048,-2.6536,-2.6152,-2.6261,-2.6858,-2.6937,-2.7389,0.0,0.0,0.0,-1.355,-1.3674,-1.3834,-1.4445,-1.477,-1.5079,-1.5553,-1.6175,-1.6838,-1.7496,-1.7956,-1.8771,-2.0425,-2.1553,-2.2308,-2.2499,-2.3549,-2.4265,-2.4265,-2.4729,-2.4971,-2.4726,-2.4709,-2.4653,-2.446,-2.4842,-2.5233,-2.567,-2.6332,-2.7049,-2.7791,-2.7987,-2.8097,-2.8109,-2.8109,-2.8373,-2.8863,-2.8888,-2.9176,-2.9767,-2.9779,-2.9792,-2.9792,-2.9792,-2.9792,-2.9792,-2.9792,-2.9792,-2.9792,-2.9792,-2.9792,-2.9753,-2.947,-2.938,-2.9427,-2.985,-3.0323,-3.0851,-3.1404,-3.1945,-3.232,-3.2033,-3.1989,-3.1901,-3.1705,-3.1661,-3.1661,-3.1661,-3.1261,-3.0886,-3.1101,-3.0402,-2.9704,-2.9677,-2.9698,-2.9501,-2.8956,-2.8267,-2.7723,-2.747,-2.7589,-2.7738,-2.7738,-2.7738,-2.7738,-2.7738,-2.6943,-2.6426,-2.6406,-2.6241,-2.611,-2.61,-2.6352,-2.6496,-2.6496,-2.6496,-2.6496,-2.6496,-2.6496,-2.6496,-2.6496,-2.6026,-2.5805,-2.5795,-2.5613,-2.5728,-2.6152,-2.5954,-2.6434,-1.2905,0.0,0.0,0.0,0.0,0.0,-1.3712,-1.3857,-1.4037,-1.4468,-1.497,-1.5478,-1.5939,-1.6401,-1.6999,-1.7888,-1.9328,-2.0526,-2.1005,-2.1352,-2.1594,-2.1594,-2.17,-2.1913,-2.2179,-2.2507,-2.2847,-2.3236,-2.3881,-2.455,-2.5228,-2.6282,-2.7149,-2.7791,-2.7865,-2.795,-2.8109,-2.8109,-2.8185,-2.8335,-2.87,-2.8887,-2.8936,-2.9334,-2.9443,-2.93,-2.93,-2.93,-2.9339,-2.9663,-2.9702,-2.9509,-2.9509,-2.9404,-2.926,-2.904,-2.8949,-2.9034,-2.9371,-2.9569,-2.9888,-3.0792,-3.105,-3.1088,-3.1396,-3.125,-3.097,-3.0937,-3.0758,-3.0578,-3.0374,-3.0114,-2.9839,-2.9667,-2.9343,-2.913,-2.9041,-2.9003,-2.8786,-2.8238,-2.8025,-2.7895,-2.7636,-2.7885,-2.8125,-2.8125,-2.8125,-2.8125,-2.8125,-2.7646,-2.7197,-2.6875,-2.6505,-2.6173,-2.5849,-2.5878,-2.5927,-2.5927,-2.5927,-2.5927,-2.5927,-2.5927,-2.5927,-2.5927,-2.5809,-2.5749,-2.574,-2.5364,-2.521,-2.5192,-2.5498,-2.5863,0.0,0.0,-1.2905,-1.2905,0.0,0.0,-1.3193,-1.3242,-1.3359,-1.3763,-1.4072,-1.4385,-1.4777,-1.5088,-1.5429,-1.5989,-1.7098,-1.8228,-1.9264,-1.9739,-1.9985,-1.9985,-2.015,-2.0365,-2.0632,-2.0925,-2.1302,-2.1824,-2.244,-2.3212,-2.4292,-2.5289,-2.614,-2.6735,-2.7012,-2.724,-2.7419,-2.736,-2.7437,-2.7649,-2.8015,-2.8237,-2.8357,-2.8834,-2.8973,-2.8855,-2.8855,-2.8855,-2.8855,-2.9064,-2.9131,-2.9145,-2.9079,-2.8882,-2.8697,-2.8367,-2.8195,-2.8151,-2.8256,-2.8369,-2.8567,-2.9176,-2.9581,-2.9846,-3.0026,-3.0044,-2.9943,-2.984,-2.9612,-2.9393,-2.9244,-2.8956,-2.8712,-2.8828,-2.8609,-2.8481,-2.8723,-2.8645,-2.8473,-2.8219,-2.8172,-2.8078,-2.7982,-2.8135,-2.8291,-2.8291,-2.8291,-2.8291,-2.8291,-2.7773,-2.7295,-2.7041,-2.6475,-2.6016,-2.5713,-2.5693,-2.5693,-2.5693,-2.5693,-2.5693,-2.5693,-2.5693,-2.5693,-2.5693,-2.5693,-2.5693,-2.5693,-2.5312,-2.4979,-2.4811,-2.5257,-2.5612,0.0,0.0,0.0,-1.2905,-1.2905,0.0,-1.2905,-1.2905,-1.2988,-1.3359,-1.3437,-1.3564,-1.3958,-1.4036,-1.4182,-1.4648,-1.5029,-1.5841,-1.746,-1.8449,-1.9016,-1.9016,-1.9324,-1.9596,-1.9696,-1.9706,-1.9917,-2.0441,-2.0888,-2.1729,-2.3077,-2.3845,-2.4577,-2.5229,-2.5793,-2.6201,-2.643,-2.6236,-2.6355,-2.6813,-2.7029,-2.7378,-2.7775,-2.8182,-2.8391,-2.8351,-2.8351,-2.8339,-2.8311,-2.8139,-2.8287,-2.8645,-2.8419,-2.8219,-2.7966,-2.751,-2.7226,-2.7021,-2.6839,-2.6872,-2.7062,-2.7117,-2.7719,-2.8422,-2.8308,-2.8514,-2.8773,-2.8574,-2.842,-2.8254,-2.8254,-2.7904,-2.7687,-2.834,-2.8116,-2.7902,-2.8539,-2.8461,-2.8344,-2.8631,-2.8461,-2.8291,-2.8291,-2.8291,-2.8291,-2.8291,-2.8291,-2.8291,-2.8291,-2.7588,-2.707,-2.7021,-2.6289,-2.5742,-2.5693,-2.5693,-2.5693,-2.5693,-2.5693,-2.5693,-2.5693,-2.5693,-2.5693,-2.5693,-2.5693,-2.5693,-2.5693,-2.5283,-2.5014,-2.4825,-2.5234,-2.5533,-1.2905,-1.2905,-1.2905,-1.2905,-1.2905,0.0,-1.2905,-1.2905,-1.2925,-1.3013,-1.3023,-1.3135,-1.3555,-1.3633,-1.3743,-1.4163,-1.4299,-1.4834,-1.6245,-1.6894,-1.7206,-1.7206,-1.7275,-1.7599,-1.8296,-1.8355,-1.8784,-1.971,-2.0468,-2.1278,-2.2208,-2.2988,-2.3919,-2.5028,-2.5347,-2.5641,-2.6002,-2.5828,-2.5702,-2.5658,-2.638,-2.6619,-2.6432,-2.7292,-2.7603,-2.747,-2.747,-2.736,-2.7219,-2.7179,-2.7412,-2.7713,-2.751,-2.7185,-2.6816,-2.6569,-2.631,-2.6102,-2.5863,-2.5676,-2.5689,-2.6045,-2.6183,-2.6361,-2.7062,-2.7175,-2.7148,-2.7411,-2.7468,-2.7384,-2.7241,-2.7146,-2.7122,-2.7533,-2.7541,-2.7637,-2.8265,-2.8344,-2.8291,-2.8354,-2.8344,-2.8291,-2.8291,-2.8291,-2.8291,-2.8291,-2.8291,-2.8291,-2.8291,-2.7851,-2.7402,-2.7051,-2.6562,-2.6123,-2.5713,-2.5693,-2.5693,-2.5693,-2.5693,-2.5693,-2.5693,-2.5693,-2.5693,-2.5693,-2.5693,-2.5693,-2.5693,-2.5283,-2.5067,-2.5026,-2.4961,-2.494,-1.2905,-1.2905,-1.2905,-1.2905,-1.2905,0.0,0.0,-1.2905,-1.2905,-1.2905,-1.2905,-1.2964,-1.3154,-1.3193,-1.3262,-1.3477,-1.3656,-1.4053,-1.4697,-1.5352,-1.584,-1.6015,-1.6269,-1.665,-1.7272,-1.734,-1.7792,-1.8854,-1.9722,-2.0498,-2.1195,-2.1884,-2.2802,-2.4048,-2.446,-2.4942,-2.5606,-2.5312,-2.5052,-2.4874,-2.5259,-2.5429,-2.5383,-2.6074,-2.6438,-2.6539,-2.6404,-2.6279,-2.6177,-2.5999,-2.5946,-2.6049,-2.6268,-2.6113,-2.5684,-2.5432,-2.5221,-2.5031,-2.4914,-2.47,-2.455,-2.4767,-2.4928,-2.5118,-2.5616,-2.5977,-2.6288,-2.6737,-2.6764,-2.662,-2.6524,-2.638,-2.6465,-2.705,-2.7206,-2.739,-2.8158,-2.8291,-2.8291,-2.8291,-2.8291,-2.8291,-2.8291,-2.8291,-2.8291,-2.8291,-2.8115,-2.7978,-2.7978,-2.7422,-2.6943,-2.6728,-2.6318,-2.5977,-2.5703,-2.5693,-2.5693,-2.5693,-2.5693,-2.5693,-2.5693,-2.5693,-2.5693,-2.5693,-2.5693,-2.5693,-2.5693,-2.5518,-2.54,-2.54,-2.5281,-2.5277,-1.3125,-1.3125,-1.3105,-1.3018,-1.3023,-1.3003,0.0,0.0,0.0,-1.2905,-1.2905,-1.2905,-1.2905,-1.2905,-1.2905,-1.2905,-1.3164,-1.3389,-1.3389,-1.3984,-1.46,-1.5079,-1.5478,-1.5898,-1.6395,-1.6599,-1.7054,-1.7939,-1.8666,-1.9389,-2.0102,-2.0652,-2.1527,-2.2802,-2.3432,-2.4097,-2.4838,-2.4565,-2.4312,-2.4059,-2.4063,-2.4183,-2.4432,-2.4773,-2.5189,-2.5633,-2.5411,-2.5285,-2.52,-2.4914,-2.4605,-2.438,-2.4978,-2.5031,-2.4647,-2.4466,-2.4219,-2.4077,-2.4077,-2.3894,-2.3667,-2.3667,-2.4027,-2.4501,-2.4501,-2.5075,-2.5844,-2.6252,-2.6207,-2.6004,-2.6004,-2.5868,-2.5908,-2.6807,-2.7012,-2.7246,-2.8105,-2.8291,-2.8291,-2.8291,-2.8291,-2.8291,-2.8291,-2.8223,-2.8174,-2.8174,-2.7812,-2.7591,-2.7591,-2.6865,-2.6387,-2.6387,-2.5996,-2.5693,-2.5693,-2.5693,-2.5693,-2.5693,-2.5693,-2.5723,-2.581,-2.5888,-2.5898,-2.5859,-2.581,-2.5771,-2.5693,-2.5693,-2.5693,-2.5693,-2.5693,-2.5693,-1.3968,-1.3968,-1.387,-1.3525,-1.3437,-1.334,-1.2993,0.0,-1.2905,-1.2905,0.0,-1.2905,-1.2905,0.0,0.0,-1.2905,-1.2944,-1.2974,-1.2974,-1.3062,-1.3389,-1.4153,-1.4289,-1.464,-1.5459,-1.6239,-1.6736,-1.6875,-1.7155,-1.7735,-1.8775,-1.932,-2.0236,-2.1555,-2.2371,-2.2911,-2.3181,-2.3369,-2.325,-2.2889,-2.315,-2.3281,-2.3396,-2.3835,-2.4284,-2.4669,-2.4627,-2.4509,-2.4325,-2.4282,-2.4024,-2.3667,-2.4153,-2.4196,-2.3927,-2.3884,-2.3754,-2.359,-2.359,-2.3406,-2.3178,-2.3178,-2.3736,-2.4392,-2.4392,-2.5008,-2.5722,-2.5771,-2.5781,-2.5732,-2.5732,-2.5732,-2.5908,-2.6807,-2.7012,-2.7246,-2.8105,-2.8291,-2.8291,-2.8291,-2.8291,-2.8291,-2.8291,-2.7988,-2.7787,-2.7787,-2.7373,-2.709,-2.709,-2.668,-2.6387,-2.6387,-2.5996,-2.5693,-2.5693,-2.5693,-2.5693,-2.5693,-2.5693,-2.5908,-2.6299,-2.667,-2.6689,-2.6328,-2.6318,-2.6123,-2.5693,-2.5693,-2.5693,-2.5693,-2.5693,-2.5693,-1.4104,-1.4104,-1.4065,-1.389,-1.3665,-1.3467,-1.3281,-1.3057,-1.2905,-1.2905,0.0,0.0,0.0,0.0,0.0,0.0,-1.2905,-1.2905,-1.2905,-1.2905,-1.3105,-1.3675,-1.3743,-1.3977,-1.4582,-1.5206,-1.5703,-1.5917,-1.6293,-1.683,-1.7648,-1.8234,-1.9027,-2.009,-2.1008,-2.1736,-2.2197,-2.2466,-2.2478,-2.2176,-2.2157,-2.2267,-2.2452,-2.288,-2.3328,-2.3766,-2.3849,-2.3884,-2.3764,-2.3634,-2.345,-2.3276,-2.3493,-2.3493,-2.3396,-2.3396,-2.3363,-2.3276,-2.3276,-2.3188,-2.3091,-2.3091,-2.351,-2.4102,-2.4346,-2.4853,-2.54,-2.5615,-2.5693,-2.5693,-2.5693,-2.5693,-2.584,-2.6504,-2.6836,-2.7187,-2.7793,-2.8125,-2.8291,-2.8291,-2.8291,-2.8213,-2.7969,-2.7836,-2.763,-2.7324,-2.6924,-2.665,-2.665,-2.6279,-2.6006,-2.6006,-2.5801,-2.5693,-2.5693,-2.5693,-2.5693,-2.5693,-2.5977,-2.6309,-2.6738,-2.6924,-2.6934,-2.6758,-2.6758,-2.6543,-2.6113,-2.6113,-2.5986,-2.5693,-2.5693,-2.5693,-1.4455,-1.4455,-1.4426,-1.4309,-1.4082,-1.3828,-1.3685,-1.3447,-1.3193,-1.3101,-1.3047,0.0,0.0,0.0,-1.2905,-1.2905,0.0,-1.2905,-1.2905,-1.2905,-1.3023,-1.3301,-1.3437,-1.3597,-1.3909,-1.4328,-1.4736,-1.5011,-1.5469,-1.5988,-1.6523,-1.7256,-1.7983,-1.8726,-1.9882,-2.0694,-2.1219,-2.163,-2.1769,-2.154,-2.1397,-2.1485,-2.173,-2.2129,-2.2567,-2.3006,-2.3262,-2.3406,-2.3363,-2.3188,-2.3091,-2.3091,-2.3091,-2.3091,-2.3091,-2.3091,-2.3091,-2.3091,-2.3091,-2.3091,-2.311,-2.3237,-2.3613,-2.4043,-2.4463,-2.4902,-2.5322,-2.5596,-2.5693,-2.5693,-2.5693,-2.5693,-2.5801,-2.6279,-2.6709,-2.7139,-2.762,-2.7998,-2.8291,-2.8291,-2.8291,-2.8164,-2.7796,-2.7568,-2.7344,-2.6904,-2.6484,-2.6211,-2.6211,-2.5937,-2.5693,-2.5693,-2.5693,-2.5693,-2.5693,-2.5693,-2.5742,-2.5859,-2.6318,-2.6748,-2.7178,-2.7305,-2.7314,-2.7197,-2.7197,-2.6982,-2.6562,-2.6562,-2.6338,-2.5869,-2.5742,-2.5693,-1.5371,-1.5371,-1.5273,-1.4863,-1.4784,-1.4629,-1.4182,-1.4075,-1.3948,-1.3574,-1.3486,-1.3359,-1.2983,-1.2905,-1.2905,0.0,-1.2905,0.0,0.0,-1.2905,-1.2905,-1.2925,-1.3262,-1.3516,-1.3525,-1.388,-1.4133,-1.4143,-1.458,-1.501,-1.543,-1.6454,-1.7221,-1.7648,-1.9123,-1.9933,-1.9944,-2.081,-2.1138,-2.0945,-2.0906,-2.1017,-2.125,-2.173,-2.2161,-2.2539,-2.2959,-2.3091,-2.3091,-2.3091,-2.3091,-2.3091,-2.3091,-2.3091,-2.3091,-2.3091,-2.3091,-2.3091,-2.3091,-2.3091,-2.3169,-2.3633,-2.4053,-2.4473,-2.4959,-2.5361,-2.5674,-2.5684,-2.5693,-2.5693,-2.5693,-2.5693,-2.5801,-2.6279,-2.6709,-2.7139,-2.762,-2.7998,-2.8291,-2.8291,-2.8291,-2.8164,-2.7796,-2.7314,-2.6894,-2.6475,-2.6035,-2.5713,-2.5713,-2.5693,-2.5693,-2.5693,-2.5693,-2.5693,-2.5693,-2.5693,-2.5869,-2.6338,-2.6768,-2.7197,-2.7679,-2.8037,-2.8057,-2.7708,-2.7699,-2.7432,-2.6992,-2.6992,-2.6777,-2.6357,-2.5937,-2.5693,-1.541,-1.541,-1.5381,-1.5234,-1.499,-1.4774,-1.46,-1.4309,-1.4065,-1.3929,-1.3899,-1.3763,-1.3369,-1.3301,0.0,0.0,0.0,-1.2905,0.0,-1.2905,-1.2905,-1.2905,-1.3032,-1.3096,-1.3096,-1.3223,-1.3418,-1.3675,-1.4094,-1.4541,-1.4971,-1.6154,-1.686,-1.6998,-1.8331,-1.9183,-1.9505,-2.0051,-2.0436,-2.0693,-2.0693,-2.0732,-2.081,-2.125,-2.1689,-2.2119,-2.2539,-2.2838,-2.3091,-2.3091,-2.3091,-2.3091,-2.3091,-2.3091,-2.3091,-2.3091,-2.3091,-2.3091,-2.3091,-2.3286,-2.3594,-2.374,-2.4268,-2.4873,-2.5067,-2.5381,-2.5693,-2.5693,-2.5693,-2.5693,-2.5693,-2.5693,-2.5723,-2.5918,-2.6289,-2.6719,-2.7139,-2.7578,-2.7959,-2.8242,-2.8291,-2.8164,-2.7796,-2.7591,-2.7305,-2.6865,-2.6445,-2.6172,-2.6172,-2.5869,-2.5693,-2.5693,-2.5693,-2.5693,-2.5693,-2.6006,-2.6348,-2.6777,-2.7207,-2.7637,-2.8066,-2.8223,-2.8223,-2.8086,-2.8086,-2.7871,-2.7441,-2.7441,-2.7226,-2.6797,-2.665,-2.623,-1.5684,-1.5644,-1.5605,-1.5449,-1.5205,-1.501,-1.501,-1.4785,-1.4523,-1.4367,-1.4338,-1.4211,-1.3782,-1.3613,-1.3418,0.0,0.0,0.0,0.0,-1.2905,-1.2905,-1.2905,-1.2905,-1.2905,-1.2905,-1.2905,-1.3023,-1.3262,-1.3792,-1.4231,-1.4531,-1.5907,-1.6697,-1.6697,-1.7935,-1.8848,-1.9287,-1.9707,-2.0137,-2.0605,-2.0605,-2.0605,-2.0625,-2.1191,-2.1621,-2.1924,-2.249,-2.2847,-2.3091,-2.3091,-2.3091,-2.3091,-2.3091,-2.3091,-2.3091,-2.3091,-2.3091,-2.312,-2.3276,-2.3555,-2.3838,-2.4141,-2.4619,-2.5145,-2.5254,-2.5508,-2.5693,-2.5693,-2.5693,-2.5693,-2.5693,-2.5693,-2.5693,-2.5693,-2.6074,-2.6504,-2.6924,-2.7363,-2.7845,-2.8213,-2.8291,-2.8203,-2.7939,-2.7891,-2.7695,-2.71,-2.6787,-2.6562,-2.6406,-2.6143,-2.5908,-2.5703,-2.5693,-2.5752,-2.5908,-2.623,-2.6631,-2.7207,-2.751,-2.7851,-2.8271,-2.8291,-2.8291,-2.8291,-2.8291,-2.8164,-2.7891,-2.7891,-2.7666,-2.7246,-2.7246,-2.6865]},{"header":{"parameterUnit":"m.s-1","parameterCategory":1,"la1":30.6,"la2":29.2853,"lo1":-89.7004,"lo2":-87.6739,"dy":0.0162,"dx":0.0183,"nx":112,"ny":82,"refTime":"2023-09-04T00:00:00:Z","depth":0,"parameterNumber":3,"parameterNumberName":"V-component_of_WINDS"},"data":[0.0,0.0,0.0,0.0,0.0,0.0,0.0,0.0,0.0,0.0,0.0,0.0,0.0,0.0,0.0,0.0,0.0,0.0,0.0,0.0,0.0,0.0,0.0,0.0,0.0,0.0,0.0,0.0,0.0,0.0,0.0,0.0,0.0,0.0,0.0,0.0,0.0,0.0,0.0,0.0,0.0,0.0,0.0,0.0,0.0,0.0,0.0,0.0,0.0,0.0,0.0,0.0,0.0,0.0,0.0,0.0,0.0,0.0,0.0,0.0,0.0,0.0,0.0,0.0,0.0,0.0,0.0,0.0,0.0,0.0,0.0,0.0,0.0,0.0,0.0,0.0,0.0,0.0,0.0,0.0,0.0,0.0,0.0,0.0,0.0,0.0,0.0,0.0,0.0,0.0,1.0193,1.0994,1.2359,1.3428,1.4053,1.2562,1.1648,1.171,0.0,0.0,0.0,0.0,0.0,0.0,0.0,0.0,0.0,0.0,0.0,0.0,0.0,0.0,0.0,0.0,0.0,0.0,0.0,0.0,0.0,0.0,0.0,0.0,0.0,0.0,0.0,0.0,0.0,0.0,0.0,0.0,0.0,0.0,0.0,0.0,0.0,0.0,0.0,0.0,0.0,0.0,0.0,0.0,0.0,0.0,0.0,0.0,0.0,0.0,0.0,0.0,0.0,0.0,0.0,0.0,0.0,0.0,0.0,0.0,0.0,0.0,0.0,0.0,0.0,0.0,0.0,0.0,0.0,0.0,0.0,0.0,0.0,0.0,0.0,0.0,0.0,0.0,0.0,0.0,0.0,0.0,0.0,0.0,0.0,0.0,0.0,0.0,0.0,0.0,0.0,0.0,0.0,0.0,0.0,0.0,0.0,0.0,0.0,0.0,0.0,0.0,0.0,0.0,1.0645,1.2609,1.3048,1.3428,1.4053,1.2623,1.171,1.1784,0.0,0.0,0.0,0.0,0.0,0.0,0.0,0.0,0.0,0.0,0.0,0.0,0.0,0.0,0.0,0.0,0.0,0.0,0.0,0.0,0.0,0.0,0.0,0.0,0.0,0.0,0.0,0.0,0.0,0.0,0.0,0.0,0.0,0.0,0.0,0.0,0.0,0.0,0.0,0.0,0.0,0.0,0.0,0.0,0.0,0.0,0.0,0.0,0.0,0.0,0.0,0.0,0.0,0.0,0.0,0.0,0.0,0.0,0.0,0.0,0.0,0.0,0.0,0.0,0.0,0.0,0.0,0.0,0.0,0.0,0.0,0.0,0.0,0.0,0.0,0.0,0.0,0.0,0.0,0.0,0.0,0.0,0.0,0.0,0.0,0.0,0.0,0.0,0.0,0.0,0.0,0.0,0.0,0.0,0.0,0.0,0.0,0.0,0.0,0.0,0.0,0.0,0.0,1.0673,1.1565,1.3488,1.3403,1.3428,1.4053,1.2639,1.174,1.1859,1.0925,0.0,0.0,0.0,0.0,0.0,0.0,0.0,0.0,0.0,0.0,0.0,0.0,0.0,0.0,0.0,0.0,0.0,0.0,0.0,0.0,0.0,0.0,0.0,0.0,0.0,0.0,0.0,0.0,0.0,0.0,0.0,0.0,0.0,0.0,0.0,0.0,0.0,0.0,0.0,0.0,0.0,0.0,0.0,0.0,0.0,0.0,0.0,0.0,0.0,0.0,0.0,0.0,0.0,0.0,0.0,0.0,0.0,0.0,0.0,0.0,0.0,0.0,0.0,0.0,0.0,0.0,0.0,0.0,0.0,0.0,0.0,0.0,0.0,0.0,0.0,0.0,0.0,0.0,0.0,0.0,0.0,0.0,0.0,0.0,0.0,0.0,0.0,0.0,0.0,0.0,0.0,0.0,0.0,0.0,0.0,0.0,0.0,0.0,0.0,0.0,0.0,0.0,1.1701,1.2382,1.3921,1.3559,1.3391,1.3858,1.2551,1.1721,1.1711,1.103,0.0,0.0,0.0,0.0,0.0,0.0,0.0,0.0,0.0,0.0,0.0,0.0,0.0,0.0,0.0,0.0,0.0,0.0,0.0,0.0,0.0,0.0,0.0,0.0,0.0,0.0,0.0,0.0,0.0,0.0,0.0,0.0,0.0,0.0,0.0,0.0,0.0,0.0,0.0,0.0,0.0,0.0,0.0,0.0,0.0,0.0,0.0,0.0,0.0,0.0,0.0,0.0,0.0,0.0,0.0,0.0,0.0,0.0,0.0,0.0,0.0,0.0,0.0,0.0,0.0,0.0,0.0,0.0,0.0,0.0,0.0,0.0,0.0,0.0,0.0,0.0,0.0,0.0,0.0,0.0,0.0,0.0,0.0,0.0,0.0,0.0,0.0,0.0,0.0,0.0,0.0,0.0,0.0,0.0,0.0,0.0,0.0,0.0,0.0,0.0,0.0,0.0,1.204,1.2793,1.3959,1.3559,1.3223,1.3248,1.2367,1.1614,1.1185,1.0919,0.0,0.0,0.0,0.0,0.0,0.0,0.0,0.0,0.0,0.0,0.0,0.0,0.0,0.0,0.0,0.0,0.0,0.0,0.0,0.0,0.0,0.0,0.0,0.0,0.0,0.0,0.0,0.0,0.0,0.0,0.0,0.0,0.0,0.0,0.0,0.0,0.0,0.0,0.0,0.0,0.0,0.0,0.0,0.0,0.0,0.0,0.0,0.0,0.0,0.0,0.0,0.0,0.0,0.0,0.0,0.0,0.0,0.0,0.0,0.0,0.0,0.0,0.0,0.0,0.0,0.0,0.0,0.0,0.0,0.0,0.0,0.0,0.0,0.0,0.0,0.0,0.0,0.0,0.0,0.0,0.0,0.0,0.0,0.0,0.0,0.0,0.0,0.0,0.0,0.0,0.0,0.0,0.0,0.0,0.0,0.0,0.0,0.0,0.0,0.0,0.0,0.0,1.2278,1.2693,1.3458,1.3027,1.2701,1.2701,1.1837,1.1242,1.1107,0.0,0.0,0.0,0.0,0.0,0.0,0.0,0.0,0.0,0.0,0.0,0.0,0.0,0.0,0.0,0.0,0.0,0.0,0.0,0.0,0.0,0.0,0.0,0.0,0.0,0.0,0.0,0.0,0.0,0.0,0.0,0.0,0.0,0.0,0.0,0.0,0.0,0.0,0.0,0.0,0.0,0.0,0.0,0.0,0.0,0.0,0.0,0.0,0.0,0.0,0.0,0.0,0.0,0.0,0.0,0.0,0.0,0.0,0.0,0.0,0.0,0.0,0.0,0.0,0.0,0.0,0.0,0.0,0.0,0.0,0.0,0.0,0.0,0.0,0.0,0.0,0.0,0.0,0.0,0.0,0.0,0.0,0.0,0.0,0.0,0.0,0.0,0.0,0.0,0.0,0.0,0.0,0.0,0.0,0.0,0.0,0.0,0.0,0.0,0.0,0.0,0.0,1.235,1.2551,1.2801,1.316,1.2726,1.2341,1.2165,1.1403,1.0906,1.082,0.0,0.0,0.0,0.0,0.0,0.0,0.0,0.0,0.0,0.0,0.0,0.0,0.0,0.0,0.0,0.0,0.0,0.0,0.0,0.0,0.0,0.0,0.0,0.0,0.0,0.0,0.0,0.0,0.0,0.0,0.0,0.0,0.0,0.0,0.0,0.0,0.0,0.0,0.0,0.0,0.0,0.0,0.0,0.0,0.0,0.0,0.0,0.0,0.0,0.0,0.0,0.0,0.0,0.0,0.0,0.0,0.0,0.0,0.0,0.0,0.0,0.0,0.0,0.0,0.0,0.0,0.0,0.0,0.0,0.0,0.0,0.0,0.0,0.0,0.0,0.0,0.0,0.0,0.0,0.0,0.0,0.0,0.0,0.0,0.0,0.0,0.0,0.0,0.0,0.0,0.0,0.0,0.0,0.0,0.0,0.0,0.0,0.0,0.0,0.0,0.0,0.0,1.24,1.286,1.3198,1.3198,1.2714,1.2178,1.1653,1.1105,1.0631,0.0,0.0,0.0,0.0,0.0,0.0,0.0,0.0,0.0,0.0,0.0,0.0,0.0,0.0,0.0,0.0,0.0,0.0,0.0,0.0,0.0,0.0,0.0,0.0,0.0,0.0,0.0,0.0,0.0,0.0,0.0,0.0,0.0,0.0,0.0,0.0,0.0,0.0,0.0,0.0,0.0,0.0,0.0,0.0,0.0,0.0,0.0,0.0,0.0,0.0,0.0,0.0,0.0,0.0,0.0,0.0,0.0,0.0,0.0,0.0,0.0,0.0,0.0,0.0,0.0,0.0,0.0,0.0,0.0,0.0,0.0,0.0,0.0,0.0,0.0,0.0,0.0,0.0,0.0,0.0,0.0,0.0,0.0,0.0,0.0,0.0,0.0,0.0,0.0,0.0,0.0,0.0,0.0,0.0,0.0,0.0,0.0,0.0,0.0,0.0,0.0,0.0,0.0,1.296,1.3098,1.3198,1.3198,1.2375,1.1779,1.1615,1.1105,1.081,1.0832,0.0,0.0,0.0,0.0,0.0,0.0,0.0,0.0,0.0,0.0,0.0,0.0,0.0,0.0,0.0,0.0,0.0,0.0,0.0,0.0,0.0,0.0,0.0,0.0,0.0,0.0,0.0,0.0,0.0,0.0,0.0,0.0,0.0,0.0,0.0,0.0,0.0,0.0,0.0,0.0,0.0,0.0,0.0,0.0,0.0,0.0,0.0,0.0,0.0,0.0,0.0,0.0,0.0,0.0,0.0,0.0,0.0,0.0,0.0,0.0,0.0,0.0,0.0,0.0,0.0,0.0,0.0,0.0,0.0,0.0,0.0,0.0,0.0,0.0,0.0,0.0,0.0,0.0,0.0,0.0,0.0,0.0,0.0,0.0,0.0,0.0,0.0,0.0,0.0,0.0,0.0,0.0,0.0,0.0,0.0,0.0,0.0,0.0,0.0,0.0,0.0,0.0,1.3198,1.3198,1.3198,1.3198,1.2425,1.1914,1.1914,1.1429,1.1189,1.1372,0.0,0.0,0.0,0.0,0.0,0.0,0.0,0.0,0.0,0.0,0.0,0.0,0.0,0.0,0.0,0.0,0.0,0.0,0.0,0.0,0.0,0.0,0.0,0.0,0.0,0.0,0.0,0.0,0.0,0.0,0.0,0.0,0.0,0.0,0.0,0.0,0.0,0.0,0.0,0.0,0.0,0.0,0.0,0.0,0.0,0.0,0.0,0.0,0.0,0.0,0.0,0.0,0.0,0.0,0.0,0.0,0.0,0.0,0.0,0.0,0.0,0.0,0.0,0.0,0.0,0.0,0.0,0.0,0.0,0.0,0.0,0.0,0.0,0.0,0.0,0.0,0.0,0.0,0.0,0.0,0.0,0.0,0.0,0.0,0.0,0.0,0.0,0.0,0.0,0.0,0.0,0.0,0.0,0.0,0.0,0.0,0.0,0.0,0.0,0.0,0.0,0.0,1.321,1.3198,1.3198,1.3198,1.2726,1.24,1.24,1.1952,1.1739,1.1861,0.0,0.0,0.0,0.0,0.0,0.0,0.0,0.0,0.0,0.0,0.0,0.0,0.0,0.0,0.0,0.0,0.0,0.0,0.0,0.0,0.0,0.0,0.0,0.0,0.0,0.0,0.0,0.0,0.0,0.0,0.0,0.0,0.0,0.0,0.0,0.0,0.0,0.0,0.0,0.0,0.0,0.0,0.0,0.0,0.0,0.0,0.0,0.0,0.0,0.0,0.0,0.0,0.0,0.0,0.0,0.0,0.0,0.0,0.0,0.0,1.7954,1.7454,0.0,0.0,0.0,0.0,0.0,0.0,0.0,0.0,0.0,0.0,0.0,0.0,0.0,0.0,0.0,0.0,0.0,0.0,0.0,0.0,0.0,0.0,0.0,0.0,0.0,0.0,0.0,0.0,0.0,0.0,0.0,0.0,0.0,0.0,0.0,0.0,0.0,0.0,0.0,0.0,1.3248,1.3198,1.3198,1.3198,1.2726,1.24,1.24,1.2303,1.226,1.2355,1.2926,0.0,0.0,0.0,0.0,0.0,0.0,0.0,0.0,0.0,0.0,0.0,0.0,0.0,0.0,0.0,0.0,0.0,0.0,0.0,0.0,0.0,0.0,0.0,0.0,0.0,0.0,0.0,0.0,0.0,0.0,0.0,0.0,0.0,0.0,0.0,0.0,0.0,0.0,0.0,0.0,0.0,0.0,0.0,0.0,0.0,0.0,0.0,0.0,0.0,0.0,0.0,0.0,0.0,0.0,0.0,0.0,0.0,0.0,0.0,1.9609,1.9122,0.0,0.0,0.0,0.0,0.0,0.0,0.0,0.0,0.0,0.0,0.0,0.0,0.0,0.0,0.0,0.0,0.0,0.0,0.0,0.0,0.0,0.0,0.0,0.0,0.0,0.0,0.0,0.0,0.0,0.0,0.0,0.0,0.0,0.0,0.0,0.0,0.0,0.0,0.0,0.0,1.3715,1.3622,1.3521,1.3223,1.2947,1.2789,1.2789,1.2789,1.2822,1.2926,1.3293,0.0,0.0,0.0,0.0,0.0,0.0,0.0,0.0,0.0,0.0,0.0,0.0,0.0,0.0,0.0,0.0,0.0,0.0,0.0,0.0,0.0,0.0,0.0,0.0,0.0,0.0,0.0,0.0,0.0,0.0,0.0,0.0,0.0,0.0,0.0,0.0,0.0,0.0,0.0,0.0,0.0,0.0,0.0,0.0,0.0,0.0,0.0,0.0,0.0,0.0,0.0,0.0,0.0,2.233,2.2183,2.2034,2.2034,2.2108,2.2177,2.1795,2.1448,2.1132,2.0471,0.0,0.0,0.0,0.0,0.0,0.0,0.0,0.0,0.0,0.0,0.0,0.0,0.0,0.0,0.0,0.0,0.0,0.0,0.0,0.0,0.0,0.0,1.6829,1.7098,1.7053,1.6692,1.5696,0.0,0.0,0.0,0.0,0.0,0.0,0.0,0.0,0.0,0.0,0.0,1.4299,1.4242,1.4022,1.3416,1.3366,1.3315,1.321,1.3198,1.325,1.3357,1.3391,1.3506,0.0,0.0,0.0,0.0,0.0,0.0,0.0,0.0,0.0,0.0,0.0,0.0,0.0,0.0,0.0,0.0,0.0,0.0,0.0,0.0,0.0,0.0,0.0,0.0,0.0,0.0,0.0,0.0,0.0,0.0,0.0,0.0,1.9321,1.9176,0.0,0.0,0.0,0.0,0.0,0.0,0.0,0.0,0.0,0.0,0.0,0.0,0.0,2.3142,2.3142,2.4176,2.4613,2.4419,2.4182,2.3972,2.3787,2.3787,2.3787,2.3802,2.4023,0.0,2.1908,2.1285,0.0,0.0,0.0,0.0,0.0,0.0,0.0,0.0,0.0,0.0,0.0,0.0,0.0,0.0,0.0,0.0,0.0,0.0,0.0,0.0,0.0,0.0,1.8224,1.8208,1.8095,1.7976,1.7802,1.6999,1.63,1.6375,1.6387,1.6387,0.0,0.0,0.0,0.0,0.0,0.0,1.4865,1.4783,1.4588,1.4035,1.3972,1.3765,1.3235,1.3198,1.3215,1.3232,1.334,1.3425,1.3442,1.35,0.0,0.0,0.0,0.0,0.0,0.0,0.0,0.0,0.0,0.0,0.0,0.0,0.0,0.0,0.0,0.0,0.0,0.0,0.0,0.0,0.0,0.0,0.0,0.0,0.0,0.0,0.0,0.0,0.0,1.9753,1.9637,1.9804,1.9679,1.9474,0.0,0.0,0.0,0.0,0.0,0.0,0.0,0.0,0.0,2.3373,2.4237,2.4835,2.5124,2.5972,2.6303,2.6159,2.602,2.5881,2.5678,2.5678,2.5722,2.5862,2.5989,2.5506,2.4491,2.2925,2.227,2.2174,0.0,0.0,0.0,0.0,2.1248,2.1383,2.1428,2.1518,2.1557,2.1144,0.0,0.0,0.0,0.0,0.0,0.0,0.0,1.8554,1.8296,1.8329,1.8427,1.8309,1.8251,1.8204,1.8204,1.7815,1.7375,1.7061,1.6999,1.6898,1.655,1.65,0.0,0.0,0.0,1.5957,1.5424,1.5349,1.5148,1.4614,1.4292,1.3984,1.3727,1.3391,1.3198,1.3198,1.3267,1.3323,1.3408,1.3748,1.3954,0.0,0.0,0.0,0.0,0.0,0.0,0.0,0.0,0.0,0.0,0.0,0.0,0.0,0.0,0.0,0.0,0.0,0.0,0.0,0.0,0.0,0.0,0.0,0.0,0.0,0.0,0.0,0.0,2.012,2.0182,2.0376,2.0343,2.0261,0.0,0.0,0.0,0.0,0.0,0.0,2.3098,2.3596,2.4313,2.5309,2.5935,2.6427,2.6821,2.7411,2.7627,2.7516,2.7516,2.74,2.7201,2.7201,2.7283,2.7434,2.7468,2.734,2.69,2.4681,2.3672,2.3432,2.239,2.2015,2.2119,2.2156,2.2245,2.2394,2.2508,2.2512,2.2432,2.189,2.1448,2.0984,2.0128,0.0,0.0,0.0,0.0,1.9015,1.9,1.9104,1.9118,1.8894,1.8832,1.8794,1.8643,1.8618,1.8405,1.7727,1.7498,1.7272,1.681,1.6588,0.0,1.65,1.65,1.635,1.5957,1.5906,1.5693,1.516,1.4752,1.445,1.433,1.3885,1.3629,1.3629,1.3629,1.3682,1.3788,1.4163,1.4397,1.4452,0.0,0.0,0.0,0.0,0.0,0.0,0.0,0.0,0.0,0.0,0.0,0.0,0.0,0.0,0.0,0.0,0.0,0.0,0.0,0.0,0.0,0.0,0.0,0.0,0.0,0.0,0.0,0.0,0.0,2.0441,2.0655,0.0,0.0,0.0,0.0,2.2734,2.3819,2.4617,2.5039,2.5627,2.6202,2.6764,2.7387,2.7707,2.7732,2.827,2.8479,2.8337,2.8337,2.8216,2.8021,2.8021,2.8058,2.8058,2.8252,2.8324,2.8157,2.633,2.5222,2.4649,2.4021,2.3758,2.3787,2.3932,2.399,2.4034,2.4336,2.4088,2.362,2.3647,2.2724,2.1405,2.0614,1.9956,0.0,0.0,1.9547,2.0028,2.048,2.0955,2.1219,2.0691,2.0566,2.0415,1.9836,1.9723,1.9409,1.8367,1.7739,1.7398,1.7373,0.0,1.65,1.65,1.65,1.6488,1.645,1.645,1.6237,1.5718,1.563,1.5412,1.4896,1.4821,1.4808,1.4808,1.4808,1.4828,1.4828,1.4853,1.4865,1.4865,1.4442,0.0,0.0,0.0,0.0,0.0,0.0,0.0,0.0,0.0,0.0,0.0,0.0,0.0,0.0,0.0,0.0,0.0,0.0,0.0,0.0,0.0,0.0,0.0,0.0,0.0,0.0,0.0,0.0,2.275,2.3095,0.0,2.3773,2.4351,2.4725,2.4747,2.6133,2.7014,2.7056,2.7952,2.8582,2.8772,2.8974,2.9088,2.9088,2.9277,2.9341,2.9315,2.9315,2.9277,2.9189,2.9189,2.9189,2.9189,2.9277,2.9063,2.8661,2.8035,2.7334,2.6675,2.6077,2.5833,2.5846,2.5865,2.5729,2.5532,2.5657,2.5371,2.4859,2.4079,2.3124,2.2177,2.1449,2.1088,2.0882,2.0709,2.0833,2.0995,2.1169,2.137,2.1443,2.127,2.0943,2.0629,2.0427,2.0062,1.9698,1.9309,1.8807,1.8329,1.7978,1.7451,1.7074,1.7074,1.676,1.65,1.65,1.65,1.6425,1.6245,1.5906,1.5618,1.5437,1.5097,1.4896,1.4896,1.4896,1.4896,1.4896,1.5236,1.5412,1.5412,1.5243,1.5162,0.0,0.0,0.0,0.0,0.0,0.0,0.0,0.0,0.0,0.0,0.0,0.0,0.0,0.0,0.0,0.0,0.0,0.0,0.0,0.0,0.0,0.0,0.0,0.0,0.0,2.3068,2.3808,2.4971,2.5395,2.5799,2.6384,2.6815,2.7072,2.7122,2.8369,2.9026,2.895,2.9829,3.0331,3.0331,3.0156,3.0068,3.0068,2.988,2.9792,2.9792,2.9792,2.9792,2.9792,2.9792,2.9792,2.9792,2.9792,2.9578,2.9176,2.9176,2.8912,2.8386,2.7611,2.7306,2.7306,2.7306,2.7147,2.6867,2.655,2.6148,2.56,2.4548,2.3705,2.3026,2.2382,2.205,2.187,2.1785,2.1769,2.1807,2.1995,2.2046,2.1995,2.1807,2.1493,2.1194,2.1018,2.0515,2.0087,2.0087,1.9522,1.8895,1.8519,1.8028,1.7624,1.7436,1.7049,1.6735,1.6525,1.65,1.65,1.65,1.6183,1.5969,1.5969,1.563,1.5449,1.5449,1.5449,1.5449,1.5449,1.5781,1.5969,1.5969,1.5793,1.5605,1.5437,0.0,0.0,0.0,0.0,0.0,0.0,0.0,0.0,0.0,0.0,0.0,0.0,0.0,0.0,0.0,0.0,0.0,0.0,0.0,0.0,0.0,0.0,0.0,2.3916,2.5091,2.6206,2.6918,2.737,2.7952,2.89,2.8963,2.9239,2.9804,3.0357,3.067,3.067,3.116,3.1436,3.1411,3.0909,3.0633,3.062,3.0068,2.9792,2.9792,2.9792,2.9792,2.9792,2.9792,2.9792,2.9792,2.9792,2.9792,2.9792,2.9792,2.9792,2.9679,2.8586,2.816,2.816,2.816,2.8134,2.7982,2.7028,2.6384,2.5826,2.5203,2.4576,2.3941,2.3308,2.2757,2.2359,2.2347,2.2305,2.2431,2.297,2.3108,2.297,2.2443,2.2293,2.2171,2.1631,2.1106,2.0717,2.0717,1.9823,1.9045,1.9033,1.8569,1.8053,1.7536,1.7436,0.0,1.66,1.6525,1.6513,1.65,1.65,1.65,1.65,1.65,1.65,1.65,1.65,1.65,1.65,1.65,1.65,1.65,1.5994,1.5475,1.4947,0.0,0.0,0.0,0.0,0.0,0.0,0.0,0.0,0.0,0.0,0.0,0.0,0.0,0.0,0.0,0.0,0.0,0.0,0.0,0.0,0.0,2.6056,2.668,2.5994,2.6648,2.7707,2.8984,2.9517,3.0006,3.0645,3.0708,3.0783,3.0934,3.1461,3.1775,3.1775,3.2303,3.2416,3.2001,3.1461,3.0997,3.062,3.0068,2.9792,2.9792,2.9792,2.9792,2.9792,2.9792,2.9792,2.9792,2.9792,2.9792,2.9792,2.9792,2.9792,2.9767,2.9453,2.9327,2.9327,2.9327,2.8812,2.8009,2.7364,2.6795,2.624,2.5627,2.5317,2.4983,2.4042,2.3653,2.3452,2.2995,2.2882,2.2907,2.3058,2.3108,2.3058,2.292,2.2569,2.2272,2.2121,2.1656,2.1295,2.1295,2.0717,2.0075,1.966,1.9133,1.8719,1.8569,1.8242,1.7777,1.7212,1.7149,1.6986,1.6538,1.65,1.65,1.65,1.65,1.65,1.65,1.65,1.65,1.65,1.65,1.65,1.65,1.635,1.622,0.0,0.0,0.0,0.0,0.0,0.0,0.0,0.0,0.0,0.0,0.0,0.0,0.0,0.0,0.0,0.0,0.0,0.0,0.0,0.0,0.0,0.0,2.809,2.9162,2.9112,2.9269,2.9859,3.1158,3.1691,3.2202,3.2729,3.2579,3.2441,3.2441,3.2528,3.2579,3.2579,3.2893,3.2918,3.2591,3.2026,3.1486,3.0947,3.0407,3.0018,2.9792,2.9792,2.9792,2.9792,2.9792,2.9792,2.9792,2.9792,2.9792,2.9792,2.9792,2.9792,2.9792,0.0,0.0,0.0,0.0,2.9076,2.8059,2.7733,2.7153,2.6436,2.6097,2.5799,2.5473,2.4858,2.4519,2.4268,2.391,2.381,2.381,2.381,2.381,2.381,2.381,2.3396,2.3025,2.3025,2.2397,2.1832,2.1832,2.1393,0.0,2.0564,1.9861,1.9259,1.9033,1.8732,1.8355,1.7802,1.7549,1.7272,1.6911,1.6638,1.65,1.65,1.65,0.0,0.0,0.0,1.65,1.65,1.65,0.0,0.0,0.0,1.65,1.65,1.65,0.0,0.0,1.6045,1.6187,0.0,0.0,0.0,0.0,0.0,0.0,0.0,0.0,0.0,0.0,0.0,0.0,0.0,0.0,0.0,0.0,3.0053,3.1435,3.2536,3.2364,3.2436,3.3199,3.3696,3.4186,3.4675,3.4274,3.3972,3.3909,3.3445,3.3144,3.3124,3.3124,0.0,0.0,0.0,3.1976,3.1486,3.0972,3.0432,2.988,2.988,2.9854,2.9792,2.9792,2.9792,2.9792,2.9792,2.9792,2.9792,2.9792,2.9792,2.9792,2.9792,2.9792,2.9792,2.9792,2.9076,2.8109,2.8109,0.0,0.0,2.6499,2.6147,2.5686,2.5611,2.5272,2.4863,2.4813,2.4788,2.4788,2.4788,2.4788,2.4788,2.4788,2.4456,2.4092,2.4092,2.3301,2.2543,2.251,2.2046,2.1656,2.1594,2.069,1.9836,1.9346,1.9221,1.8983,1.8455,1.7903,1.7513,1.7423,1.6923,0.0,1.65,1.65,1.65,1.65,1.65,1.65,1.65,1.65,1.65,1.65,1.65,1.65,1.65,1.65,1.65,1.65,1.65,1.65,0.0,0.0,0.0,0.0,0.0,0.0,0.0,0.0,0.0,0.0,0.0,0.0,0.0,0.0,0.0,3.1414,3.224,3.2939,3.3784,3.4382,3.4663,3.4424,3.45,3.4613,3.4668,3.4625,3.4374,3.3935,3.3796,3.3545,3.3106,3.3124,3.3124,3.3124,3.2516,3.2164,3.2051,3.1512,3.0984,3.0457,3.0457,0.0,2.9792,2.9792,2.9792,2.9792,2.9792,2.9792,2.9792,2.9792,2.9792,2.9792,2.9792,2.9792,2.9792,2.9792,2.9076,2.8109,2.8109,2.7381,2.6499,2.6499,2.6411,2.6248,2.5737,2.5523,0.0,2.4913,2.4788,2.4788,2.4788,2.4788,2.4788,2.4788,2.4713,2.4637,2.4637,2.4462,2.4205,2.3766,2.317,2.2644,2.2234,2.1594,2.1129,2.1029,2.0666,2.0163,1.9572,1.9032,1.8367,1.7498,1.731,1.7024,1.6538,1.65,1.65,1.65,1.65,1.65,1.65,1.65,1.65,1.65,1.65,1.65,1.65,1.65,1.65,1.65,1.65,1.65,0.0,0.0,0.0,0.0,0.0,0.0,0.0,0.0,0.0,0.0,0.0,2.9131,3.0606,0.0,3.1613,3.275,3.3558,3.4226,3.4767,3.5475,3.5742,3.5157,3.5378,3.5542,3.5542,3.5303,3.4856,3.4349,3.406,3.3658,3.3106,3.3124,3.3124,3.3124,3.2805,3.2503,3.2215,3.1938,3.1537,3.0997,3.0733,3.047,3.0193,2.9917,2.9792,2.9792,2.9792,2.9792,2.9792,2.9792,2.9792,2.9792,2.9792,2.9792,2.9792,2.9792,2.9076,2.8109,2.8109,2.7381,2.6499,2.6499,2.6499,2.6436,2.6147,2.6059,2.5975,2.5724,2.5636,2.5636,2.5636,2.5636,2.5636,2.5636,2.5423,2.5209,2.5209,2.5008,2.4713,2.4469,2.4148,2.386,2.3584,2.3339,2.2786,2.1656,2.1282,2.0905,2.0313,1.9748,1.9083,1.8292,1.7714,1.7285,1.6974,1.6663,1.65,1.65,1.65,1.6647,1.6936,1.6948,1.7087,1.735,1.734,1.734,1.734,1.734,1.734,1.734,1.734,1.7061,0.0,0.0,0.0,0.0,0.0,0.0,0.0,2.9433,2.9918,3.1383,3.1502,3.1668,3.2764,3.305,3.3251,3.3866,3.4656,3.5292,3.5629,3.6081,3.6157,3.5558,3.6031,3.6367,3.6267,3.5805,3.5219,3.4568,3.4148,3.3709,3.3257,3.3174,3.3174,3.3232,3.3131,3.2855,3.239,3.2378,3.2102,3.1549,3.1122,3.0821,3.0608,3.0156,2.9892,2.9792,2.9792,2.9792,2.9792,2.9792,2.9792,2.9792,2.9792,2.9792,2.9792,2.9792,2.9139,2.8247,2.8147,2.7457,2.6637,2.6524,2.6499,2.6499,2.6499,2.6499,2.6499,2.6499,2.6499,2.6499,2.6499,2.6499,2.6499,2.6499,2.6135,2.5762,2.5762,2.5435,2.5109,2.4996,2.4971,2.4913,2.4813,2.4788,2.4167,2.2259,2.1882,2.1606,2.1081,2.0388,1.9761,1.9208,1.8292,1.7637,1.7423,1.7049,1.6798,1.6685,1.6763,1.7061,1.7549,1.7561,1.7752,1.8191,1.8204,1.8204,1.8204,1.8204,1.8204,1.8204,1.8204,1.7714,2.4156,2.4754,2.5764,2.7769,2.8712,2.9654,0.0,3.2393,3.2819,3.3238,3.4034,3.468,3.4643,3.4915,3.5319,3.5801,3.5844,3.5932,3.6241,3.6367,3.6157,3.5558,3.6031,3.6169,3.5633,3.5533,3.5069,3.4073,3.3935,3.3872,3.3809,3.3345,3.3307,3.3796,3.3332,3.3086,3.298,3.298,3.2692,3.2127,3.2064,3.1537,3.062,3.0557,3.0256,2.9792,2.9792,2.9792,2.9792,2.9792,2.9792,2.9792,2.9792,2.9792,2.9792,2.9792,2.939,2.8725,2.8285,2.7708,2.714,2.665,2.6499,2.6499,2.6499,2.6499,2.6499,2.6499,2.6499,2.6499,2.6499,2.6499,2.6499,2.6499,2.6449,2.6399,2.6399,2.6348,2.616,2.5598,2.5511,2.536,2.4863,2.4788,2.4537,2.3828,2.3246,2.2719,2.2196,2.1245,2.0377,1.9773,1.9171,1.8442,1.7486,1.7777,1.7802,1.7335,1.7752,1.8041,1.8116,1.8116,1.8141,1.8204,1.8204,1.8204,1.8204,1.8204,1.8204,1.8204,1.8204,1.8141,2.6153,2.6841,2.7919,3.0283,3.1375,3.2348,3.4241,3.4984,3.5457,3.5946,3.6287,3.6425,3.6198,3.6164,3.61,3.6029,3.6096,3.6247,3.638,3.6094,3.5805,3.552,3.5466,3.5316,3.5044,3.5019,3.4738,3.396,3.4198,3.4236,3.3922,3.3985,3.3985,3.3897,3.3671,3.3395,3.3124,3.3124,3.2955,3.2717,3.2378,3.1813,3.1047,3.0758,3.0319,2.9792,2.9792,2.9792,2.9792,2.9792,2.9792,2.9792,2.9792,2.9792,2.9792,2.9792,2.9428,2.8863,2.8624,2.8222,2.772,2.7494,2.7419,2.7419,2.7419,2.7419,2.7419,2.7419,2.7419,2.7419,2.7419,2.7419,2.7419,2.7419,2.7419,2.7419,2.7419,2.7419,2.7344,2.7105,2.7055,2.6992,2.6766,2.6465,2.6063,2.5544,2.4682,2.376,2.2882,2.2355,2.1518,1.9962,1.961,1.9045,1.7953,1.8078,1.8103,1.7877,1.8078,1.8355,1.8644,1.8657,1.8807,1.9133,1.9133,1.9133,1.9133,1.9133,1.9133,1.9133,1.9133,1.9133,2.775,2.8742,3.0223,3.2497,3.3767,3.4912,3.6511,3.7134,3.7456,3.7768,3.7615,3.7236,3.6681,3.6389,3.6122,3.5649,3.5873,3.6132,3.6132,3.5805,3.5445,3.5295,3.4826,3.4437,3.4286,3.4412,3.4274,3.3709,3.4186,3.4387,3.4135,3.4512,3.4613,3.4361,3.406,3.3709,3.3307,3.3156,3.3124,3.3111,3.2654,3.2152,3.1599,3.0922,3.0319,2.9792,2.9792,2.9792,2.9792,2.9792,2.9792,2.9792,2.9792,2.9792,2.9792,2.9792,2.9528,2.9101,2.895,2.8662,2.831,2.816,2.8109,2.8109,2.8109,2.8109,2.8109,2.8109,2.8109,2.8109,2.8109,2.8109,2.8109,2.8109,2.8109,2.8109,2.8109,2.8109,2.8109,2.8109,2.8109,2.8109,2.8109,2.777,2.7369,2.7002,2.6101,2.5013,2.3735,2.3296,2.2368,2.0476,2.0263,1.9823,1.8731,1.8794,1.8756,1.8455,1.8568,1.8832,1.9196,1.9221,1.9384,1.9798,1.9798,1.9798,1.9798,1.9798,1.9798,1.9798,1.9798,1.9798,2.8562,3.0447,3.2721,3.4099,3.5747,3.7277,3.8362,3.8684,3.8599,3.8023,3.769,3.7028,3.5506,3.5378,3.5277,3.4796,3.5169,3.552,3.552,3.5508,3.5307,3.4768,3.4261,3.3709,3.3224,3.3608,3.3696,3.3144,3.3608,3.4148,3.4675,3.4668,3.4919,3.5433,3.4462,3.3884,3.3872,3.3345,3.3124,3.3124,3.3056,3.2754,3.2152,3.1097,3.0319,2.9792,2.9792,2.9792,2.9792,2.9792,2.9792,2.9792,2.9792,2.9792,2.9792,2.9792,2.9779,2.9691,2.9088,2.8888,2.8775,2.8285,2.8109,2.8109,2.8109,2.8109,2.8109,2.8109,2.8109,2.8109,2.8109,2.8109,2.8109,2.8109,2.8109,2.8109,2.8109,2.8109,2.8109,2.8109,2.8109,2.8109,2.8109,2.8097,2.8072,2.8059,2.757,2.6615,2.4951,2.3785,2.2669,2.1556,2.1443,2.0978,1.9849,2.0302,2.0163,1.9045,1.9447,1.9761,1.9773,1.9773,1.9786,1.9798,1.9798,1.9798,1.9798,1.9798,1.9798,1.9798,1.9798,1.9798,3.068,3.2273,3.4099,3.6181,3.7473,3.8465,3.9419,3.9458,3.9048,3.8253,3.7345,3.6389,3.544,3.4732,3.4288,3.4363,3.4413,3.4713,3.5395,3.4868,3.4512,3.47,3.3909,3.3282,3.3136,3.3244,3.3269,3.3093,3.3922,3.4525,3.4668,3.5416,3.573,3.5508,3.5144,3.4638,3.3909,3.3721,3.3432,3.3111,3.2692,3.2215,3.1637,3.0934,3.0319,2.9792,2.9792,2.9792,2.9792,2.9792,2.9792,2.9792,2.9792,2.9792,2.9792,2.9792,2.9792,2.9767,2.9566,2.9503,2.9478,2.9289,2.9227,2.9227,2.9227,2.9227,2.9227,2.9227,2.9227,2.9227,2.9227,2.9328,2.9441,2.9441,2.9542,2.9617,2.9617,2.9504,2.9441,2.9441,2.9341,2.9227,2.9227,2.8913,2.8524,2.816,2.7318,2.6436,2.546,2.4381,2.3427,2.2631,2.2246,2.1732,2.0978,2.1119,2.1081,2.0677,2.0476,2.0402,2.0402,2.0012,1.9798,1.9798,1.9798,1.9798,1.9798,1.9798,1.9798,1.9798,1.9798,1.9798,3.2671,3.428,3.5961,3.7979,3.9098,3.9768,3.9963,3.9642,3.895,3.7702,3.6266,3.5034,3.4179,3.3374,3.2925,3.3246,3.3462,3.3985,3.5044,3.4638,3.4399,3.4906,3.4223,3.3658,3.3658,3.3658,3.3583,3.3382,3.4211,3.4756,3.4956,3.5868,3.6194,3.5843,3.5596,3.5157,3.45,3.4098,3.3621,3.3111,3.2704,3.2227,3.1675,3.1135,3.0595,3.008,2.988,2.9792,2.9792,2.9792,2.9792,2.9792,2.9869,2.9895,2.9934,2.9972,3.0011,2.9972,2.9869,2.9792,2.9792,2.9869,2.9895,2.9934,2.9972,3.0011,3.0011,3.0011,3.0011,3.0011,3.0011,3.0113,3.0228,3.0305,3.0419,3.0533,3.0596,3.0457,3.0305,3.0305,3.0152,3.0011,3.0011,2.9694,2.9264,2.8671,2.8012,2.7167,2.6059,2.5121,2.4356,2.376,2.3396,2.2899,2.2146,2.2071,2.1907,2.1506,2.1182,2.0993,2.0993,2.0602,2.0401,2.0401,2.0213,2.0112,2.0112,1.9911,1.9798,1.9798,1.9798,1.9798,3.4551,3.6463,3.8193,3.9459,4.0554,4.1062,4.004,3.9249,3.826,3.6382,3.456,3.2956,3.1926,3.1384,3.12,3.1587,3.2407,3.34,3.4512,3.4675,3.4856,3.5433,3.5019,3.468,3.468,3.468,3.4512,3.4022,3.4462,3.4944,3.547,3.6056,3.6405,3.6405,3.5855,3.552,3.5495,3.4449,3.3633,3.3162,3.3093,3.2767,3.219,3.1675,3.1148,3.062,3.0093,2.988,2.988,2.988,2.988,2.9906,3.0125,3.0202,3.0241,3.042,3.0534,3.0445,3.0087,2.9919,2.9869,3.0049,3.0113,3.0152,3.0368,3.0406,3.0444,3.0444,3.0444,3.0444,3.0444,3.0444,3.0482,3.0698,3.0736,3.0811,3.1024,3.0911,3.0773,3.0773,3.0609,3.0444,3.0444,3.0444,3.0227,2.9651,2.9548,2.8824,2.682,2.6034,2.5468,2.4921,2.4833,2.4393,2.3283,2.3158,2.2706,2.1681,2.1556,2.1531,2.1531,2.1506,2.1493,2.1493,2.1006,2.0717,2.0691,2.0138,1.9823,1.9798,1.9798,1.9798,3.662,3.8156,3.9509,4.0514,4.06,4.0282,3.9725,3.8279,3.662,3.52,3.301,3.1289,3.1162,3.0053,2.9538,3.0714,3.1196,3.2066,3.3834,3.411,3.4462,3.5382,3.5019,3.468,3.468,3.468,3.4793,3.5056,3.5207,3.5357,3.5495,3.6056,3.6405,3.6405,3.6267,3.5956,3.5495,3.4449,3.3822,3.3684,3.3269,3.2767,3.2202,3.2064,3.17,3.1185,3.1047,3.0984,3.0984,3.0984,3.1105,3.1278,3.1358,3.1532,3.1836,3.1875,3.198,3.2098,3.1993,3.1216,3.0254,3.0292,3.0419,3.0546,3.0622,3.0723,3.0836,3.0836,3.0836,3.0836,3.0836,3.0973,3.1123,3.1296,3.1471,3.1633,3.1776,3.164,3.1529,3.1519,3.1246,3.0947,3.0861,3.0836,3.0784,3.0641,3.0225,2.9339,2.7758,2.7024,2.645,2.5894,2.5351,2.4919,2.4614,2.411,2.3653,2.3376,2.2573,2.2108,2.2108,2.1707,2.1493,2.1493,2.1383,2.1106,2.0691,2.0541,2.0251,1.9798,1.9798,1.9798,3.8302,3.9629,4.0739,4.1236,4.081,3.9993,3.8803,3.6834,3.488,3.3527,3.1294,2.9621,2.9651,2.8966,2.8752,2.9907,3.0599,3.1637,3.3429,3.3991,3.4575,3.5395,3.5705,3.5805,3.5805,3.6019,3.6295,3.6549,3.5909,3.5608,3.5893,3.6194,3.6405,3.6405,3.6405,3.6094,3.5508,3.4688,3.4135,3.3884,3.3345,3.2905,3.2591,3.2328,3.2039,3.1738,3.1499,3.148,3.1562,3.1562,3.1764,3.2074,3.2247,3.2527,3.287,3.3131,3.3313,3.3416,3.3493,3.2949,3.2148,3.1494,3.1169,3.1123,3.1272,3.1384,3.1482,3.1482,3.1482,3.1482,3.1593,3.1703,3.185,3.2164,3.2286,3.2444,3.2596,3.2475,3.2282,3.22,3.1932,3.1713,3.1629,3.1593,3.1593,3.1593,3.1409,3.0717,2.9265,2.8208,2.7411,2.6821,2.6407,2.6013,2.5691,2.5288,2.4811,2.4253,2.3631,2.3204,2.3021,2.2703,2.2537,2.2537,2.2296,2.1848,2.1234,2.0993,2.0574,1.9991,1.9991,1.9939,3.9668,4.0914,4.1818,4.1745,4.1028,3.9847,3.7695,3.5344,3.3211,3.164,2.9574,2.8026,2.7989,2.7898,2.8176,2.9095,3.0153,3.1417,3.2971,3.4035,3.4839,3.542,3.6508,3.7186,3.7186,3.7688,3.8002,3.8002,3.6636,3.6044,3.6493,3.6455,3.6405,3.6405,3.6405,3.6132,3.5608,3.5056,3.4562,3.3997,3.3445,3.3156,3.3056,3.2554,3.2328,3.2303,3.1867,3.1789,3.2034,3.2075,3.2346,3.2775,3.3146,3.3514,3.3866,3.4443,3.4672,3.4748,3.4923,3.4956,3.4612,3.3039,3.2262,3.1944,3.2155,3.2237,3.2273,3.2273,3.2273,3.2309,3.2525,3.2561,3.2668,3.3058,3.3164,3.3199,3.3409,3.3304,3.3129,3.2903,3.2725,3.2618,3.2583,3.2583,3.2583,3.2583,3.2725,3.2381,3.1081,2.9611,2.8413,2.7735,2.7623,2.7347,2.6694,2.6557,2.5993,2.4885,2.4692,2.4425,2.4079,2.4005,2.3966,2.3966,2.3459,2.2816,2.2097,2.1557,2.0965,2.0361,2.0284,2.0182,4.0723,4.1813,4.2619,4.1902,4.0807,3.9348,3.7214,3.4709,3.2326,3.027,2.8254,2.6928,2.7301,2.6623,2.6587,2.8312,2.9196,3.0255,3.1913,3.3373,3.4578,3.5416,3.6508,3.7186,3.7186,3.7688,3.8002,3.8002,3.7739,3.7425,3.7061,3.6656,3.6405,3.6405,3.6405,3.6367,3.6267,3.568,3.5082,3.4575,3.4022,3.352,3.3124,3.2968,3.293,3.296,3.303,3.3064,3.3149,3.3527,3.3931,3.4331,3.4793,3.5304,3.5833,3.6303,3.6589,3.6809,3.7011,3.6746,3.6023,3.4034,3.3459,3.3425,3.2999,3.2952,3.3094,3.3094,3.3094,3.3129,3.3339,3.3374,3.3479,3.3845,3.3914,3.3948,3.4162,3.4162,3.4094,3.3914,3.3831,3.3762,3.3589,3.3555,3.3555,3.3555,3.3589,3.3354,3.2582,3.1175,2.9754,2.8533,2.8268,2.8117,2.7977,2.7252,2.6722,2.6493,2.5586,2.505,2.4988,2.4614,2.4408,2.4408,2.4171,2.38,2.3221,2.2506,2.185,2.1251,2.0756,2.051,4.1091,4.1972,4.2499,4.1742,3.9965,3.7908,3.5824,3.3015,3.0338,2.863,2.6945,2.5865,2.5923,2.5989,2.6414,2.769,2.8939,3.0196,3.1357,3.3003,3.4326,3.4946,3.6278,3.7356,3.7988,3.8497,3.8954,3.9259,3.8918,3.8238,3.7224,3.6707,3.6405,3.6405,3.6405,3.6405,3.6405,3.5818,3.537,3.5094,3.4587,3.4186,3.3935,3.4067,3.4155,3.4167,3.4479,3.4783,3.5042,3.5427,3.5923,3.6537,3.6538,3.6926,3.7518,3.7581,3.7734,3.7938,3.815,3.8007,3.752,3.5849,3.4968,3.4441,3.3886,3.3805,3.3874,3.3874,3.3874,3.3908,3.4128,3.4162,3.423,3.4471,3.4505,3.4539,3.4635,3.4668,3.4635,3.4539,3.4452,3.4385,3.4283,3.4283,3.4283,3.4283,3.4337,3.4138,3.3401,3.2663,3.1566,2.9923,2.9559,2.9261,2.8862,2.842,2.7994,2.7588,2.7064,2.6511,2.5945,2.5704,2.5446,2.5118,2.5062,2.4693,2.3959,2.3245,2.2576,2.1936,2.1324,2.1168,4.0786,4.1587,4.1991,4.116,3.9077,3.6677,3.4535,3.1545,2.8781,2.7307,2.5968,2.4996,2.4752,2.547,2.6353,2.7072,2.8669,3.0112,3.0924,3.266,3.4095,3.471,3.6264,3.7698,3.8865,3.9447,4.0013,4.0655,3.9826,3.865,3.7285,3.6707,3.6405,3.6405,3.6405,3.6405,3.6405,3.5931,3.5621,3.5495,3.5148,3.4884,3.4816,3.5085,3.5264,3.5264,3.5815,3.6254,3.6688,3.7032,3.7656,3.8393,3.815,3.8377,3.8769,3.8632,3.8633,3.8664,3.887,3.8943,3.8736,3.7414,3.6333,3.5346,3.4714,3.4515,3.4515,3.4515,3.4515,3.4549,3.475,3.4798,3.485,3.4983,3.5034,3.5034,3.5034,3.5034,3.5034,3.5034,3.4949,3.4865,3.4865,3.4865,3.4865,3.4865,3.4949,3.4791,3.4177,3.4038,3.339,3.1703,3.1173,3.0623,2.9876,2.9757,2.9428,2.8689,2.8521,2.8092,2.7242,2.6975,2.6596,2.6145,2.595,2.5532,2.4843,2.4126,2.351,2.2979,2.2311,2.221,3.9409,4.0516,4.1175,3.9903,3.8461,3.6698,3.4141,3.1481,2.8999,2.7056,2.5542,2.4542,2.4451,2.4831,2.5429,2.6349,2.7853,2.93,3.0344,3.2179,3.3953,3.5263,3.6789,3.8212,3.9407,4.0034,4.0559,4.1182,3.9972,3.8607,3.726,3.6707,3.6405,3.6405,3.6405,3.6405,3.6405,3.6355,3.6031,3.5495,3.5709,3.5509,3.5098,3.5519,3.5727,3.5771,3.6501,3.6946,3.719,3.7811,3.8476,3.9145,3.9462,3.9537,3.9466,3.9786,3.9535,3.9068,3.9265,3.9337,3.9113,3.7784,3.708,3.6516,3.5251,3.4868,3.4868,3.4868,3.4868,3.4902,3.5115,3.5148,3.518,3.5392,3.5439,3.5439,3.5439,3.5439,3.5439,3.5439,3.5439,3.5439,3.5439,3.5439,3.5439,3.5439,3.5439,3.5409,3.535,3.5172,3.4777,3.3957,3.294,3.2057,3.1451,3.1238,3.084,3.0147,2.9603,2.9245,2.9145,2.8136,2.7569,2.7511,2.6813,2.6375,2.6318,2.5438,2.5008,2.4937,2.4174,2.387,3.7928,3.8871,3.9454,3.8931,3.6911,3.4681,3.323,3.0253,2.744,2.6243,2.4896,2.394,2.3874,2.4606,2.5419,2.601,2.785,2.9533,3.0401,3.2082,3.3772,3.5263,3.6615,3.8057,3.9622,4.0667,4.1369,4.1646,4.0521,3.9346,3.817,3.7121,3.6534,3.6405,3.6546,3.6581,3.6581,3.6734,3.6714,3.6451,3.6729,3.6798,3.6748,3.7258,3.7647,3.786,3.8515,3.9035,3.9534,3.9943,4.0527,4.1071,4.0408,4.0271,4.0362,3.975,3.9415,3.9301,3.9373,3.9388,3.92,3.7853,3.7316,3.6941,3.5647,3.5261,3.5261,3.5261,3.5261,3.5294,3.5359,3.5359,3.5392,3.5472,3.5504,3.5504,3.5504,3.5504,3.5504,3.5504,3.5504,3.5504,3.5504,3.5504,3.5504,3.5504,3.5504,3.5504,3.5504,3.5439,3.5287,3.5019,3.4026,3.314,3.2511,3.2008,3.161,3.1347,3.0762,3.0236,2.9827,2.94,2.8783,2.8006,2.7688,2.7287,2.6791,2.6046,2.5651,2.556,2.4901,2.4776,3.5908,3.6881,3.7479,3.7285,3.5205,3.2931,3.1884,2.9026,2.6348,2.5472,2.4403,2.3588,2.3538,2.4588,2.5512,2.5727,2.7827,2.9711,3.054,3.2094,3.3825,3.5609,3.6858,3.8295,4.0105,4.1538,4.2274,4.2093,4.1272,4.0194,3.8926,3.7905,3.7176,3.6747,3.6875,3.6956,3.7036,3.7222,3.7328,3.7433,3.7756,3.8018,3.8251,3.8832,3.9295,3.9637,4.0185,4.0759,4.1339,4.1591,4.1947,4.2199,4.1234,4.0879,4.0769,3.9817,3.9429,3.9388,3.9388,3.9388,3.92,3.7853,3.7404,3.7165,3.5893,3.5504,3.5504,3.5504,3.5504,3.5504,3.5504,3.5504,3.5504,3.5504,3.5504,3.5504,3.5504,3.5504,3.5504,3.5504,3.5504,3.5504,3.5504,3.5504,3.5504,3.5504,3.5504,3.5504,3.5504,3.5504,3.5504,3.5504,3.4877,3.4184,3.3502,3.3028,3.2567,3.2182,3.1753,3.1205,3.0538,3.0316,2.9722,2.8652,2.8403,2.795,2.717,2.6674,2.6362,2.6272,2.5794,2.5823,3.3185,3.4517,3.537,3.4713,3.3514,3.2003,3.0058,2.8053,2.6213,2.4889,2.4066,2.3595,2.3595,2.4702,2.5568,2.5435,2.7598,2.9668,3.0646,3.2254,3.4201,3.6611,3.7844,3.9187,4.1026,4.2702,4.3373,4.2528,4.2064,4.1027,3.9278,3.897,3.8472,3.7505,3.7505,3.7585,3.7808,3.7808,3.7913,3.82,3.8639,3.897,3.921,3.994,4.0403,4.0603,4.1142,4.1619,4.199,4.2295,4.2239,4.1991,4.2015,4.1343,4.0412,4.0397,3.9978,3.9388,3.9388,3.9388,3.92,3.7853,3.7404,3.7165,3.5893,3.5504,3.5504,3.5504,3.5504,3.5504,3.5504,3.5504,3.5504,3.5504,3.5504,3.5504,3.5504,3.5504,3.5504,3.5504,3.5504,3.5504,3.5504,3.5504,3.5504,3.5504,3.5504,3.5504,3.5504,3.5504,3.5504,3.5504,3.5504,3.522,3.4548,3.4488,3.3903,3.2572,3.2482,3.2183,3.1525,3.0838,3.0208,2.9579,2.8921,2.8263,2.76,2.7448,2.7386,2.7386,2.7244,2.7192,2.9789,3.0791,3.1405,3.1209,3.0146,2.8992,2.8378,2.6677,2.5113,2.4694,2.4066,2.3595,2.3595,2.4702,2.5591,2.5529,2.7767,2.9905,3.0984,3.2724,3.4644,3.6658,3.8785,4.0821,4.2707,4.3224,4.3286,4.2855,4.2422,4.1588,4.027,3.9998,3.9326,3.8219,3.8368,3.8504,3.8535,3.8895,3.9073,3.9162,3.9779,4.0201,4.046,4.0986,4.1464,4.1854,4.2007,4.2033,4.1995,4.209,4.1917,4.1547,4.1076,4.0681,4.0352,3.9903,3.9568,3.9388,3.9388,3.9388,3.92,3.7853,3.7404,3.7165,3.5893,3.5504,3.5609,3.6043,3.6477,3.6806,3.6806,3.6806,3.6806,3.6806,3.6806,3.6806,3.6806,3.6477,3.6178,3.6178,3.5804,3.5504,3.5504,3.5504,3.5504,3.5504,3.5504,3.5504,3.5504,3.5504,3.5504,3.5504,3.5504,3.5415,3.519,3.4741,3.4339,3.3873,3.3021,3.2392,3.2183,3.154,3.0896,3.0223,3.0013,2.937,2.8278,2.8226,2.7987,2.7539,2.7499,2.7473,2.6617,2.7754,2.8483,2.8483,2.766,2.6791,2.6512,2.5136,2.3872,2.3872,2.355,2.3325,2.355,2.4702,2.5689,2.5944,2.8008,3.0105,3.1558,3.3226,3.5294,3.7925,3.9899,4.1813,4.3745,4.3717,4.351,4.3385,4.295,4.2294,4.1368,4.1085,4.0575,3.9855,3.959,3.9516,3.9692,3.9998,4.0215,4.0388,4.0887,4.1296,4.1521,4.1895,4.2281,4.2622,4.2622,4.2573,0.0,4.2237,4.1837,4.1309,4.0651,4.0247,3.9978,3.9574,3.9388,3.9388,3.9388,3.9388,3.9209,3.8138,3.7449,3.6911,3.6118,3.5878,3.6013,3.6656,3.7105,3.7404,3.7404,3.7404,3.7404,3.7404,3.7404,3.7404,3.7404,3.7105,3.6761,3.6537,3.6148,3.5804,3.5549,3.5504,3.5504,3.5504,3.5504,3.5504,3.5504,3.5504,3.5504,3.5504,3.5504,3.5504,3.5504,3.5115,3.4788,3.4518,3.3709,3.3036,3.2512,3.2093,3.1436,3.0522,3.0507,2.9998,2.8966,2.8966,2.8742,2.8349,2.8349,2.8349,0.0,2.5241,2.6243,2.6243,2.5779,2.5166,2.4545,2.3475,0.0,2.2688,2.2703,2.2897,2.355,2.4732,2.5839,2.6542,2.8364,3.0328,3.2243,3.3769,3.6151,4.0008,4.101,4.2132,4.4047,4.4054,4.3931,4.3931,4.3531,4.3033,4.2462,4.214,4.1974,4.1974,4.0915,4.0561,4.1071,4.1085,4.1296,4.1744,4.1964,4.2225,4.2474,4.2662,4.2835,4.3036,4.3036,4.3086,4.317,4.2566,4.1946,4.125,4.0591,3.9963,3.9388,3.9388,3.9388,3.9388,3.9388,3.9388,3.9305,3.8616,3.7554,3.6552,3.6611,3.6596,3.6686,3.73,3.7524,3.7554,3.7554,3.7554,3.7554,3.7554,3.7554,3.7554,3.7554,3.7509,3.73,3.6671,3.6522,3.6282,3.5624,3.5504,3.5504,3.5504,3.5504,3.5504,3.5504,3.5504,3.5504,3.5504,3.5504,3.5504,3.5504,3.5504,3.5235,3.4623,3.4533,3.3903,3.2632,3.2542,3.1898,3.0612,3.0522,3.0223,2.9666,2.9636,2.9606,2.9606,2.9606,2.9606,2.0677,0.0,2.2847,2.2847,2.2727,2.2577,0.0,2.2143,2.2089,2.2598,2.2703,2.3047,2.4156,2.5038,2.5989,2.718,2.8996,3.0806,3.2302,3.4936,3.7823,4.0801,4.128,4.1953,4.3379,4.3489,4.3409,4.3233,4.3138,4.2957,4.2662,4.2096,4.1777,4.1777,4.1015,4.0978,4.1784,4.1993,4.2131,4.2213,4.2592,4.278,4.2875,4.309,4.317,4.325,4.325,4.3006,4.2575,4.1878,4.122,4.0561,3.9903,3.9559,3.9388,3.9388,3.9388,3.9388,3.9388,3.9388,3.9305,3.8616,3.7838,3.7285,3.7793,3.7599,3.733,3.7973,3.8542,3.8945,3.8945,3.8945,3.8945,3.8945,3.8945,3.8945,3.8945,3.8542,3.7958,3.733,3.6806,3.6282,3.5624,3.5504,3.5504,3.5504,3.5504,3.5504,3.5504,3.5504,3.5504,3.5504,3.5504,3.5504,3.5504,3.5504,3.5429,3.5265,3.4771,3.4144,3.3305,3.2781,3.2093,3.1271,3.0748,3.0432,3.0283,2.9846,2.9606,2.9606,2.9606,2.9606,1.9762,2.0715,2.1695,2.1695,2.1919,2.2164,2.2164,2.1919,2.1874,2.2568,2.2703,2.3092,2.4365,2.5397,2.6497,2.7854,2.9699,3.1764,3.4023,3.6372,3.8736,4.11,4.1422,4.1893,4.317,4.329,4.313,4.2738,4.2708,4.255,4.2134,4.1754,4.1561,4.1561,4.1219,4.1213,4.1576,4.1739,4.1833,4.1937,4.2158,4.2425,4.2723,4.2841,4.3045,4.3275,4.3015,4.2686,4.2321,4.1324,4.0726,4.0337,3.9679,3.9388,3.9388,3.9388,3.9388,3.9388,3.9388,3.9388,3.9305,3.8616,3.8138,3.7928,3.8287,3.8138,3.8003,3.8676,3.9125,3.9388,3.9388,3.9388,3.9388,3.9388,3.9388,3.9388,3.9388,3.9125,3.8661,3.7988,3.7345,3.6701,3.6073,3.5699,3.5504,3.5504,3.5504,3.5504,3.5504,3.5504,3.5504,3.5504,3.5504,3.5504,3.5504,3.5504,3.5504,3.5504,3.516,3.4651,3.3978,3.332,3.2512,3.1525,3.1137,3.0943,3.0943,3.0642,3.0477,3.0477,3.0477,3.0477,1.9869,2.0775,2.1724,2.158,2.2059,2.2553,2.2553,2.2119,2.1919,2.2688,2.2838,2.3302,2.4769,2.5989,2.7245,2.8801,3.0763,3.32,3.6342,3.7808,3.926,4.1145,4.1512,4.1998,4.3185,4.32,4.2955,4.244,4.2306,4.2006,4.1452,4.128,4.1235,4.1235,4.113,4.101,4.0835,4.1029,4.1232,4.1422,4.1422,4.1707,4.2246,4.2246,4.2521,4.2961,4.2447,4.2246,4.2156,4.0905,4.0397,4.0337,3.9679,3.9388,3.9388,3.9388,3.9388,3.9388,3.9388,3.9388,3.9334,3.8736,3.8542,3.8542,3.8542,3.8542,3.8661,3.926,3.9388,3.9388,3.9388,3.9388,3.9388,3.9388,3.9388,3.9388,3.9388,3.9388,3.9215,3.8527,3.7853,3.721,3.6596,3.5938,3.5504,3.5504,3.5594,3.5654,3.5654,3.5729,3.5759,3.5669,3.5654,3.5609,3.5519,3.5504,3.5504,3.5504,3.5504,3.519,3.4533,3.3754,3.2826,3.1675,3.1555,3.1511,3.1511,3.1511,3.1511,3.1511,3.1511,3.1511,2.0098,2.102,2.1846,2.1049,2.1365,2.1844,2.1844,2.1769,2.2039,2.3206,2.346,2.423,2.6686,2.7315,2.8233,3.0658,3.32,3.5654,3.7793,3.8781,3.9783,4.1205,4.1916,4.2506,4.3215,4.2836,4.2515,4.241,4.1886,4.1527,4.1422,4.0846,4.0546,4.0546,4.0008,3.9687,3.9651,4.0793,4.1384,4.1422,4.1422,4.1467,4.1572,4.1572,4.1579,4.1683,4.1564,4.1572,4.1512,4.0711,4.0397,4.0337,3.9679,3.9388,3.9388,3.9388,3.9388,3.9388,3.9388,3.9388,3.9394,3.929,3.926,3.926,3.926,3.926,3.929,3.9394,3.9388,3.9388,3.9388,3.9388,3.9388,3.9388,3.9388,3.9388,3.9388,3.9388,3.9215,3.8527,3.7853,3.721,3.6596,3.5938,3.5504,3.5504,3.5983,3.6342,3.6342,3.6791,3.6911,3.6387,3.6342,3.6118,3.5549,3.5504,3.5504,3.5504,3.5504,3.519,3.4533,3.3305,3.2572,3.2333,3.1795,3.1511,3.1511,3.1511,3.1511,3.1511,3.1511,3.1511,2.0359,2.1327,2.2224,2.1599,2.2139,2.2915,2.3191,2.3259,2.3633,2.4941,2.5211,2.5809,2.7769,2.8682,3.0148,3.3155,3.5011,3.6582,3.8167,3.929,4.0307,4.1265,4.1692,4.2126,4.2746,4.2261,4.1722,4.1324,4.1025,4.0696,4.0337,4.0038,3.9873,3.9873,3.9574,3.9388,3.9388,4.0023,4.0322,4.0322,4.0322,4.0502,4.0846,4.0846,4.1055,4.1392,4.101,4.0846,4.0801,4.0142,3.9873,3.9843,3.9508,3.9388,3.9388,3.9388,3.9388,3.9388,3.9388,3.9388,3.9388,3.9388,3.9388,3.9388,3.9388,3.9388,3.9388,3.9388,3.9388,3.9388,3.9388,3.9388,3.9388,3.9388,3.9388,3.9388,3.9388,3.9388,3.9334,3.9005,3.8392,3.7734,3.709,3.6462,3.6028,3.6028,3.6297,3.6611,3.6941,3.724,3.73,3.7015,3.6985,3.6731,3.6088,3.6028,3.5893,3.5534,3.5504,3.519,3.4533,3.3903,3.341,3.3051,3.2751,3.2587,3.2587,3.2587,3.2587,3.2557,3.2198,3.2034,2.0712,2.1645,2.2618,2.2305,2.3183,2.4262,2.4762,2.5009,2.5533,2.7016,2.729,2.7754,2.9235,3.0567,3.2377,3.5265,3.6282,3.715,3.8452,3.9649,4.0591,4.1085,4.128,4.1617,4.2126,4.1572,4.0935,4.0442,4.0247,3.9948,3.9454,3.9388,3.9388,3.9388,3.9388,3.9388,3.9388,3.9388,3.9388,3.9388,3.9388,3.9694,4.0172,4.0172,4.0442,4.0891,4.0382,4.0172,4.0127,3.9634,3.9388,3.9388,3.9388,3.9388,3.9388,3.9388,3.9388,3.9388,3.9388,3.9388,3.9388,3.9388,3.9388,3.9388,3.9388,3.9388,3.9388,3.9388,3.9388,3.9388,3.9388,3.9388,3.9388,3.9388,3.9388,3.9388,3.9388,3.9388,3.9388,3.9388,3.8856,3.8227,3.7719,3.712,3.6701,3.6701,3.6836,3.7105,3.7569,3.7778,3.7823,3.7659,3.7644,3.733,3.6552,3.6342,3.6043,3.5534,3.5504,3.5265,3.4773,3.4593,3.4279,3.3739,3.3574,3.3499,3.3499,3.3499,3.3499,3.3484,3.2976,3.2736,2.1103,2.1993,2.2912,2.2618,2.383,2.5216,2.5613,2.6184,2.7169,2.9019,2.9397,2.9953,3.1884,3.3305,3.4713,3.6178,3.6941,3.7808,3.9119,3.9948,4.0412,4.0472,4.101,4.1399,4.1482,4.0861,4.0442,4.0397,3.9828,3.9433,3.9388,3.9388,3.9388,3.9388,3.9388,3.9388,3.9388,3.9388,3.9388,3.9388,3.9388,3.9454,3.9448,3.9448,3.9514,3.9559,3.9514,3.9448,3.9484,3.9403,3.9388,3.9388,3.9388,3.9388,3.9388,3.9388,3.9388,3.9388,3.9388,3.9388,3.9388,3.9388,3.9388,3.9388,3.9388,3.9388,3.9388,3.9388,3.9388,3.9388,3.9388,3.9388,3.9388,3.9388,3.9388,3.9388,3.9388,3.9388,3.9388,3.9388,3.8856,3.8377,3.8332,3.7778,3.7345,3.7345,3.7853,3.8272,3.8317,3.8871,3.9035,3.8377,3.8317,3.7823,3.6596,3.5923,3.5549,3.5504,3.5504,3.5489,3.5429,3.4816,3.4488,3.4444,3.3799,3.3499,3.3499,3.3499,3.3499,3.3499,3.344,3.3425,2.134,2.2245,2.3279,2.3377,2.5216,2.6927,2.6726,2.7385,2.8604,3.0569,3.1192,3.1884,3.344,3.4174,3.5073,3.6776,3.7255,3.7883,3.9194,3.9993,4.0397,4.0397,4.0621,4.0771,4.0771,4.0172,3.9783,3.9783,3.9559,3.9388,3.9388,3.9388,3.923,3.8796,3.8781,3.8586,3.8167,3.8167,3.8167,3.8182,3.902,3.9388,3.9388,3.9388,3.9388,3.9388,3.9388,3.9388,3.9388,3.9388,3.9388,3.9388,3.9388,3.9388,3.9388,3.9388,3.9388,3.9388,3.9388,3.9388,3.9388,3.9388,3.9388,3.9388,3.9388,3.9388,3.9388,3.9388,3.9388,3.9388,3.9388,3.9388,3.9388,3.9388,3.9388,3.9388,3.9388,3.9388,3.9388,3.9388,3.9215,3.8901,3.8467,3.8182,3.8018,3.8018,3.8227,3.8542,3.8975,3.926,3.932,3.905,3.8646,3.8033,3.7135,3.6477,3.5938,3.5534,3.5504,3.5504,3.5504,3.525,3.5115,3.5115,3.4876,3.4741,3.4741,3.4741,3.4741,3.4741,3.4307,3.4098,2.1586,2.246,2.3537,2.3973,2.6107,2.8156,2.8332,2.9164,3.0473,3.2597,3.3427,3.3978,3.4681,3.4833,3.531,3.6866,3.7285,3.7793,3.8931,3.9664,4.0083,4.0083,4.0083,4.0083,4.0083,3.9694,3.9388,3.9388,3.9215,3.9095,3.9095,3.8901,3.8571,3.8093,3.8078,3.7853,3.7404,3.7404,3.7404,3.7419,3.8347,3.8781,3.8781,3.8781,3.8901,3.9095,3.9095,3.9215,3.9388,3.9388,3.9388,3.9388,3.9388,3.9388,3.9388,3.9388,3.9388,3.9388,3.9388,3.9388,3.9388,3.9388,3.9388,3.9388,3.9388,3.9388,3.9388,3.9388,3.9388,3.9388,3.9388,3.9388,3.9388,3.9388,3.9388,3.9388,3.9388,3.9388,3.9388,3.9388,3.9388,3.9275,3.8796,3.8721,3.8721,3.8721,3.8721,3.8886,3.9328,3.9388,3.9388,3.9388,3.8796,3.8123,3.7464,3.6851,3.6207,3.5549,3.5504,3.5504,3.5504,3.5504,3.5504,3.5504,3.5504,3.5504,3.5504,3.5504,3.5504,3.5489,3.5026,3.4833,2.1857,2.2637,2.366,2.4351,2.6326,2.8602,3.0497,3.1588,3.2869,3.5208,3.6129,3.6297,3.5639,3.5504,3.5729,3.6372,3.7,3.7629,3.8287,3.8975,3.9394,3.9394,3.9394,3.9394,3.9394,3.9394,3.9394,3.9394,3.8766,3.8377,3.8377,3.7764,3.7404,3.7404,3.7404,3.7404,3.7389,3.7389,3.7389,3.7389,3.7389,3.7404,3.7404,3.7404,3.7764,3.8377,3.8392,3.8781,3.9373,3.9388,3.9388,3.9388,3.9388,3.9388,3.9388,3.9388,3.9388,3.9388,3.9388,3.9388,3.9388,3.9388,3.9388,3.9388,3.9388,3.9388,3.9388,3.9388,3.9388,3.9388,3.9388,3.9388,3.9388,3.9388,3.9388,3.9388,3.9388,3.9388,3.9388,3.9388,3.9388,3.9388,3.9388,3.9388,3.9388,3.9388,3.9388,3.9388,3.9388,3.9388,3.9388,3.9388,3.8811,3.8138,3.7464,3.6851,3.6207,3.5549,3.5504,3.5504,3.5504,3.5504,3.5504,3.5504,3.5504,3.5504,3.5504,3.5504,3.5504,3.5504,3.5504,3.5504,2.2563,2.3239,2.4179,2.5621,2.758,2.9717,3.1872,3.2643,3.3557,3.5786,3.6409,3.6432,3.6237,3.5818,3.5729,3.6372,3.6641,3.6971,3.7614,3.7883,3.8003,3.8003,3.8003,3.8003,3.8003,3.8003,3.8003,3.8003,3.7823,3.7704,3.7704,3.7524,3.721,3.6776,3.6761,3.6537,3.6073,3.6073,3.6073,3.6073,3.6073,3.6537,3.7404,3.7404,3.7524,3.7719,3.8197,3.8497,3.8736,3.9215,3.9388,3.9388,3.9388,3.9388,3.9388,3.9388,3.9388,3.9388,3.9388,3.9388,3.9388,3.9388,3.9388,3.9388,3.9388,3.9388,3.9388,3.9388,3.9388,3.9388,3.9388,3.9388,3.9388,3.9388,3.9388,3.9388,3.9388,3.9388,3.9388,3.9388,3.9388,3.9388,3.9388,3.9388,3.9388,3.9388,3.9388,3.9388,3.9388,3.9388,3.9388,3.9388,3.923,3.8646,3.7509,3.724,3.6671,3.5579,3.5504,3.5504,3.5504,3.5504,3.5504,3.5504,3.5504,3.5504,3.5504,3.5504,3.5504,3.5504,3.5504,3.5504,2.2953,2.3765,2.4876,2.6735,2.8844,3.107,3.3533,3.4412,3.5018,3.6064,3.6463,3.6487,3.6217,3.5842,3.5707,3.6061,3.6312,3.6611,3.6985,3.7255,3.7404,3.7404,3.7404,3.7404,3.7404,3.7404,3.7404,3.7404,3.718,3.7045,3.7045,3.6791,3.6492,3.6103,3.6088,3.5908,3.5504,3.5504,3.5504,3.5504,3.5504,3.5908,3.6656,3.6656,3.6791,3.709,3.7988,3.8392,3.8437,3.9125,3.9388,3.9388,3.9388,3.9388,3.9388,3.9388,3.9388,3.9388,3.9388,3.9388,3.9388,3.9388,3.9388,3.9388,3.9388,3.9388,3.9388,3.9388,3.9388,3.9388,3.9388,3.9388,3.9388,3.9388,3.9388,3.9388,3.9388,3.9388,3.9388,3.9388,3.9388,3.9388,3.9388,3.9388,3.9388,3.9388,3.9388,3.9388,3.9388,3.9388,3.9388,3.9388,3.9388,3.8975,3.7898,3.7554,3.6971,3.5953,3.5654,3.5504,3.5504,3.5504,3.5504,3.5504,3.5504,3.5504,3.5504,3.5504,3.5504,3.5504,3.5504,3.5504,2.3173,2.4244,2.5623,2.7704,3.0124,3.2602,3.5112,3.6337,3.6795,3.6218,3.6421,3.6532,3.5931,3.5765,3.5671,3.5554,3.6031,3.6402,3.6402,3.6881,3.724,3.724,3.724,3.724,3.724,3.724,3.724,3.724,3.6716,3.6402,3.6402,3.5833,3.5504,3.5504,3.5504,3.5504,3.5504,3.5504,3.5504,3.5504,3.5504,3.5504,3.5504,3.5504,3.5863,3.6552,3.7704,3.8242,3.8347,3.8975,3.9275,3.9334,3.9334,3.9364,3.9388,3.9388,3.9388,3.9388,3.9388,3.9388,3.9388,3.9388,3.9388,3.9388,3.9388,3.9388,3.9388,3.9388,3.9388,3.9388,3.9388,3.9388,3.9388,3.9388,3.9388,3.9388,3.9388,3.9388,3.9388,3.9388,3.9388,3.9388,3.9388,3.9388,3.9424,3.9409,3.9409,3.9424,3.9409,3.9409,3.9388,3.9388,3.9388,3.914,3.8452,3.7838,3.721,3.6537,3.5923,3.5564,3.5504,3.5504,3.5504,3.5504,3.5504,3.5504,3.5504,3.5504,3.5504,3.5504,3.5504,3.5504,2.3828,2.471,2.5879,2.847,3.1602,3.4292,3.5184,3.6083,3.6783,3.6782,3.6882,3.6895,3.6743,3.6161,3.5688,3.5671,3.5692,3.5714,3.5714,3.5833,3.5908,3.5908,3.5908,3.5908,3.5908,3.5908,3.5908,3.5908,3.5789,3.5714,3.5714,3.5579,3.5504,3.5504,3.5504,3.5504,3.5504,3.5504,3.5504,3.5504,3.5504,3.5504,3.5504,3.5504,3.5863,3.6507,3.6776,3.7165,3.7629,3.7778,3.8138,3.8616,3.8616,3.8945,3.9388,3.9388,3.9388,3.9388,3.9388,3.9388,3.9388,3.9388,3.9388,3.9388,3.9388,3.9388,3.9388,3.9388,3.9388,3.9388,3.9388,3.9388,3.9388,3.9388,3.9388,3.9388,3.9388,3.9388,3.9388,3.9388,3.9388,3.9388,3.9388,3.9388,3.9445,3.9625,3.9481,3.9445,3.9625,3.9481,3.9388,3.9388,3.9388,3.914,3.8452,3.8257,3.7689,3.6552,3.6357,3.6043,3.5534,3.5504,3.5504,3.5504,3.5504,3.5504,3.5504,3.5504,3.5504,3.5504,3.5504,3.5504,2.362,2.4639,2.6266,2.9935,3.264,3.4701,3.5761,3.6364,3.6746,3.7111,3.7015,3.684,3.6776,3.6297,3.5879,3.572,3.5604,3.5504,3.5504,3.5504,3.5504,3.5504,3.5504,3.5504,3.5504,3.5504,3.5504,3.5504,3.5504,3.5504,3.5504,3.5504,3.5504,3.5504,3.5504,3.5504,3.5504,3.5504,3.5504,3.5504,3.5504,3.5504,3.5504,3.5504,3.5684,3.6028,3.6357,3.6671,3.6985,3.7285,3.7614,3.7943,3.8257,3.8601,3.896,3.929,3.9388,3.9388,3.9388,3.9388,3.9388,3.9388,3.9388,3.9388,3.9388,3.9388,3.9388,3.9388,3.9388,3.9388,3.9388,3.9388,3.9388,3.9388,3.9388,3.9388,3.9388,3.9388,3.9388,3.9388,3.9388,3.9424,3.9517,3.9681,3.9824,3.9915,3.993,3.993,3.995,3.9859,3.9753,3.9711,3.9676,3.954,3.9199,3.8867,3.8385,3.7756,3.7074,3.6577,3.623,3.5914,3.5651,3.5504,3.5504,3.5504,3.5504,3.5504,3.5504,3.5504,3.5504,3.5504,2.319,2.4601,2.6852,3.1039,3.3028,3.4406,3.5995,3.6454,3.668,3.7277,3.707,3.6754,3.6631,3.6414,3.6148,3.5847,3.5653,3.5537,3.5504,3.5504,3.5504,3.5504,3.5504,3.5504,3.5504,3.5504,3.5504,3.5504,3.5504,3.5504,3.5504,3.5504,3.5504,3.5504,3.5504,3.5504,3.5504,3.5504,3.5504,3.5504,3.5504,3.5504,3.5504,3.5504,3.5504,3.5534,3.6088,3.6312,3.6357,3.6866,3.715,3.73,3.7853,3.8197,3.8467,3.9035,3.932,3.9388,3.9388,3.9388,3.9388,3.9388,3.9388,3.9388,3.9388,3.9388,3.9388,3.9388,3.9388,3.9388,3.9388,3.9388,3.9388,3.9388,3.9388,3.9388,3.9388,3.9388,3.9424,3.946,3.9481,3.961,3.9788,4.0091,4.032,4.0389,4.0509,4.0543,4.0424,4.0355,4.0266,4.0137,4.0101,4.0101,4.0101,3.9569,3.9223,3.9101,3.7943,3.7227,3.709,3.6418,3.5957,3.5699,3.5587,3.5522,3.5522,3.5504,3.5504,3.5504,3.5504,3.5504,2.319,2.5277,2.7801,3.0154,3.2124,3.3681,3.446,3.5483,3.6459,3.7169,3.721,3.7134,3.7104,3.6754,3.6383,3.6179,3.5879,3.5638,3.5537,3.5504,3.5504,3.5504,3.5504,3.5504,3.5504,3.5504,3.5504,3.5504,3.5504,3.5504,3.5504,3.5504,3.5504,3.5504,3.5504,3.5504,3.5504,3.5504,3.5504,3.5504,3.5504,3.5504,3.5504,3.5504,3.5504,3.5504,3.5594,3.5639,3.5639,3.5729,3.6103,3.6611,3.6716,3.7419,3.8407,3.8497,3.8901,3.9388,3.9388,3.9388,3.9388,3.9388,3.9388,3.9388,3.9388,3.9388,3.9388,3.9388,3.9388,3.9388,3.9388,3.9388,3.9388,3.9388,3.9388,3.9388,3.9388,3.9388,3.9445,3.9625,3.9879,4.0146,4.0339,4.0562,4.0817,4.1122,4.1024,4.099,4.114,4.0885,4.073,4.0696,4.0524,4.042,4.042,4.0343,4.0055,3.9474,3.8719,3.8027,3.746,3.6799,3.6398,3.6367,3.5894,3.5655,3.5655,3.5554,3.5504,3.5504,3.5504,3.5504,2.319,2.4855,2.677,2.841,3.0319,3.2054,3.3072,3.4309,3.5456,3.6206,3.6567,3.693,3.748,3.7118,3.6662,3.6492,3.6038,3.5688,3.5621,3.5554,3.5504,3.5504,3.5504,3.5522,3.5589,3.5621,3.5668,3.5765,3.5765,3.5733,3.5621,3.5621,3.5572,3.5504,3.5504,3.5504,3.5504,3.5504,3.5504,3.5504,3.5504,3.5504,3.5504,3.5504,3.5504,3.5504,3.5504,3.5504,3.5504,3.5504,3.5669,3.5968,3.6342,3.6836,3.7375,3.7719,3.8257,3.8841,3.8841,3.9095,3.9388,3.9388,3.9388,3.9388,3.9388,3.9388,3.9388,3.9388,3.9388,3.9388,3.9388,3.9388,3.9388,3.9388,3.9388,3.9424,3.9553,3.9553,3.9681,4.0091,4.0528,4.087,4.1073,4.144,4.1753,4.1883,4.1916,4.19,4.19,4.1785,4.1621,4.1392,4.1292,4.1207,4.1122,4.1122,4.0997,4.0702,4.0061,3.9545,3.9249,3.8185,3.7622,3.7622,3.6661,3.6085,3.5975,3.5926,3.5797,3.5621,3.5621,3.5572,2.319,2.4145,2.5312,2.6853,2.8491,3.0055,3.1402,3.2807,3.401,3.4766,3.5521,3.6323,3.7224,3.694,3.651,3.6362,3.5815,3.5379,3.5316,3.5339,3.5379,3.5379,3.5514,3.5668,3.5816,3.5816,3.5911,3.61,3.6068,3.5958,3.5799,3.572,3.5638,3.5504,3.5504,3.5504,3.5504,3.5504,3.5504,3.5504,3.5504,3.5504,3.5504,3.5504,3.5504,3.5504,3.5504,3.5504,3.5504,3.5504,3.5504,3.5549,3.6043,3.6342,3.6537,3.7,3.7584,3.8167,3.8332,3.8721,3.9185,3.9328,3.9388,3.9388,3.9388,3.9388,3.9388,3.9388,3.9388,3.9388,3.9388,3.9388,3.9409,3.9445,3.9496,3.9517,3.9732,3.9859,4.0126,4.0597,4.1158,4.1638,4.1867,4.2478,4.2941,4.2987,4.3065,4.3096,4.2987,4.2794,4.2491,4.2205,4.2126,4.2045,4.1948,4.1883,4.1851,4.1835,4.1215,4.0833,4.0833,3.9686,3.9017,3.9017,3.7853,3.6986,3.6445,3.6367,3.6179,3.5879,3.5847,3.5735,2.319,2.3416,2.3898,2.595,2.7015,2.7904,2.9251,3.0804,3.2147,3.2896,3.4114,3.5278,3.5894,3.577,3.5538,3.5398,3.4856,3.4419,3.4316,3.4699,3.5032,3.5032,3.5594,3.6037,3.6164,3.6164,3.6242,3.646,3.632,3.6148,3.6005,3.5799,3.5638,3.5504,3.5504,3.5504,3.5504,3.5504,3.5504,3.5504,3.5504,3.5504,3.5504,3.5504,3.5504,3.5504,3.5504,3.5504,3.5504,3.5504,3.5504,3.5504,3.5549,3.5938,3.6492,3.6522,3.6926,3.7539,3.8167,3.8407,3.8556,3.92,3.9388,3.9388,3.9388,3.9388,3.9388,3.9388,3.9388,3.9388,3.9388,3.9388,3.946,3.9661,3.9681,3.9732,3.9925,4.0366,4.0867,4.1189,4.177,4.2349,4.2679,4.3655,4.4441,4.4561,4.4591,4.4591,4.4561,4.3812,4.3246,4.3216,4.299,4.2837,4.2837,4.2665,4.2555,4.2554,4.1907,4.1535,4.1535,4.0804,4.0399,4.0399,3.9693,3.8619,3.7164,3.6831,3.66,3.646,3.6274,3.6006,2.2617,2.3023,2.3536,2.4251,2.5312,2.6401,2.7281,2.8648,2.9952,3.069,3.2005,3.3078,3.3284,3.484,3.6007,3.579,3.5275,3.4862,3.4721,3.4806,3.4872,3.4872,3.5088,3.5272,3.5405,3.5868,3.6222,3.6402,3.6673,3.6739,3.6461,3.6179,3.5894,3.5653,3.5554,3.5504,3.5504,3.5504,3.5504,3.5504,3.5504,3.5504,3.5504,3.5504,3.5504,3.5504,3.5504,3.5504,3.5504,3.5504,3.5504,3.5504,3.5504,3.5654,3.5863,3.5863,3.6267,3.6911,3.7539,3.8033,3.8497,3.9185,3.9388,3.9388,3.9388,3.9481,3.9589,3.9589,3.9711,3.9783,3.9783,3.9783,3.9854,4.0161,4.0851,4.1507,4.1781,4.1554,4.1489,4.2013,4.3005,4.3832,4.4139,4.5012,4.5677,4.5707,4.5737,4.5737,4.5737,4.501,4.4501,4.4397,4.3847,4.3446,4.3355,4.3279,4.3248,4.3232,4.3002,4.287,4.287,4.2177,4.1782,4.1782,4.1124,4.0029,3.8469,3.7905,3.7417,3.7058,3.6906,3.6616,2.2296,2.2651,2.3074,2.3253,2.4048,2.4909,2.5531,2.6652,2.7776,2.8496,2.9856,3.0999,3.1173,3.3061,3.4644,3.4809,3.4611,3.4408,3.4273,3.4545,3.4776,3.4776,3.498,3.5162,3.5287,3.5742,3.6112,3.6314,3.6555,3.6576,3.6266,3.5859,3.5461,3.5056,3.4911,3.4831,3.4831,3.4831,3.4936,3.516,3.516,3.528,3.5504,3.5504,3.5504,3.5504,3.5504,3.5504,3.5504,3.5504,3.5504,3.5504,3.5504,3.5504,3.5504,3.5554,3.5857,3.6322,3.7049,3.7695,3.8372,3.9048,3.9424,3.9604,3.9646,3.9753,3.9879,3.9965,4.0051,4.0172,4.0172,4.0261,4.0516,4.1012,4.1983,4.2916,4.3472,4.315,4.2912,4.3488,4.4414,4.5208,4.5464,4.6234,4.6828,4.6828,4.6828,4.6828,4.6828,4.5984,4.535,4.5232,4.4457,4.3948,4.3844,4.3802,4.3772,4.3772,4.3772,4.3772,4.3772,4.3307,4.304,4.304,4.237,4.1484,4.0475,3.9325,3.8569,3.8179,3.7764,3.7268,0.0,0.0,0.0,2.3119,2.3272,2.3427,2.4041,2.4825,2.5663,2.6404,2.7805,2.9092,2.9703,3.0407,3.124,3.2215,3.2718,3.2919,3.2812,3.3867,3.4654,3.4654,3.5235,3.5662,3.5808,3.5868,3.5954,3.6179,3.5894,3.5621,3.5331,3.4865,3.4312,3.3713,3.3576,3.3484,3.3499,3.3499,3.3814,3.4474,3.4503,3.4848,3.5474,3.5489,3.5504,3.5504,3.5504,3.5504,3.5504,3.5504,3.5504,3.5504,3.5504,3.5504,3.5537,3.5671,3.572,3.5857,3.6698,3.7446,3.8098,3.8781,3.9449,4.0001,4.0181,4.0216,4.0285,4.0489,4.0524,4.0524,4.0524,4.0833,4.1362,4.2223,4.3017,4.3832,4.4838,4.5082,4.5211,4.5561,4.6015,4.6368,4.6518,4.7308,4.7922,4.7922,4.7922,4.7922,4.7922,4.6667,4.5771,4.5737,4.4884,4.4327,4.431,4.4184,4.4097,4.4097,4.4097,4.4097,4.4097,4.4097,4.4097,4.4097,4.3422,4.3054,4.3037,4.1089,3.9999,3.9699,3.8752,3.7927,2.2296,0.0,0.0,0.0,0.0,0.0,2.3454,2.3821,2.4191,2.4934,2.5863,2.6742,2.7468,2.8194,2.893,2.9697,3.1082,3.222,3.2656,3.3036,3.3252,3.3252,3.3416,3.3743,3.4316,3.4824,3.5349,3.5865,3.6166,3.6142,3.5696,3.4878,3.4208,3.3713,3.3653,3.3607,3.3499,3.3499,3.3589,3.3769,3.4279,3.4656,3.4946,3.5428,3.5718,3.5861,3.5861,3.5861,3.5829,3.5587,3.5554,3.5638,3.5638,3.575,3.5893,3.6022,3.607,3.6176,3.7007,3.7424,3.7744,3.8971,3.9564,3.9881,4.0458,4.0817,4.1005,4.1055,4.1189,4.1323,4.1425,4.1638,4.2123,4.3267,4.4333,4.5288,4.6362,4.7213,4.7437,4.6307,4.6756,4.7356,4.7507,4.8176,4.8714,4.8714,4.8714,4.8714,4.8714,4.7885,4.7107,4.6549,4.5793,4.5105,4.4547,4.4485,4.4457,4.4457,4.4457,4.4457,4.4457,4.4457,4.4457,4.4457,4.4255,4.4153,4.4136,4.2317,4.1039,4.0315,3.9077,3.8343,0.0,0.0,2.2296,2.2296,0.0,0.0,2.2852,2.2936,2.3139,2.3898,2.4374,2.4915,2.5659,2.6133,2.6657,2.7349,2.8667,3.0039,3.1283,3.1976,3.2375,3.2375,3.2641,3.299,3.3422,3.3815,3.434,3.5096,3.5308,3.5321,3.5016,3.4254,3.3609,3.3163,3.2988,3.2826,3.2677,3.2751,3.2916,3.3171,3.3985,3.456,3.4941,3.5686,3.61,3.6195,3.6195,3.6195,3.6195,3.6052,3.5973,3.5911,3.599,3.6148,3.632,3.6554,3.6662,3.677,3.7328,3.7732,3.8169,3.8982,3.9704,4.0334,4.0856,4.1351,4.1785,4.1835,4.1997,4.2174,4.2254,4.2428,4.297,4.439,4.5342,4.625,4.7567,4.8387,4.8579,4.755,4.7827,4.8267,4.8345,4.8731,4.9001,4.9001,4.9001,4.9001,4.9001,4.8105,4.7276,4.6836,4.5855,4.506,4.4649,4.4615,4.4615,4.4615,4.4615,4.4615,4.4615,4.4615,4.4615,4.4615,4.4615,4.4615,4.4615,4.3187,4.2091,4.1191,4.0321,3.9818,0.0,0.0,0.0,2.2296,2.2296,0.0,2.2296,2.2296,2.2496,2.3139,2.3274,2.3494,2.4237,2.4372,2.4626,2.5372,2.6031,2.7164,2.9202,3.0704,3.1571,3.1571,3.216,3.2612,3.278,3.2797,3.3148,3.4019,3.3838,3.37,3.3813,3.3276,3.2763,3.2437,3.2066,3.1784,3.1568,3.1756,3.2113,3.2672,3.3753,3.4574,3.5232,3.6153,3.6585,3.6616,3.6616,3.66,3.6647,3.6754,3.6616,3.6336,3.6538,3.6693,3.6861,3.7178,3.7387,3.7535,3.7714,3.8288,3.8918,3.8999,3.9865,4.097,4.1285,4.1878,4.2458,4.2663,4.2836,4.2992,4.2992,4.3174,4.3776,4.5464,4.6107,4.6784,4.845,4.8925,4.897,4.8849,4.8925,4.9001,4.9001,4.9001,4.9001,4.9001,4.9001,4.9001,4.9001,4.7784,4.6887,4.6802,4.5534,4.4699,4.4615,4.4615,4.4615,4.4615,4.4615,4.4615,4.4615,4.4615,4.4615,4.4615,4.4615,4.4615,4.4615,4.3792,4.3,4.225,4.1893,4.1666,2.2296,2.2296,2.2296,2.2296,2.2296,0.0,2.2296,2.2296,2.233,2.2482,2.2499,2.275,2.3477,2.3613,2.3864,2.4592,2.4829,2.5693,2.7855,2.8969,2.9578,2.9578,2.9696,3.0253,3.1452,3.1553,3.2049,3.3295,3.2995,3.2922,3.3315,3.283,3.2547,3.2544,3.237,3.2163,3.1896,3.2038,3.2239,3.2474,3.3917,3.4769,3.5156,3.6465,3.7134,3.7208,3.7208,3.7314,3.7464,3.7494,3.73,3.7028,3.7178,3.7417,3.7682,3.7857,3.8014,3.8157,3.8343,3.8609,3.8905,3.9442,3.9936,4.0496,4.1671,4.2249,4.2614,4.3234,4.3429,4.3505,4.3595,4.3654,4.4151,4.5935,4.6408,4.6918,4.8588,4.897,4.9001,4.8987,4.897,4.9001,4.9001,4.9001,4.9001,4.9001,4.9001,4.9001,4.9001,4.824,4.7462,4.6853,4.6007,4.5246,4.4649,4.4615,4.4615,4.4615,4.4615,4.4615,4.4615,4.4615,4.4615,4.4615,4.4615,4.4615,4.4615,4.3792,4.3308,4.3128,4.2375,4.2024,2.2296,2.2296,2.2296,2.2296,2.2296,0.0,0.0,2.2296,2.2296,2.2296,2.2296,2.2398,2.2784,2.2852,2.297,2.3342,2.3712,2.434,2.5456,2.659,2.7435,2.7808,2.818,2.8839,2.9991,3.011,3.0661,3.2008,3.2582,3.2884,3.2952,3.2521,3.234,3.25,3.224,3.2141,3.2191,3.2398,3.2574,3.2711,3.4058,3.4999,3.5586,3.6724,3.7495,3.7902,3.7972,3.8059,3.8177,3.8274,3.8286,3.8169,3.8042,3.8173,3.8439,3.8606,3.8745,3.8914,3.9013,3.9148,3.9288,3.9636,4.0088,4.0591,4.1294,4.2081,4.2898,4.3631,4.3889,4.3977,4.4035,4.4121,4.4594,4.6267,4.665,4.7085,4.8649,4.9001,4.9001,4.9001,4.9001,4.9001,4.9001,4.9001,4.9001,4.9001,4.8697,4.846,4.846,4.7496,4.6667,4.6295,4.5585,4.4993,4.4632,4.4615,4.4615,4.4615,4.4615,4.4615,4.4615,4.4615,4.4615,4.4615,4.4615,4.4615,4.4615,4.4198,4.3995,4.3995,4.3567,4.3344,2.2733,2.2733,2.2699,2.2547,2.2499,2.2465,0.0,0.0,0.0,2.2296,2.2296,2.2296,2.2296,2.2296,2.2296,2.2296,2.2801,2.319,2.319,2.4222,2.5287,2.6183,2.681,2.7537,2.8468,2.8824,2.9463,3.053,3.1688,3.2349,3.2326,3.1954,3.1915,3.234,3.2104,3.2123,3.2443,3.2821,3.3082,3.3266,3.4366,3.5352,3.6222,3.7075,3.7877,3.8544,3.8667,3.875,3.8805,3.9013,3.9185,3.9302,3.8925,3.8914,3.9158,3.9249,3.9425,3.958,3.958,3.9668,3.9781,3.9781,4.0385,4.108,4.108,4.2148,4.344,4.4016,4.427,4.4367,4.4367,4.4468,4.4987,4.643,4.6786,4.7192,4.868,4.9001,4.9001,4.9001,4.9001,4.9001,4.9001,4.8883,4.8798,4.8798,4.8173,4.7669,4.7669,4.6532,4.5703,4.5703,4.5026,4.4615,4.4615,4.4615,4.4615,4.4615,4.4615,4.4666,4.4818,4.4953,4.497,4.479,4.4818,4.475,4.4615,4.4615,4.4615,4.4615,4.4615,4.4615,2.4254,2.4254,2.4085,2.3427,2.3274,2.3105,2.2448,0.0,2.2296,2.2296,0.0,2.2296,2.2296,0.0,0.0,2.2296,2.2364,2.2415,2.2415,2.2567,2.319,2.4575,2.4812,2.5422,2.6843,2.8197,2.9061,2.9228,2.9269,2.9811,3.094,3.0695,3.1013,3.2107,3.2474,3.2645,3.2574,3.3374,3.3908,3.4176,3.5058,3.6022,3.6992,3.7685,3.8395,3.9098,3.9125,3.9222,3.9405,3.9432,3.959,3.9781,3.9511,3.9484,3.9625,3.9651,3.9729,3.9849,3.9849,3.9935,4.0045,4.0045,4.1009,4.2141,4.2141,4.3206,4.444,4.4525,4.4542,4.457,4.457,4.457,4.4987,4.643,4.6786,4.7192,4.868,4.9001,4.9001,4.9001,4.9001,4.9001,4.9001,4.8477,4.8007,4.8007,4.7411,4.6921,4.6921,4.621,4.5703,4.5703,4.5026,4.4615,4.4615,4.4615,4.4615,4.4615,4.4615,4.4874,4.5551,4.6194,4.6227,4.5602,4.5585,4.5246,4.4615,4.4615,4.4615,4.4615,4.4615,4.4615,2.4491,2.4491,2.4423,2.4118,2.3729,2.3325,2.3004,2.2615,2.2296,2.2296,0.0,0.0,0.0,0.0,0.0,0.0,2.2296,2.2296,2.2296,2.2296,2.2699,2.3746,2.3864,2.4271,2.532,2.6403,2.7199,2.7639,2.8008,2.8644,2.959,2.9829,3.0303,3.1084,3.2119,3.2762,3.3064,3.3942,3.4448,3.4643,3.5117,3.5809,3.6728,3.7428,3.8161,3.8878,3.9399,3.9651,3.9746,3.9824,3.991,4.0011,3.9884,3.9884,3.9918,3.9918,3.9961,4.0011,4.0011,4.0062,4.0096,4.0096,4.0823,4.1745,4.2168,4.3047,4.3995,4.4479,4.4615,4.4615,4.4615,4.4615,4.4869,4.5906,4.6481,4.709,4.8139,4.8714,4.9001,4.9001,4.9001,4.8866,4.8443,4.8091,4.7736,4.7327,4.6633,4.616,4.616,4.5517,4.5043,4.5043,4.4801,4.4615,4.4615,4.4615,4.4615,4.4615,4.4993,4.5568,4.6312,4.6633,4.665,4.6346,4.6346,4.5974,4.5229,4.5229,4.501,4.4615,4.4615,4.4615,2.51,2.51,2.5049,2.4846,2.4391,2.3951,2.3763,2.3291,2.2852,2.2634,2.2598,0.0,0.0,0.0,2.2296,2.2296,0.0,2.2296,2.2296,2.2296,2.2499,2.3038,2.3274,2.3611,2.4152,2.488,2.5524,2.6065,2.6793,2.7485,2.819,2.9005,2.9708,3.0261,3.1818,3.2877,3.3307,3.4365,3.4923,3.5065,3.5175,3.5669,3.6525,3.7287,3.8026,3.8765,3.959,3.9935,3.9961,4.0062,4.0096,4.0096,4.0096,4.0096,4.0096,4.0096,4.0096,4.0096,4.0096,4.0096,4.013,4.035,4.0899,4.1644,4.2371,4.3132,4.3859,4.4445,4.4615,4.4615,4.4615,4.4615,4.4801,4.5517,4.6261,4.7005,4.772,4.8494,4.9001,4.9001,4.9001,4.8781,4.8024,4.775,4.7361,4.6599,4.5872,4.5399,4.5399,4.4925,4.4615,4.4615,4.4615,4.4615,4.4615,4.4615,4.4699,4.4902,4.5585,4.6329,4.7073,4.7293,4.731,4.7107,4.7107,4.6735,4.6007,4.6007,4.5618,4.4919,4.4699,4.4615,2.6623,2.6623,2.6454,2.5744,2.5542,2.5338,2.4626,2.444,2.422,2.3511,2.3359,2.3139,2.2431,2.2296,2.2296,0.0,2.2296,0.0,0.0,2.2296,2.2296,2.233,2.297,2.341,2.3427,2.4101,2.4541,2.4558,2.5253,2.5998,2.6725,2.8073,2.9162,2.9885,3.1985,3.3093,3.311,3.4549,3.5354,3.5469,3.5492,3.5948,3.6806,3.7543,3.8287,3.9039,3.9766,4.0096,4.0096,4.0096,4.0096,4.0096,4.0096,4.0096,4.0096,4.0096,4.0096,4.0096,4.0096,4.0096,4.0231,4.0933,4.166,4.2388,4.3122,4.3927,4.4581,4.4598,4.4615,4.4615,4.4615,4.4615,4.4801,4.5517,4.6261,4.7005,4.772,4.8494,4.9001,4.9001,4.9001,4.8781,4.8024,4.731,4.6583,4.5855,4.5094,4.4649,4.4649,4.4615,4.4615,4.4615,4.4615,4.4615,4.4615,4.4615,4.4919,4.5618,4.6363,4.7107,4.7821,4.8562,4.8595,4.7872,4.7855,4.7513,4.6752,4.6752,4.638,4.5652,4.4925,4.4615,2.6691,2.6691,2.664,2.6387,2.5964,2.5525,2.5287,2.4846,2.4423,2.4186,2.4135,2.3898,2.3156,2.3038,0.0,0.0,0.0,2.2296,0.0,2.2296,2.2296,2.2296,2.2516,2.2682,2.2682,2.2902,2.3241,2.3746,2.4474,2.5186,2.593,2.784,2.9056,2.9293,3.1432,3.2812,3.3279,3.4295,3.5043,3.5571,3.5571,3.5729,3.6045,3.6806,3.7567,3.8311,3.9039,3.9656,4.0096,4.0096,4.0096,4.0096,4.0096,4.0096,4.0096,4.0096,4.0096,4.0096,4.0096,4.0434,4.0865,4.1119,4.2033,4.3081,4.3308,4.3961,4.4615,4.4615,4.4615,4.4615,4.4615,4.4615,4.4666,4.4891,4.5534,4.6278,4.7005,4.7767,4.8426,4.8917,4.9001,4.8781,4.8024,4.7669,4.7293,4.6532,4.5805,4.5331,4.5331,4.4919,4.4615,4.4615,4.4615,4.4615,4.4615,4.5043,4.5635,4.638,4.7124,4.7868,4.8612,4.8883,4.8883,4.8646,4.8646,4.8274,4.753,4.753,4.7158,4.6413,4.616,4.5546,2.7165,2.7097,2.7029,2.6759,2.6336,2.5998,2.5998,2.5609,2.5218,2.4948,2.4897,2.4677,2.3932,2.3579,2.3241,0.0,0.0,0.0,0.0,2.2296,2.2296,2.2296,2.2296,2.2296,2.2296,2.2296,2.2499,2.297,2.3949,2.4711,2.5169,2.7622,2.8993,2.8993,3.1142,3.2645,3.3406,3.4134,3.4878,3.56,3.56,3.56,3.5633,3.6705,3.7449,3.7973,3.8954,3.9673,4.0096,4.0096,4.0096,4.0096,4.0096,4.0096,4.0096,4.0096,4.0096,4.0146,4.0417,4.0798,4.1288,4.1813,4.2642,4.3443,4.3741,4.4181,4.4615,4.4615,4.4615,4.4615,4.4615,4.4615,4.4615,4.4615,4.5162,4.5906,4.6633,4.7394,4.8108,4.8866,4.9001,4.8849,4.8392,4.8308,4.797,4.6938,4.6397,4.6007,4.5737,4.528,4.4874,4.4632,4.4615,4.4716,4.4987,4.5432,4.6126,4.7124,4.7648,4.824,4.8968,4.9001,4.9001,4.9001,4.9001,4.8781,4.8308,4.8308,4.7919,4.7192,4.7192,4.6532]}]]